     2              OBSERVATION DATA    GPS                 RINEX VERSION / TYPE
ASRINEXO V2.4.4 UX USGS 24-FEB-96 16:12                     PGM / RUN BY / DATE
                                                            COMMENT
Contact: kwendt@isdmnl.wr.usgs.gov (Ph: 415-329-4866)       COMMENT
Contact: kwendt@isdmnl.wr.usgs.gov (Ph: 415-329-4866)       COMMENT
Contact: kwendt@isdmnl.wr.usgs.gov (Ph: 415-329-4866)       COMMENT
Contact: kwendt@isdmnl.wr.usgs.gov (Ph: 415-329-4866)       COMMENT
Contact: kwendt@isdmnl.wr.usgs.gov (Ph: 415-329-4866)       COMMENT
Contact: kwendt@isdmnl.wr.usgs.gov (Ph: 415-329-4866)       COMMENT
Original Marker Name: ovro OVRO_BP_Aries_3_1977_NGS         COMMENT
Campaign Name: USGS Yucca Profile                           COMMENT
4-Character Station Name: OVRO                              COMMENT
6-Character Antenna Code: ASHGD3                            COMMENT
Vertical Measurement Point: EGP                             COMMENT
Vertical Offset to Rinex Ref. Point: 0.0594                 COMMENT
Radial Measurement Point: EGP                               COMMENT
Radial Offset to Rinex Ref. Point: 0.1837                   COMMENT
Antenna Height from Field Measurement: 1.4700 m             COMMENT
Additional Antenna Identification Info.:                    COMMENT
The Whopper (700718AB)                                      COMMENT
Original XYZ: -2714358.9400 -4244570.4800 3899172.3600      COMMENT
New XYZ position is based on association with SCEC monument COMMENT
E1F7W3N1+0011. Position of that monument is believed to be  COMMENT
valid to within 1 m horizontally; vertical accuracy         COMMENT
should be no worse than 3-times this value.                 COMMENT
                                                            COMMENT
Revised Rinex header created by UCSD GPS archive for        COMMENT
GSAC on 08-Aug-2000 (2000:221) 00:13:22 GMT                 COMMENT
For assistance contact dagnew@ucsd.edu                      COMMENT
or anderson@python.ucsd.edu                                 COMMENT
                                                            COMMENT
BP ARIES 3 1977                                             MARKER NAME
CHS US GEOLOGICAL SURVEY                                    OBSERVER / AGENCY
143 ASHTECH Z-XII3 1F00                                     REC # / TYPE / VERS
11401 ASHTECH GEODETIC III                                  ANT # / TYPE
 -2409643.5831 -4478268.4309  3838638.5529                  APPROX POSITION XYZ
        1.3991        0.0000        0.0000                  ANTENNA: DELTA H/E/N
     1     1     0                                          WAVELENGTH FACT L1/2
     5    C1    L1    L2    P1    P2                        # / TYPES OF OBSERV
    30                                                      INTERVAL
  1996     2     6    16    34    0.000000                  TIME OF FIRST OBS
  1996     2     6    23    30    0.000000                  TIME OF LAST OBS
                                                            END OF HEADER
 96  2  6 16 34  0.0000000  0  5 22 29 25 14 15
  19003531.504      -27988.53719    -14779.26259                  19003535.6964
  18875672.845      -21788.63519    -11268.04959                  18875676.9584
  19539748.272       61356.64519     36557.41659                  19539749.6944
  17565026.081      -10525.05119     -6501.24559                  17565034.5154
  20262415.242       76571.92119     43499.45359                  20262419.4514
 96  2  6 16 34 30.0000000  0  5 22 29 25 14 15
  18995991.093      -67602.71659    -45647.44449  18995990.5644   18995995.8684
  18869883.637      -52211.88759    -34974.47649  18869881.8934   18869887.4964
  19558467.773      159753.71959    113230.44849  19558469.0544   19558473.9524
  17562726.275      -22635.44659    -15937.92849  17562724.2054   17562730.2554
  20284697.098      193654.35059    134732.48949  20284693.4864   20284699.7784
 96  2  6 16 34 59.9970000  0  5 22 29 25 14 15
  21386842.175     -106959.12149    -76314.74549  21386841.3094   21386846.6934
  21262422.240      -82713.17749    -58741.69449  21262417.7814   21262423.0344
  21975524.644      258105.02449    189867.79749  21975524.2944   21975529.3324
  19958808.106      -34484.78949    -25171.19549  19958808.8434   19958814.7034
  22705298.527      310634.59249    225885.89649  22705293.7664   22705300.3804
 96  2  6 16 35 29.9980000  0  5 22 29 25 14 15
  21379393.910     -146088.48959   -106805.13259  21379394.9434   21379400.7024
  21256596.695     -113308.32159    -82582.06159  21256595.3874   21256601.0824
  21994252.117      356495.27059    266535.51259  21994247.5604   21994252.1304
  19956602.543      -46083.28059    -34208.97659  19956601.4844   19956607.9054
  22727552.720      427602.71459    317029.85059  22727551.9584   22727558.6634
 96  2  6 16 35 59.9980000  0  5 22 29 25 14 15
  21371992.867     -184998.67949   -137124.72949  21371990.3574   21371996.5064
  21250757.794     -143994.91149   -106493.67849  21250756.2164   21250761.3724
  22012965.730      454860.71349    343183.88949  22012966.0324   22012970.7504
  19954437.505      -57456.85449    -43071.51349  19954437.6774   19954443.4604
  22749795.099      544486.76349    408108.30049  22749793.5154   22749801.2004
 96  2  6 16 36 29.9980000  0  5 22 29 25 14 15
  21364632.446     -223665.68149   -167254.83849  21364632.3934   21364638.4584
  21244901.535     -174765.17149   -130470.49449  21244900.8714   21244905.6544
  22031678.899      553199.71549    419811.67149  22031679.4074   22031683.8554
  19952320.738      -68582.67349    -51740.98249  19952320.1804   19952326.1124
  22772023.741      661308.12149    499137.90649  22772025.2024   22772031.8094
 96  2  6 16 36 59.9980000  0  5 22 29 25 14 15
  21357325.911     -262068.13949   -197178.80549  21357324.6304   21357330.6004
  21239025.741     -205627.86149   -154519.33049  21239027.9414   21239032.6854
  22050395.157      651529.86949    496432.53949  22050390.6884   22050395.5954
  19950256.063      -79435.33649    -60197.60549  19950255.3104   19950260.9624
  22794243.894      778075.34049    590125.31449  22794244.3564   22794251.1954
 96  2  6 16 37 29.9980000  0  5 22 29 25 14 15
  21350056.097     -300266.55649   -226943.78549  21350055.6464   21350062.1594
  21233127.023     -236633.20049   -178679.32849  21233127.5204   21233132.3664
  22069090.553      749798.66649    573005.61249  22069090.8104   22069095.5854
  19948229.057      -90085.82549    -68496.69349  19948228.6104   19948234.2674
  22816444.748      894722.57449    681019.21849  22816441.6314   22816449.4364
 96  2  6 16 37 59.9980000  0  5 22 29 25 14 15
  21342831.078     -338237.30249   -256531.35649  21342830.5104   21342836.3384
  21227204.668     -267754.59849   -202929.75749  21227205.3824   21227210.5284
  22087778.464      848015.56749    649538.24249  22087780.7544   22087785.5034
  19946244.226     -100516.97849    -76624.87149  19946243.7224   19946249.4204
  22838619.114     1011262.04049    771829.15049  22838618.1354   22838626.1704
 96  2  6 16 38 29.9980000  0  5 22 29 25 14 15
  21335654.171     -375957.11149   -285923.39549  21335652.4334   21335658.6724
  21221260.351     -298990.07949   -227269.07949  21221261.4404   21221266.6264
  22106463.967      946175.97049    726026.84549  22106460.2844   22106465.1084
  19944304.429     -110714.11949    -84570.70249  19944303.2714   19944308.8164
  22860774.284     1127692.20249    862553.89149  22860774.8924   22860781.1744
 96  2  6 16 38 59.9980000  0  5 22 29 25 14 15
  21328522.914     -413428.99549   -315122.26549  21328521.9614   21328527.5314
  21215297.181     -330329.13949   -251689.11749  21215297.8334   21215303.2674
  22125129.090     1044282.78349    802473.70449  22125129.1544   22125134.0224
  19942406.724     -120679.22649    -92335.72949  19942406.9234   19942412.6064
  22882910.970     1244008.99149    953190.30049  22882908.9784   22882916.1594
 96  2  6 16 39 29.9980000  0  5 22 29 25 14 15
  21321448.459     -450603.34949   -344089.27149  21321447.6494   21321453.7014
  21209327.031     -361702.75749   -276136.08449  21209327.5494   21209332.9844
  22143790.950     1142367.03949    878902.96749  22143793.9274   22143798.7014
  19940566.054     -130353.56949    -99874.18349  19940565.9954   19940571.7784
  22905035.511     1360265.56249   1043779.79449  22905032.4594   22905039.9794
 96  2  6 16 39 59.9980000  0  5 22 29 25 14 15
  21314427.158     -487505.38149   -372844.08749  21314425.4104   21314431.3364
  21203340.663     -393160.92049   -300648.93049  21203341.3454   21203346.5834
  22162450.303     1240378.18949    955275.27949  22162444.9314   22162449.8864
  19938778.649     -139753.23949   -107198.60249  19938777.5384   19938782.8984
  22927136.117     1476426.37249   1134294.67149  22927136.9134   22927143.2574
 96  2  6 16 40 29.9980000  0  5 22 29 25 14 15
  21307453.686     -524146.73449   -401395.77449  21307452.5614   21307458.9944
  21197336.417     -424723.09549   -325242.82249  21197334.9424   21197340.3624
  22181083.981     1338318.37049   1031592.29449  22181082.5804   22181087.4164
  19937041.533     -148874.98649   -114306.46149  19937041.6704   19937046.9774
  22949225.461     1592488.84549   1224732.92449  22949222.4604   22949230.1964
 96  2  6 16 40 59.9980000  0  5 22 29 25 14 15
  21300536.013     -560494.30549   -429718.53749  21300536.1644   21300541.9024
  21191320.627     -456352.72849   -349889.28049  21191316.1584   21191321.2454
  22199717.952     1436246.23049   1107899.69849  22199717.4244   22199722.6264
  19935366.822     -157678.30449   -121166.19349  19935366.5834   19935372.0274
  22971298.081     1708496.55849   1315128.49249  22971298.9684   22971306.0334
 96  2  6 16 41 29.9980000  0  5 22 29 25 14 15
  21293679.001     -596539.44049   -457805.64649  21293676.4084   21293683.3244
  21185285.226     -488053.12549   -374590.88249  21185283.9424   21185289.2534
  22218351.951     1534169.87349   1184203.81349  22218351.7694   22218356.8244
  19933751.813     -166162.69949   -127777.41649  19933751.8194   19933757.3444
  22993362.973     1824439.84349   1405473.87849  22993362.0434   22993369.3184
 96  2  6 16 41 59.9980000  0  5 22 29 25 14 15
  21286880.063     -632257.03449   -485637.52849  21286880.0264   21286886.0484
  21179240.572     -519810.52849   -399336.90949  21179240.7674   21179245.8154
  22236992.843     1632129.64349   1260536.07249  22236992.9204   22236998.1494
  19932197.415     -174331.87849   -134143.01349  19932197.3724   19932202.7624
  23015413.625     1940326.33649   1495774.98949  23015413.9834   23015420.8354
 96  2  6 16 42 29.9980000  0  6 22 29 25 18 14 15
  21280145.162     -667651.51249   -513217.63849  21280144.6274   21280150.6884
  21173188.106     -551603.98849   -424111.03049  21173190.5904   21173195.8564
  22255640.840     1730143.31649   1336910.35349  22255644.3964   22255648.9224
  23644013.554     -159681.51659   -109915.09959  23644016.9004   23644023.9774
  19930700.856     -182198.42849   -140272.80249  19930700.5054   19930705.9964
  23037456.664     2056157.85049   1586033.27549  23037456.6394   23037463.3554
 96  2  6 16 42 59.9980000  0  6 22 29 25 18 14 15
  21273476.488     -702699.30149   -540527.59149  21273475.2144   21273480.7704
  21167138.984     -583402.02749   -448888.71549  21167139.7534   21167145.0084
  22274305.315     1828212.58849   1413327.95649  22274306.1614   22274311.5244
  23631046.833     -227841.54659   -163026.76159  23631046.3174   23631053.2624
  19929262.890     -189751.16149   -146158.05249  19929263.2754   19929268.8314
  23059491.416     2171939.95949   1676253.06249  23059488.8374   23059495.8184
 96  2  6 16 43 29.9980000  0  6 22 29 25 18 14 15
  21266875.057     -737383.77449   -567554.43949  21266875.3214   21266880.8544
  21161092.856     -615176.12549   -473647.74949  21161093.2324   21161098.5054
  22292978.140     1926332.56649   1489785.06549  22292978.2174   22292983.1844
  23618052.238     -296110.08449   -216222.99749  23618055.4324   23618062.6084
  19927891.018     -196965.99249   -151779.99949  19927890.2584   19927895.5364
  23081514.932     2287681.25549   1766441.02849  23081513.9564   23081520.3894
 96  2  6 16 43 59.9980000  0  6 22 29 25 18 14 15
  21260341.314     -771723.31149   -594312.50649  21260340.2644   21260346.0154
  21155048.234     -646932.74449   -498393.15949  21155050.1564   21155055.5934
  22311656.244     2024472.02549   1566257.35449  22311653.2004   22311658.2474
  23605045.117     -364483.16349   -269500.67249  23605043.1774   23605051.9644
  19926578.355     -203860.03449   -157151.98849  19926578.5754   19926584.1984
  23103530.507     2403373.75449   1856590.98449  23103529.4794   23103536.3794
 96  2  6 16 44 29.9980000  0  6 22 29 25 18 14 15
  21253872.972     -805714.42749   -620799.07449  21253872.1214   21253878.5464
  21149011.030     -678666.38849   -523120.66049  21149011.3544   21149016.5994
  22330329.071     2122609.66649   1642728.22949  22330328.1594   22330333.1374
  23592011.622     -432936.05749   -322840.53549  23592017.1234   23592025.3774
  19925333.335     -210405.30749   -162252.20349  19925333.1084   19925338.5534
  23125536.720     2519022.78949   1946707.06349  23125537.1564   23125543.1414
 96  2  6 16 44 59.9980000  0  6 22 29 25 18 14 15
  21247476.640     -839322.24849   -646986.95949  21247476.6874   21247482.8274
  21142977.054     -710374.42449   -547828.21349  21142977.5544   21142982.8274
  22349001.105     2220737.69149   1719191.61249  22349001.7314   22349006.4184
  23578979.223     -501457.56449   -376233.86049  23578977.7294   23578985.6854
  19924161.002     -216565.53049   -167052.38649  19924160.5094   19924166.4164
  23147538.194     2634640.48049   2036798.71749  23147537.7834   23147544.8344
 96  2  6 16 45 29.9980000  0  6 22 29 25 18 14 15
  21241151.902     -872565.94949   -672891.13349  21241150.2754   21241157.4384
  21136944.100     -742087.17449   -572539.43449  21136942.9604   21136948.4754
  22367671.167     2318841.04549   1795635.76949  22367670.1934   22367675.0944
  23565917.344     -570077.22949   -429703.67049  23565920.5524   23565928.2504
  19923056.822     -222362.38149   -171569.41849  19923057.6894   19923063.4054
  23169530.464     2750207.50949   2126850.90449  23169529.4824   23169536.9104
 96  2  6 16 45 59.9980000  0  6 22 29 25 18 14 15
  21234898.572     -905421.49949   -698492.84349  21234898.2254   21234903.8974
  21130903.685     -773808.70449   -597257.50349  21130906.6264   21130911.8354
  22386338.902     2416941.19549   1872077.42549  22386338.0094   22386342.8894
  23552843.997     -638799.98849   -483253.80849  23552844.1954   23552850.4604
  19922023.566     -227790.18049   -175798.87549  19922024.4174   19922030.4314
  23191512.271     2865731.38149   2216869.44449  23191512.9144   23191519.8234
 96  2  6 16 46 29.9980000  0  6 22 29 25 18 14 15
  21228725.212     -937867.42249   -723775.36349  21228724.6684   21228730.7824
  21124866.899     -805539.25149   -621982.59549  21124868.4064   21124873.5244
  22405010.934     2515065.25749   1948537.71349  22405010.4644   22405015.0534
  23539746.760     -707626.27149   -536884.64649  23539746.0064   23539753.3984
  19921067.869     -232819.47149   -179717.81249  19921067.4564   19921073.3044
  23213489.974     2981217.21649   2306858.35149  23213489.4584   23213497.1494
 96  2  6 16 46 59.9980000  0  6 22 29 25 18 14 15
  21222629.343     -969891.65049   -748729.28249  21222630.3194   21222636.0254
  21118831.590     -837269.08249   -646707.12549  21118830.3224   21118835.6214
  22423691.585     2613241.74249   2025038.85849  22423692.8204   22423697.1444
  23526628.968     -776555.74349   -590595.87049  23526629.1734   23526637.3854
  19920187.721     -237440.32249   -183318.47149  19920188.3384   19920193.9814
  23235459.976     3096672.42249   2396823.39149  23235459.6684   23235467.0044
 96  2  6 16 47 29.9980000  0  6 22 29 25 18 14 15
  21216615.855    -1001505.96749   -773363.79749  21216614.1814   21216620.9414
  21112793.160     -868991.24849   -671425.69149  21112794.0524   21112798.7604
  22442388.633     2711491.35549   2101596.97449  22442389.1124   22442393.3564
  23513496.636     -845577.72649   -644379.17949  23513494.3194   23513502.0914
  19919384.211     -241668.06449   -186612.82349  19919383.9234   19919389.7574
  23257422.663     3212093.19849   2486761.61549  23257423.8544   23257430.8834
 96  2  6 16 47 59.9980000  0  6 22 29 25 18 14 15
  21210674.960    -1032718.98849   -797685.61049  21210674.6664   21210680.6014
  21106756.430     -900709.08049   -696140.88549  21106758.2734   21106763.5214
  22461092.849     2809791.64349   2178194.59349  22461095.4474   22461099.5684
  23500339.865     -914700.39449   -698240.94149  23500341.0444   23500348.4324
  19918654.325     -245505.16249   -189602.78049  19918653.9024   19918659.6194
  23279376.185     3327466.51249   2576662.84349  23279378.7824   23279384.9814
 96  2  6 16 48 29.9980000  0  6 22 29 25 18 14 15
  21204811.722    -1063528.45049   -821692.95749  21204812.0534   21204817.8204
  21100728.860     -932390.10949   -720827.39349  21100729.3654   21100734.8224
  22479812.202     2908149.19849   2254836.82349  22479811.8344   22479816.5854
  23487168.347     -983898.77949   -752161.72549  23487172.4334   23487179.5914
  19918000.291     -248935.95149   -192276.12649  19918000.8884   19918006.6704
  23301330.899     3442807.18749   2666538.65549  23301327.7894   23301334.2744
 96  2  6 16 48 59.9980000  0  6 22 29 25 18 14 15
  21199023.447    -1093945.58649   -845394.59849  21199023.5804   21199030.0084
  21094708.251     -964030.93249   -745482.56549  21094708.6024   21094713.7694
  22498537.066     3006551.45149   2331513.88249  22498537.9874   22498542.0334
  23473996.089    -1053165.43449   -806135.70649  23473991.6044   23473998.5384
  19917422.514     -251973.87749   -194643.35449  19917422.5714   19917428.6214
  23323268.467     3558104.82049   2756380.91949  23323268.8654   23323275.1574
 96  2  6 16 49 29.9980000  0  6 22 29 25 18 14 15
  21193308.679    -1123974.86549   -868794.02249  21193308.9194   21193315.0614
  21088694.685     -995632.71649   -770107.32149  21088694.9234   21088700.0194
  22517269.261     3104982.95149   2408213.72949  22517268.0254   22517273.2184
  23460796.566    -1122504.54249   -860166.13549  23460796.9694   23460803.8484
  19916917.895     -254629.05149   -196712.33149  19916917.2924   19916923.3944
  23345196.311     3673351.37049   2846183.37849  23345197.9684   23345206.9484
 96  2  6 16 49 59.9980000  0  6 22 29 25 18 14 15
  21187674.071    -1153591.19949   -891871.67049  21187672.9074   21187679.4444
  21082688.840    -1027191.78449   -794698.79249  21082689.5774   21082694.6334
  22536002.227     3203446.17649   2484938.30049  22536005.6304   22536009.5174
  23447591.609    -1191904.93449   -914244.34149  23447591.3764   23447596.5884
  19916488.097     -256883.72649   -198469.22849  19916488.3444   19916494.3094
  23367119.983     3788549.99449   2935948.47549  23367119.5574   23367128.3944
 96  2  6 16 50 29.9980000  0  6 22 29 25 18 14 15
  21182120.608    -1182773.38049   -914611.02049  21182120.8884   21182126.0144
  21076692.357    -1058705.91849   -819255.24949  21076692.5024   21076697.5554
  22554750.245     3301955.42349   2561698.73249  22554750.9594   22554755.7174
  23434371.808    -1261357.44549   -968363.15949  23434374.3534   23434381.4134
  19916135.263     -258738.44249   -199914.47149  19916135.4234   19916141.4914
  23389033.295     3903703.02149   3025678.04849  23389033.6164   23389040.9844
 96  2  6 16 50 59.9980000  0  6 22 29 25 18 14 15
  21176650.340    -1211514.01149   -937006.29249  21176651.2344   21176656.8384
  21070700.404    -1090196.65549   -843793.47849  21070699.9304   21070705.0324
  22573502.359     3400499.95549   2638486.65449  22573503.2944   22573508.5634
  23421145.079    -1330880.22949  -1022536.71549  23421144.5484   23421150.4054
  19915856.195     -260207.74249   -201059.38949  19915855.8404   19915861.6724
  23410930.409     4018796.68049   3115361.35249  23410934.1504   23410943.0324
 96  2  6 16 51 29.9980000  0  6 22 29 25 18 14 15
  21171272.401    -1239785.17449   -959035.75849  21171270.6474   21171277.5724
  21064711.961    -1121659.62049   -868310.07149  21064712.8844   21064717.7494
  22592260.980     3499081.91949   2715303.74849  22592262.6714   22592267.7264
  23407904.553    -1400472.01149  -1076764.03549  23407902.1964   23407908.1074
  19915649.650     -261284.47349   -201898.41649  19915650.8514   19915656.8174
  23432827.405     4133841.30549   3205006.46249  23432827.7104   23432834.1684
 96  2  6 16 51 59.9980000  0  6 22 29 25 18 14 15
  21165979.332    -1267577.39149   -980692.03249  21165982.0914   21165988.9284
  21058730.578    -1153094.13849   -892804.50049  21058731.0624   21058736.0824
  22611025.974     3597698.82549   2792148.06749  22611028.9224   22611033.6214
  23394649.774    -1470128.36149  -1131041.67849  23394645.0444   23394651.9974
  19915522.148     -261954.42249   -202420.46249  19915523.2864   19915529.4854
  23454711.867     4248836.78449   3294613.27349  23454710.0744   23454718.5284
 96  2  6 16 52 29.9990000  0  6 22 29 25 18 14 15
  21160783.024    -1294904.65349  -1001985.99249  21160782.4824   21160787.9504
  21052754.687    -1184501.21849   -917277.54349  21052754.2644   21052759.4844
  22629801.783     3696348.30449   2869017.76749  22629801.0814   22629805.9664
  23381374.313    -1539864.60449  -1185381.56949  23381376.1994   23381383.1644
  19915471.842     -262218.01049   -202625.87349  19915473.5584   19915479.3314
  23476585.746     4363786.01749   3384184.05049  23476585.6664   23476591.8764
 96  2  6 16 52 59.9990000  0  6 22 29 25 18 14 15
  21155668.770    -1321778.68549  -1022926.78749  21155668.5984   21155674.3584
  21046785.050    -1215870.88749   -941721.43449  21046784.8014   21046789.8514
  22648580.504     3795022.33449   2945906.59849  22648578.6984   22648583.2834
  23368090.784    -1609671.58849  -1239776.57149  23368092.0074   23368099.6604
  19915503.834     -262054.50249   -202498.47649  19915504.3634   19915510.1914
  23498446.207     4478683.02649   3473714.12949  23498447.8854   23498456.0544
 96  2  6 16 53 29.9990000  0  6 22 29 25 18 14 15
  21150639.873    -1348200.94749  -1043515.56249  21150640.4364   21150646.3414
  21040825.815    -1247183.46149   -966120.84849  21040826.3404   21040831.3964
  22667361.715     3893726.76649   3022819.12049  22667361.0234   22667366.0404
  23354795.270    -1679541.46849  -1294220.59249  23354796.3164   23354803.2804
  19915621.923     -261436.41849   -202016.87049  19915622.2154   19915628.0624
  23520304.059     4593534.05949   3563208.38349  23520304.8104   23520311.5714
 96  2  6 16 53 59.9990000  0  6 22 29 25 18 14 15
  21145695.875    -1374185.44149  -1063763.21549  21145695.3974   21145701.7534
  21034878.845    -1278431.59049   -990470.03849  21034880.1814   21034885.4384
  22686151.346     3992465.21149   3099758.14749  22686150.7154   22686155.7134
  23341490.050    -1749472.49249  -1348712.24749  23341489.8234   23341496.4074
  19915825.398     -260366.56049   -201183.22349  19915825.7304   19915831.6294
  23542149.021     4708332.80049   3652661.90449  23542149.3874   23542156.6554
 96  2  6 16 54 29.9990000  0  6 22 29 25 18 14 15
  21140834.735    -1399728.02549  -1083666.51949  21140835.3414   21140841.3154
  21028947.047    -1309602.42749  -1014759.00349  21028948.3914   21028953.6994
  22704946.217     4091247.50349   3176731.33349  22704947.7354   22704953.4784
  23328171.842    -1819459.22149  -1403247.32349  23328171.5634   23328177.9684
  19916114.901     -258850.42749   -200001.83549  19916114.3864   19916120.2614
  23563984.883     4823080.18949   3742075.39449  23563985.2374   23563992.9524
 96  2  6 16 54 59.9990000  0  6 22 29 25 18 14 15
  21136059.365    -1424834.78249  -1103230.21349  21136057.4584   21136063.1144
  21023031.136    -1340695.23549  -1038987.16149  21023031.5034   21023036.5294
  22723749.891     4190053.87549   3253723.28249  22723750.2614   22723755.3274
  23314846.956    -1889489.13749  -1457816.04849  23314844.3694   23314851.5244
  19916488.455     -256885.79249   -198470.96549  19916488.2124   19916493.9844
  23585808.546     4937762.47349   3831438.15449  23585808.7734   23585817.7234
 96  2  6 16 55 29.9990000  0  6 22 29 25 18 14 15
  21131368.106    -1449473.91449  -1122429.53249  21131368.8764   21131374.4494
  21017131.684    -1371701.00649  -1063147.49649  21017131.6854   21017136.5124
  22742558.995     4288903.27749   3330748.76349  22742560.4544   22742565.4124
  23301516.548    -1959542.27549  -1512402.87649  23301513.8614   23301520.4764
  19916948.289     -254466.76249   -196586.01849  19916948.5944   19916954.4344
  23607624.247     5052394.48449   3920761.73449  23607621.9934   23607629.6174
 96  2  6 16 55 59.9990000  0  6 22 29 25 18 14 15
  21126766.478    -1473660.81649  -1141276.45949  21126766.0194   21126771.9144
  21011243.430    -1402640.57449  -1087256.24249  21011243.8274   21011248.7664
  22761376.874     4387787.37949   3407801.28249  22761377.7224   22761383.3784
  23288174.903    -2029636.11849  -1567021.41049  23288175.4084   23288182.5974
  19917488.887     -251620.12049   -194367.86449  19917490.0814   19917495.8514
  23629423.370     5166960.11349   4010033.59049  23629423.1624   23629431.1414
 96  2  6 16 56 29.9990000  0  6 22 29 25 18 14 15
  21122248.883    -1497395.70449  -1159771.17049  21122249.7804   21122255.0894
  21005366.170    -1433526.21049  -1111322.96949  21005366.4334   21005371.5124
  22780195.457     4486690.64049   3484868.72849  22780198.2204   22780203.5554
  23274827.579    -2099777.94249  -1621677.34349  23274827.3504   23274835.2034
  19918115.151     -248335.78349   -191808.64849  19918115.1644   19918121.0364
  23651211.657     5281454.86349   4099250.20149  23651211.0484   23651218.4174
 96  2  6 16 56 59.9990000  0  7 22 29 25 18 14 15  4
  21117820.892    -1520668.15049  -1177905.53549  21117820.8414   21117826.8084
  20999499.850    -1464353.55349  -1135344.27349  20999500.3284   20999505.3634
  22799021.689     4585612.36449   3561950.55849  22799022.8274   22799028.3484
  23261477.507    -2169961.51549  -1676365.81549  23261472.9994   23261479.4234
  19918823.364     -244605.57349   -188902.00549  19918824.7004   19918831.0004
  23672986.313     5395885.44649   4188416.81749  23672986.1024   23672993.9604
  24521939.654    -1185195.84759   -918582.67159  24521941.0164   24521948.8584
 96  2  6 16 57 29.9990000  0  7 22 29 25 18 14 15  4
  21113483.059    -1543462.67049  -1195667.50149  21113483.3264   21113488.9854
  20993643.908    -1495125.91549  -1159322.73549  20993644.4924   20993649.7334
  22817850.143     4684563.65949   3639055.42549  22817852.1884   22817857.2644
  23248108.358    -2240208.35849  -1731103.59049  23248104.6904   23248111.1624
  19919614.737     -240445.92649   -185660.73249  19919616.4434   19919622.6454
  23694747.180     5510252.56149   4277533.98649  23694750.0534   23694756.6334
  24515546.646    -1218810.93549   -944776.23849  24515545.1334   24515552.1764
 96  2  6 16 57 59.9990000  0  7 22 29 25 18 14 15  4
  21109237.384    -1565774.77949  -1213053.55349  21109237.6414   21109242.7554
  20987802.980    -1525816.95149  -1183237.82249  20987804.2114   20987809.2044
  22836687.155     4783550.30849   3716187.84349  22836688.5374   22836694.4394
  23234721.980    -2310509.98849  -1785884.03649  23234726.7384   23234733.9304
  19920492.159     -235840.12349   -182071.79649  19920492.9844   19920499.0344
  23716503.049     5624563.14649   4366607.12149  23716502.7364   23716510.5054
  24509221.926    -1252044.40649   -970672.45649  24509220.1344   24509227.4984
 96  2  6 16 58 29.9990000  0  7 22 29 25 18 14 15  4
  21105087.959    -1587585.05149  -1230048.56349  21105087.1424   21105092.9384
  20981977.236    -1556428.21549  -1207090.74849  20981978.9734   20981984.2094
  22855530.509     4882567.31649   3793343.92749  22855531.2664   22855536.0604
  23221341.176    -2380851.16049  -1840695.31749  23221342.3344   23221347.7754
  19921452.708     -230784.92749   -178132.69449  19921455.0604   19921460.8434
  23738244.002     5738813.06649   4455632.97049  23738244.7254   23738250.9664
  24502961.277    -1284897.25749   -996272.08349  24502970.0144   24502976.5434
 96  2  6 16 58 59.9990000  0  7 22 29 25 18 14 15  4
  21101035.088    -1608877.77949  -1246640.29349  21101035.4334   21101041.7104
  20976173.652    -1586942.59349  -1230868.18149  20976172.3404   20976177.5874
  22874381.266     4981636.89249   3870540.96049  22874384.0824   22874388.7814
  23207952.780    -2451213.03249  -1895522.72349  23207952.0244   23207958.4254
  19922502.822     -225275.05449   -173839.29449  19922503.5714   19922509.4504
  23759978.005     5853005.66649   4544614.17349  23759975.1404   23759980.6764
  24496792.965    -1317363.90549  -1021570.80249  24496791.1544   24496796.9434
 96  2  6 16 59 29.9990000  0  7 22 29 25 18 14 15  4
  21097083.325    -1629648.80049  -1262825.51149  21097082.5054   21097088.9044
  20970381.166    -1617361.15649  -1254570.96149  20970383.7774   20970388.6634
  22893248.518     5080773.21649   3947790.01049  22893249.5214   22893253.7214
  23194560.532    -2521590.71149  -1950362.44149  23194559.4674   23194566.2294
  19923641.801     -219291.43549   -169176.74749  19923642.3764   19923648.0654
  23781687.689     5967140.34649   4633550.21949  23781692.6974   23781700.1234
  24490688.142    -1349427.66849  -1046555.54649  24490688.7214   24490695.9094
 96  2  6 16 59 59.9990000  0  7 22 29 25 18 14 15  4
  21093228.190    -1649903.93249  -1278608.73249  21093228.0934   21093234.0304
  20964609.123    -1647697.51249  -1278209.67349  20964611.0834   20964616.0734
  22912124.724     5179968.71149   4025085.15849  22912125.5254   22912129.9004
  23181168.073    -2591969.75449  -2005203.20349  23181167.3374   23181174.0634
  19924871.667     -212827.05349   -164139.56849  19924872.1124   19924878.3404
  23803401.361     6081206.17649   4722432.62649  23803399.6924   23803408.0684
  24484665.920    -1381077.77449  -1071217.98349  24484668.0814   24484673.3134
 96  2  6 17  0 29.9990000  0  7 22 29 25 18 14 15  4
  21089474.310    -1669634.72949  -1293983.37449  21089473.9324   21089478.4234
  20958851.102    -1677962.92049  -1301793.10349  20958851.7624   20958856.9644
  22931010.888     5279223.57449   4102426.58449  22931013.2624   22931017.3274
  23167773.339    -2662344.42149  -2060040.57649  23167775.6474   23167781.9534
  19926194.933     -205875.44449   -158722.73749  19926195.2124   19926200.9614
  23825093.140     6195207.73649   4811264.94549  23825093.7194   23825100.2954
  24478725.900    -1412300.36349  -1095547.28849  24478726.4514   24478732.1984
 96  2  6 17  0 59.9990000  0  7 22 29 25 18 14 15  4
  21085811.528    -1688877.81049  -1308977.97149  21085811.8404   21085817.4944
  20953100.269    -1708173.82149  -1325334.06249  20953102.8604   20953108.0154
  22949906.693     5378522.80049   4179802.56449  22949908.4754   22949913.7824
  23154374.395    -2732742.96549  -2114896.53849  23154378.7074   23154385.7074
  19927607.518     -198450.63149   -152937.17649  19927607.8124   19927614.0554
  23846771.594     6309129.53349   4900035.10549  23846771.6024   23846779.3554
  24472859.698    -1443113.14049  -1119557.27049  24472861.4914   24472868.2324
 96  2  6 17  1 29.9990000  0  7 22 29 25 18 14 15  4
  21082244.159    -1707629.19949  -1323589.43549  21082243.5064   21082249.2784
  20947362.747    -1738333.57649  -1348835.16149  20947363.6384   20947368.8644
  22968811.604     5477853.34049   4257202.95149  22968810.8154   22968815.5644
  23140975.435    -2803177.27349  -2169780.38549  23140975.7634   23140982.1934
  19929110.026     -190552.44049   -146782.74749  19929110.7434   19929116.6964
  23868432.073     6422972.09549   4988743.53049  23868435.0324   23868443.0144
  24467072.540    -1473513.01349  -1143245.47449  24467075.7994   24467082.8394
 96  2  6 17  1 59.9990000  0  7 22 29 25 18 14 15  4
  21078768.220    -1725886.52649  -1337815.93149  21078769.3434   21078775.6554
  20941636.367    -1768422.77049  -1372281.28349  20941638.0244   20941643.0924
  22987717.378     5577210.82549   4334624.33249  22987718.3244   22987723.7914
  23127560.318    -2873645.06449  -2224690.31649  23127566.4014   23127572.5804
  19930702.951     -182190.17749   -140266.69949  19930702.4034   19930708.2794
  23890081.176     6536738.21149   5077392.36349  23890083.3964   23890092.1974
  24461366.459    -1503495.74449  -1166608.63449  24461371.0654   24461377.2294
 96  2  6 17  2 29.9990000  0  7 22 29 25 18 14 15  4
  21075387.403    -1743658.35649  -1351664.10249  21075387.3124   21075393.5104
  20935927.248    -1798423.90449  -1395658.78249  20935928.9594   20935933.9514
  23006628.728     5676583.67849   4412057.67749  23006628.0854   23006633.2974
  23114147.175    -2944155.29449  -2279633.32549  23114148.6494   23114154.5344
  19932381.411     -173362.06349   -133387.65349  19932382.0984   19932388.1164
  23911721.746     6650425.35149   5165979.68149  23911719.0934   23911725.6184
  24455740.163    -1533070.64249  -1189654.04949  24455743.9984   24455750.2974
 96  2  6 17  2 59.9990000  0  7 22 29 25 18 14 15  4
  21072099.534    -1760940.31649  -1365130.56249  21072098.5494   21072104.5034
  20930236.211    -1828323.85849  -1418957.44049  20930239.0724   20930244.0954
  23025544.019     5775980.54049   4489509.75249  23025542.7604   23025548.5034
  23100722.819    -3014708.51949  -2334609.81549  23100722.5704   23100729.3564
  19934149.785     -164069.38549   -126146.61349  19934150.4964   19934156.6584
  23933332.616     6764026.73649   5254500.19049  23933336.1484   23933344.2524
  24450193.864    -1562237.29949  -1212381.34349  24450194.3924   24450199.2934
 96  2  6 17  3 29.9990000  0  7 22 29 25 18 14 15  4
  21068905.422    -1777719.01649  -1378204.87049  21068905.8884   21068911.5174
  20924568.304    -1858120.63949  -1442175.70449  20924569.0584   20924573.7244
  23044459.897     5875392.41149   4566973.52049  23044460.6384   23044465.5314
  23087287.369    -3085298.16749  -2389614.70849  23087289.1894   23087296.5704
  19936006.571     -154311.97349   -118543.44349  19936007.5184   19936013.6284
  23954932.182     6877535.14749   5342948.21749  23954936.0174   23954943.5314
  24444716.048    -1590994.78549  -1234789.79049  24444721.9754   24444727.1824
 96  2  6 17  3 59.9990000  0  7 22 29 25 18 14 15  4
  21065810.923    -1793976.92349  -1390873.37049  21065812.1574   21065818.3414
  20918921.541    -1887792.75549  -1465296.82849  20918922.4254   20918927.5514
  23063386.436     5974853.12449   4644475.33249  23063387.6954   23063392.9824
  23073855.523    -3155880.20049  -2444613.64749  23073858.1674   23073864.5894
  19937958.300     -144059.04949   -110554.15949  19937958.5374   19937964.6164
  23976525.384     6990969.59449   5431338.61549  23976521.6504   23976530.6034
  24439329.966    -1619331.05349  -1256870.00049  24439328.0594   24439336.4884
 96  2  6 17  4 29.9990000  0  7 22 29 25 18 14 15  4
  21062819.453    -1809697.25649  -1403122.99149  21062820.7424   21062827.1134
  20913297.936    -1917349.85149  -1488328.32949  20913298.0304   20913303.0404
  23082320.091     6074369.88749   4722020.82449  23082324.3114   23082329.9104
  23060433.552    -3226440.97149  -2499596.03649  23060431.1154   23060437.2554
  19940006.290     -133292.41349   -102164.58249  19940007.2614   19940013.4954
  23998092.059     7104330.95749   5519672.06249  23998092.2474   23998103.1644
  24434011.725    -1647247.06849  -1278622.74249  24434015.5334   24434023.6164
 96  2  6 17  4 59.9990000  0  7 22 29 25 18 14 15  4
  21059929.023    -1824891.77149  -1414962.88349  21059929.4124   21059935.3284
  20907686.009    -1946829.47649  -1511299.45849  20907688.1114   20907693.2284
  23101271.389     6173925.98849   4799596.98049  23101269.6264   23101274.4774
  23047004.947    -3296997.46649  -2554575.09549  23047004.7634   23047010.6504
  19942146.693     -122044.64049    -93400.09349  19942147.5544   19942153.6614
  24019647.444     7217591.17949   5607926.71449  24019646.9894   24019654.2424
  24428788.183    -1674755.36949  -1300057.80849  24428783.1344   24428788.2374
 96  2  6 17  5 29.9990000  0  7 22 29 25 18 14 15  4
  21057141.709    -1839536.31449  -1426374.21249  21057142.5884   21057148.1714
  20902094.766    -1976220.92249  -1534201.86649  20902095.2024   20902100.2284
  23120219.479     6273520.03549   4877202.69249  23120221.0704   23120226.6094
  23033583.310    -3367524.70949  -2609531.34649  23033583.9494   23033590.6774
  19944380.543     -110309.44449    -84255.79149  19944380.8564   19944386.6994
  24041182.686     7330765.06749   5696114.07649  24041183.0564   24041191.1174
  24423621.019    -1701835.87549  -1321159.50749  24423628.9984   24423635.3824
 96  2  6 17  5 59.9990000  0  7 22 29 25 18 14 15  4
  21054461.056    -1853632.42449  -1437358.19849  21054459.9324   21054465.9894
  20896518.299    -2005522.61549  -1557034.34949  20896519.3014   20896524.2044
  23139180.997     6373148.51249   4954835.22949  23139179.9924   23139185.3434
  23020166.448    -3438024.22449  -2664465.99949  23020167.8194   23020175.1454
  19946703.760      -98103.25049    -74744.47749  19946703.3704   19946709.5794
  24062698.803     7443844.09249   5784227.52649  24062700.0664   24062709.3284
  24418553.826    -1728491.73649  -1341930.32049  24418556.3804   24418562.8174
 96  2  6 17  6 29.9990000  0  7 22 29 25 18 14 15  4
  21051882.502    -1867171.72349  -1447908.31349  21051883.6784   21051889.8594
  20890961.848    -2034720.30049  -1579785.79149  20890963.1114   20890968.1884
  23158142.353     6472798.73549   5032484.72849  23158142.9394   23158148.3694
  23006753.110    -3508506.44549  -2719387.18049  23006755.2484   23006762.2144
  19949112.955      -85433.47649    -64871.93449  19949114.4524   19949120.6464
  24084206.391     7556830.20249   5872268.56749  24084202.4894   24084210.1494
  24413566.518    -1754709.38049  -1362359.66149  24413567.0224   24413573.9504
 96  2  6 17  6 59.9990000  0  7 22 29 25 18 14 15  4
  21049410.070    -1880170.93349  -1458037.58249  21049410.2454   21049416.1854
  20885427.030    -2063810.16549  -1602453.21849  20885427.4534   20885432.7024
  23177105.959     6572456.71149   5110140.26149  23177106.6954   23177111.9984
  22993343.436    -3578985.53849  -2774305.93049  22993344.3854   22993350.3694
  19951610.299      -72311.34549    -54646.90749  19951611.5924   19951617.4914
  24105682.798     7669718.87849   5960233.69649  24105684.2494   24105691.5724
  24408661.296    -1780492.94449  -1382450.77449  24408661.4844   24408667.9944
 96  2  6 17  7 29.9990000  0  7 22 29 25 18 14 15  4
  21047035.418    -1892652.31949  -1467763.34849  21047034.6664   21047040.8874
  20879913.244    -2092787.29949  -1625032.80549  20879913.5874   20879918.4314
  23196067.638     6672117.51349   5187797.99749  23196072.4774   23196077.0374
  22979926.657    -3649483.73149  -2829239.56149  22979928.0944   22979934.4674
  19954195.809      -58725.17349    -44060.29049  19954196.8994   19954203.0754
  24127145.232     7782506.76249   6048120.26549  24127147.2554   24127154.7134
  24403836.201    -1805850.04649  -1402209.57949  24403836.3314   24403841.7554
 96  2  6 17  7 59.9990000  0  7 22 29 25 18 14 15  4
  21044758.491    -1904612.73849  -1477083.16949  21044759.4334   21044764.6714
  20874423.192    -2121629.38549  -1647507.15049  20874424.9754   20874430.0024
  23215044.251     6771817.87849   5265486.54049  23215044.1454   23215050.3894
  22966512.117    -3720006.24549  -2884192.14549  22966509.0234   22966515.0634
  19956877.896      -44633.35849    -33079.66449  19956878.6594   19956884.7964
  24148594.680     7895213.97949   6135943.97749  24148594.5764   24148603.2194
  24399093.997    -1830763.55949  -1421622.71849  24399094.6714   24399101.0754
 96  2  6 17  8 29.9990000  0  7 22 29 25 18 14 15  4
  21042577.244    -1916078.86349  -1486017.81649  21042577.1214   21042582.4174
  20868956.719    -2150352.89749  -1669889.10349  20868959.0894   20868964.0684
  23234017.617     6871533.07149   5343186.67149  23234020.1804   23234025.1284
  22953074.900    -3790586.27749  -2939189.53749  22953077.3724   22953083.1814
  19959656.810      -30027.17449    -21698.23249  19959658.0424   19959664.0014
  24170020.327     8007824.37949   6223692.28549  24170023.6424   24170031.5224
  24394442.763    -1855231.63349  -1440688.76449  24394438.6524   24394444.0554
 96  2  6 17  8 59.9990000  0  7 22 29 25 18 14 15  4
  21040487.035    -1927058.70249  -1494573.53149  21040487.5324   21040493.4414
  20863510.628    -2178975.42249  -1692192.35949  20863512.4974   20863517.3904
  23252993.523     6971249.47249   5420887.72149  23252995.0824   23253000.1384
  22939628.611    -3861239.22349  -2994243.77149  22939632.1684   22939639.2194
  19962535.517      -14904.18549     -9914.09549  19962536.1104   19962541.9124
  24191429.800     8120320.72449   6311351.67949  24191430.9384   24191439.8404
  24389867.211    -1879249.56049  -1459404.05949  24389868.6274   24389874.3584
 96  2  6 17  9 29.9990000  0  7 22 29 25 18 14 15  4
  21038496.100    -1937516.75849  -1502722.67049  21038497.1864   21038503.2914
  20858086.763    -2207472.62149  -1714397.96449  20858089.4264   20858094.5204
  23271974.725     7070991.26649   5498608.54349  23271976.1494   23271980.5794
  22926183.352    -3931926.28649  -3049324.56749  22926181.3514   22926187.5404
  19965516.232         760.12749      2291.84949  19965516.9344   19965522.8944
  24212815.287     8232714.50249   6398931.16749  24212818.8104   24212827.3864
  24385391.201    -1902790.02449  -1477747.30049  24385389.1504   24385395.1504
 96  2  6 17  9 59.9990000  0  7 22 29 25 18 14 15  4
  21036609.238    -1947440.19849  -1510455.22749  21036609.3934   21036614.9284
  20852687.495    -2235849.34549  -1736509.69249  20852689.5264   20852694.2814
  23290958.113     7170738.02249   5576333.24249  23290956.8454   23290961.8964
  22912725.386    -4002624.82949  -3104414.31649  22912727.6784   22912733.4394
  19968597.951       16956.30349     14912.23749  19968598.7124   19968604.8764
  24234181.917     8344992.20949   6486420.19649  24234183.7974   24234193.6764
  24380997.170    -1925861.57449  -1495725.15349  24380998.4424   24381005.4944
 96  2  6 17 10 29.9990000  0  7 22 29 25 18 14 15  4
  21034827.967    -1956802.00949  -1517750.14149  21034827.1394   21034833.5074
  20847311.709    -2264101.57849  -1758524.42049  20847313.3114   20847318.3724
  23309935.730     7270491.26249   5654062.98349  23309939.1194   23309943.9934
  22899282.527    -4073287.73149  -3159476.28049  22899281.3074   22899287.4644
  19971780.578       33680.19549     27943.82649  19971781.1754   19971787.2284
  24255528.520     8457157.99649   6573822.02449  24255529.0994   24255538.0264
  24376697.558    -1948453.97049  -1513329.63849  24376698.4974   24376705.9664
 96  2  6 17 10 59.9990000  0  7 22 29 25 18 14 15  4
  21033158.336    -1965571.79949  -1524583.73149  21033158.2854   21033164.2004
  20841959.283    -2292227.12549  -1780440.43149  20841961.1194   20841966.1284
  23328929.396     7370283.04849   5731822.76449  23328929.4514   23328933.6204
  22885845.798    -4143870.17949  -3214475.55749  22885848.9134   22885855.9894
  19975064.066       50938.31749     41391.70249  19975065.2624   19975071.2754
  24276852.099     8569226.61449   6661148.12949  24276855.4054   24276864.3374
  24372489.030    -1970577.85349  -1530569.04649  24372488.7594   24372495.0304
 96  2  6 17 11 29.9990000  0  7 22 29 25 18 14 15  4
  21031599.789    -1973758.66549  -1530963.09449  21031601.0454   21031606.7444
  20836628.753    -2320243.33349  -1802271.24749  20836629.9394   20836634.9834
  23347924.830     7470112.82649   5809612.15449  23347925.5044   23347930.8224
  22872438.592    -4214373.40649  -3269413.10749  22872433.7284   22872440.2594
  19978447.052       68715.52249     55244.05949  19978448.2624   19978454.2934
  24298162.649     8681186.64249   6748389.62249  24298161.0904   24298169.4004
  24368350.904    -1992269.03849  -1547471.28149  24368362.6444   24368369.1924
 96  2  6 17 11 59.9990000  0  7 22 29 25 18 14 15  4
  21030154.107    -1981354.82349  -1536882.17749  21030155.6424   21030161.3674
  20831316.312    -2348156.60149  -1824021.84549  20831318.2734   20831323.2384
  23366928.487     7569990.37349   5887438.77149  23366932.6324   23366937.2194
  22859030.198    -4284807.03949  -3324296.42149  22859030.3484   22859036.2604
  19981927.790       87009.72349     69499.26949  19981929.3774   19981935.6224
  24319445.284     8793041.88649   6835549.48249  24319445.0334   24319454.6514
  24364310.708    -2013527.86949  -1564036.62049  24364317.2304   24364323.6124
 96  2  6 17 12 29.9990000  0  7 22 29 25 18 14 15  4
  21028820.596    -1988365.36949  -1542344.93249  21028821.2934   21028827.7424
  20826023.225    -2375974.79649  -1845698.35949  20826024.4474   20826029.6034
  23385948.845     7669921.36849   5965307.02349  23385948.8364   23385953.1434
  22845632.656    -4355200.30649  -3379148.29449  22845634.7884   22845641.7494
  19985506.562      105810.36449     84149.10549  19985507.1624   19985513.3604
  24340709.250     8904785.97049   6922622.71749  24340710.3384   24340719.0504
  24360344.590    -2034360.21449  -1580269.64749  24360352.0424   24360358.3974
 96  2  6 17 12 59.9990000  0  7 22 29 25 18 14 15  4
  21027591.787    -1994821.21649  -1547375.46149  21027593.5814   21027599.4674
  20820746.233    -2403701.74849  -1867303.77349  20820748.3414   20820753.2804
  23404967.088     7769876.96749   6043194.44649  23404969.3004   23404974.7654
  22832237.323    -4425607.33849  -3434010.88249  22832236.6624   22832243.0884
  19989177.731      125103.81149     99182.95049  19989178.6164   19989185.0964
  24361949.837     9016400.29849   7009594.83149  24361949.3314   24361958.2874
  24356463.640    -2054788.34649  -1596187.67349  24356462.7604   24356471.6504
 96  2  6 17 13 29.9990000  0  7 22 29 25 18 14 15  4
  21026471.905    -2000722.79249  -1551974.08949  21026470.4494   21026475.8024
  20815493.400    -2431313.06149  -1888819.08349  20815494.1984   20815498.8964
  23423992.522     7869856.34149   6121100.40149  23423995.3294   23424000.9144
  22818828.584    -4496047.23649  -3488899.09349  22818832.5424   22818839.2684
  19992940.754      144877.33149    114590.86849  19992941.1194   19992947.2514
  24383166.444     9127884.06649   7096465.23549  24383165.1894   24383173.0994
  24352656.772    -2074788.83649  -1611772.47549  24352658.3054   24352664.6064
 96  2  6 17 13 59.9990000  0  7 22 29 25 18 14 15  4
  21025451.072    -2006074.05149  -1556143.88749  21025451.6864   21025457.3484
  20810263.057    -2458789.30049  -1910229.14149  20810265.4924   20810270.4864
  23443025.525     7969857.13449   6199023.05149  23443024.5194   23443030.2864
  22805421.310    -4566509.47649  -3543804.70449  22805423.6414   22805430.5234
  19996792.589      165119.65049    130364.09149  19996793.3524   19996799.5884
  24404350.167     9239239.39849   7183235.53149  24404355.7104   24404362.9944
  24348941.196    -2094341.98149  -1627008.73049  24348936.8494   24348943.1154
 96  2  6 17 14 29.9990000  0  7 22 29 25 18 14 15  4
  21024534.563    -2010889.11049  -1559895.88349  21024535.9024   21024541.1744
  20805062.314    -2486123.29649  -1931528.36049  20805064.0014   20805068.9674
  23462054.849     8069865.63049   6276951.71149  23462056.0654   23462060.0304
  22792015.081    -4636988.11549  -3598723.09249  22792012.1854   22792018.8984
  20000735.363      185838.30649    146508.48649  20000735.9114   20000741.9734
  24425524.463     9350469.19749   7269908.02749  24425521.4344   24425528.9334
  24345306.781    -2113435.25949  -1641886.64459  24345304.6684   24345309.7214
 96  2  6 17 14 59.9990000  0  7 22 29 25 18 14 15  4
  21023723.539    -2015165.12049  -1563227.84049  21023721.2054   21023727.4754
  20799891.874    -2513302.31649  -1952706.81649  20799892.1664   20799897.1574
  23481082.915     8169879.95749   6354884.93449  23481088.3834   23481092.4234
  22778598.082    -4707460.54849  -3653636.65549  22778601.7344   22778608.8804
  20004768.669      207034.09649    163024.66949  20004769.5284   20004775.8514
  24446664.489     9461573.27349   7356482.54949  24446664.0704   24446671.5764
  24341762.656    -2132051.67449  -1656392.97249  24341762.9854   24341769.4634
 96  2  6 17 15 29.9990000  0  7 22 29 25 18 14 15  4
  21023013.557    -2018888.99549  -1566129.55249  21023013.4194   21023018.7004
  20794747.141    -2540332.73249  -1973769.47249  20794748.3644   20794753.3974
  23500126.295     8269909.10849   6432829.69349  23500122.8634   23500127.6974
  22765198.080    -4777898.81749  -3708523.59549  22765197.6644   22765204.4524
  20008892.198      228707.50849    179913.03049  20008893.5404   20008899.9214
  24467784.086     9572546.79149   7442955.34449  24467781.9834   24467789.3514
  24338312.616    -2150179.14949  -1670518.28849  24338312.5684   24338320.0654
 96  2  6 17 15 59.9990000  0  7 22 29 25 18 14 15  4
  21022405.445    -2022082.32649  -1568617.87049  21022405.3554   21022411.5714
  20789626.058    -2567240.12149  -1994736.27149  20789627.8944   20789633.0714
  23519153.310     8369921.26249   6510761.21349  23519154.4634   23519159.8974
  22751800.545    -4848316.08749  -3763394.16649  22751797.8994   22751804.5874
  20013109.009      250866.58049    197179.82649  20013110.5124   20013116.8204
  24488871.811     9683368.30849   7529309.70449  24488869.1584   24488877.3874
  24334958.762    -2167838.04349  -1684278.51849  24334951.4454   24334959.2244
 96  2  6 17 16 29.9990000  0  6 22 29 25 18 14  4
  21021903.251    -2024718.16749  -1570671.77149  21021903.0874   21021910.3564
  20784532.460    -2594011.84149  -2015597.35349  20784533.2034   20784538.4704
  23538185.164     8469939.05849   6588697.11049  23538186.7684   23538192.6184
  22738397.238    -4918707.72949  -3818244.77649  22738402.7964   22738408.9894
  20017425.381      273547.74349    214853.44649  20017426.4414   20017432.5254
  24331686.436    -2185011.83849  -1697660.71149  24331683.7694   24331690.3044
 96  2  6 17 16 59.9990000  0  6 22 29 25 18 14  4
  21021511.048    -2026771.70049  -1572271.93449  21021512.6904   21021519.2684
  20779465.995    -2620639.77749  -2036346.39149  20779466.0384   20779471.3264
  23557221.689     8569974.80649   6666646.99749  23557222.8834   23557228.3984
  22725015.423    -4989072.28549  -3873074.27149  22725012.2264   22725019.2564
  20021841.573      296750.26549    232933.32149  20021841.9584   20021847.9774
  24328508.706    -2201707.35449  -1710670.22649  24328507.4724   24328512.8044
 96  2  6 17 17 29.9990000  0  6 22 29 25 18 14  4
  21021227.098    -2028274.58049  -1573443.01849  21021226.8734   21021232.2144
  20774417.585    -2647161.89949  -2057012.98249  20774419.2264   20774423.9454
  23576253.957     8669996.47149   6744585.92949  23576256.5974   23576262.1624
  22711622.238    -5059444.75049  -3927909.92149  22711621.5154   22711627.6884
  20026351.502      320455.01149    251404.54149  20026352.8374   20026358.6964
  24325416.259    -2217962.80249  -1723336.83649  24325412.8724   24325420.3744
 96  2  6 17 17 59.9990000  0  6 22 29 25 18 14  4
  21021048.716    -2029204.45249  -1574167.60049  21021050.0914   21021055.4314
  20769397.384    -2673548.11849  -2077573.66849  20769398.1054   20769402.9894
  23595291.243     8770020.74549   6822526.88049  23595290.0054   23595296.3734
  22698226.302    -5129808.95449  -3982739.14149  22698231.8144   22698237.7714
  20030963.192      344691.12049    270289.80749  20030964.6914   20030970.8154
  24322406.884    -2233755.26549  -1735642.66149  24322407.5394   24322415.2594
 96  2  6 17 18 29.9990000  0  6 22 29 25 18 14  4
  21020985.703    -2029542.53749  -1574431.04249  21020985.4404   21020991.8164
  20764403.263    -2699789.81549  -2098021.74149  20764404.2544   20764409.2924
  23614328.157     8870061.46449   6900480.66249  23614328.4394   23614332.9404
  22684851.007    -5200136.96849  -4037540.16649  22684847.9564   22684854.7074
  20035677.686      369463.92949    289593.27949  20035678.9164   20035684.9544
  24319492.545    -2249084.01249  -1747587.16749  24319491.3244   24319498.0384
 96  2  6 17 18 59.9990000  0  6 22 29 25 18 14  4
  21021030.187    -2029302.01549  -1574243.63449  21021031.2864   21021037.5994
  20759432.348    -2725907.42549  -2118373.12049  20759434.6344   20759439.4524
  23633365.032     8970102.91949   6978434.99449  23633365.0134   23633370.5444
  22671469.850    -5270427.23449  -4092311.77549  22671472.4134   22671478.5504
  20040495.128      394774.61449    309315.88049  20040495.3974   20040501.5504
  24316656.879    -2263961.53249  -1759180.07149  24316661.3654   24316667.6654
 96  2  6 17 19 29.9990000  0  6 22 29 25 18 14  4
  21021181.865    -2028510.01949  -1573626.49649  21021181.9634   21021188.0054
  20754483.394    -2751915.26949  -2138638.97449  20754485.2394   20754490.3664
  23652398.702     9070131.61549   7056379.38949  23652399.0934   23652405.3024
  22658101.258    -5340683.16649  -4147056.63149  22658103.8994   22658110.1414
  20045412.860      420619.27149    329454.56849  20045413.7394   20045419.6094
  24313905.300    -2278391.41849  -1770424.11949  24313914.3034   24313920.6504
 96  2  6 17 19 59.9990000  0  6 22 29 25 18 14  4
  21021442.148    -2027142.25049  -1572560.71349  21021442.4714   21021448.0374
  20749561.709    -2777785.62749  -2158797.68949  20749562.3964   20749567.2794
  23671433.997     9170169.67249   7134331.07049  23671436.4834   23671441.1544
  22644742.805    -5410881.19849  -4201756.37049  22644745.7184   22644751.1574
  20050434.021      447013.94049    350021.82849  20050436.3754   20050442.3754
  24311249.036    -2292354.58149  -1781304.53949  24311257.1944   24311263.5254
 96  2  6 17 20 29.9990000  0  6 22 29 25 18 14  4
  21021808.956    -2025213.95149  -1571058.14749  21021809.5684   21021815.1344
  20744660.939    -2803535.58749  -2178862.59049  20744662.0044   20744667.2544
  23690470.847     9270207.51549   7212282.59449  23690473.0524   23690478.2664
  22631394.881    -5481041.13849  -4256426.42949  22631394.6754   22631400.2364
  20055559.951      473938.55649    371002.03749  20055559.7074   20055565.8394
  24308682.950    -2305875.25849  -1791840.16949  24308684.7394   24308691.0004
 96  2  6 17 20 59.9990000  0  7 22 19 29 25 18 14  4
  21022282.512    -2022721.23149  -1569115.76949  21022283.5354   21022290.0384
  24432212.583    -1997954.34659  -1523802.22059  24432211.5054   24432218.7184
  20739787.690    -2829143.55849  -2198816.85649  20739789.2264   20739794.3354
  23709510.026     9370250.11149   7290237.83349  23709511.0194   23709515.8534
  22618048.790    -5551170.66749  -4311072.79749  22618049.0474   22618055.0924
  20060781.056      501384.10749    392388.16149  20060782.7764   20060788.5624
  24306197.568    -2318932.54349  -1802014.70049  24306200.6244   24306206.4804
 96  2  6 17 21 29.9990000  0  7 22 19 29 25 18 14  4
  21022863.532    -2019672.65249  -1566740.26149  21022863.9464   21022870.1844
  24415959.417    -2083326.62449  -1590326.04949  24415965.3364   24415972.6844
  20734943.353    -2854595.19749  -2218649.29949  20734946.0804   20734950.9744
  23728547.495     9470274.56449   7368178.91949  23728545.0574   23728550.6004
  22604708.576    -5621275.80949  -4365700.16249  22604707.9944   22604714.2084
  20066098.491      529323.26849    414158.92549  20066099.4664   20066105.5554
  24303803.705    -2331527.09249  -1811828.66849  24303803.7524   24303811.1564
 96  2  6 17 21 59.9990000  0  7 22 19 29 25 18 14  4
  21023552.207    -2016056.66749  -1563922.61449  21023551.9464   21023558.0004
  24399739.797    -2168595.30649  -1656769.17549  24399739.5074   24399746.9164
  20730131.577    -2879886.27149  -2238356.62249  20730132.9784   20730138.2174
  23747570.008     9570283.53849   7446107.93149  23747575.5014   23747581.7564
  22591371.327    -5691355.62549  -4420307.78249  22591372.2554   22591378.2914
  20071509.541      557759.13649    436316.73349  20071510.5784   20071516.6284
  24301500.300    -2343657.79349  -1821281.18849  24301494.5454   24301500.9114
 96  2  6 17 22 29.9990000  0  7 22 19 29 25 18 14  4
  21024349.015    -2011857.90149  -1560650.85149  21024350.7914   21024357.0534
  24383528.974    -2253758.43449  -1723130.01749  24383533.0024   24383541.9224
  20725352.344    -2905008.47349  -2257932.36049  20725352.6684   20725357.7584
  23766601.885     9670285.06149   7524031.13949  23766605.6954   23766610.7784
  22578042.900    -5761394.81149  -4474883.75449  22578044.5434   22578050.5794
  20077016.949      586703.61849    458870.86349  20077018.4334   20077024.8084
  24299274.091    -2355303.80249  -1830356.03549  24299279.5224   24299284.5284
 96  2  6 17 22 59.9990000  0  7 22 19 29 25 18 14  4
  21025259.245    -2007084.10249  -1556931.01249  21025259.6284   21025265.2224
  24367335.399    -2338837.78059  -1789425.59349  24367343.5334   24367351.4014
  20720601.847    -2929970.75449  -2277383.48249  20720602.2744   20720607.4784
  23785632.642     9770272.32449   7601943.25349  23785631.9924   23785637.0984
  22564726.601    -5831385.74149  -4529422.12449  22564725.8234   22564732.3714
  20082622.272      616159.01749    481823.11049  20082623.5564   20082629.8514
  24297154.833    -2366457.12149  -1839046.94849  24297156.3774   24297162.3154
 96  2  6 17 23 29.9990000  0  7 22 19 29 25 18 14  4
  21026277.561    -2001735.02649  -1552762.89849  21026277.2304   21026283.4104
  24351170.302    -2423833.51049  -1855656.00549  24351168.3114   24351178.6334
  20715878.273    -2954785.68549  -2296719.79449  20715880.1334   20715885.3714
  23804659.381     9870260.04349   7679855.71349  23804659.8214   23804664.5134
  22551421.806    -5901308.70049  -4583907.53249  22551419.4774   22551425.7854
  20088328.626      646151.09349    505193.54949  20088330.8834   20088337.0914
  24295121.014    -2377129.87349  -1847363.38349  24295126.5054   24295132.1504
 96  2  6 17 23 59.9990000  0  7 22 19 29 25 18 14  4
  21027404.517    -1995808.86749  -1548145.12049  21027405.1054   21027411.1754
  24335010.066    -2508745.33649  -1921821.04249  24335011.5094   24335018.8664
  20711184.941    -2979457.71449  -2315944.74649  20711185.6974   20711190.7564
  23823690.829     9970268.94149   7757784.68349  23823690.3274   23823695.0324
  22538124.615    -5971173.86649  -4638347.91049  22538124.7694   22538131.0984
  20094139.835      676686.05449    528987.00849  20094141.4344   20094147.7324
  24293174.328    -2387332.31249  -1855313.37749  24293184.8224   24293191.1724
 96  2  6 17 24 29.9990000  0  7 22 19 29 25 18 14  4
  21028636.969    -1989327.12049  -1543094.41149  21028638.4514   21028644.3854
  24318866.406    -2593583.35149  -1987928.54249  24318866.8254   24318875.4894
  20706515.205    -3003994.68049  -2335064.45649  20706516.5984   20706521.4264
  23842718.975    10070285.95249   7835719.97349  23842723.2194   23842727.8534
  22524837.385    -6040998.90049  -4692757.00749  22524837.6064   22524844.0204
  20100051.548      707752.56349    553194.66549  20100053.2004   20100059.4814
  24291327.697    -2397070.79449  -1862901.83749  24291331.0694   24291337.6344
 96  2  6 17 24 59.9990000  0  7 22 19 29 25 18 14  4
  21029976.919    -1982295.67749  -1537615.36049  21029976.3314   21029982.0244
  24302739.173    -2678338.03949  -2053971.11049  24302738.6274   24302747.3004
  20701872.208    -3028388.20849  -2354072.39949  20701874.1934   20701879.2534
  23861757.013    10170316.16549   7913665.54849  23861759.1234   23861764.2194
  22511553.683    -6110789.75549  -4747139.47849  22511556.9874   22511563.2054
  20106066.130      739355.49349    577820.31449  20106066.9434   20106072.9774
  24289559.169    -2406344.76849  -1870128.32349  24289566.2114   24289573.4014
 96  2  6 17 25 29.9990000  0  7 22 19 29 25 18 14  4
  21031420.603    -1974699.17449  -1531695.99549  21031422.0794   21031427.6584
  24286631.350    -2762985.14449  -2119929.84649  24286630.8494   24286638.7944
  20697261.374    -3052619.92849  -2372954.25849  20697263.0714   20697268.1484
  23880793.943    10270354.37849   7991617.34149  23880794.8914   23880800.6364
  22498279.138    -6180549.84249  -4801497.96349  22498281.7924   22498287.6704
  20112182.759      771492.82149    602862.37749  20112182.6454   20112188.8834
  24287895.401    -2415145.84449  -1876986.32949  24287891.2184   24287897.6804
 96  2  6 17 25 59.9990000  0  7 22 19 29 25 18 14  4
  21032975.493    -1966527.37149  -1525328.35149  21032976.9354   21032982.7834
  24270532.829    -2847514.11349  -2185796.51649  24270544.8954   24270552.1834
  20692681.359    -3076689.73449  -2391709.95049  20692682.9564   20692688.0084
  23899828.355    10370391.75849   8069568.50849  23899831.0714   23899837.0354
  22485004.107    -6250300.64849  -4855849.21549  22485008.0614   22485015.0224
  20118392.648      804134.94249    628297.77949  20118394.3014   20118400.3604
  24286303.985    -2423459.56749  -1883464.58649  24286309.9494   24286315.4954
 96  2  6 17 26 29.9990000  0  7 22 19 29 25 18 14  4
  21034640.631    -1957783.97749  -1518515.32349  21034641.2254   21034646.6994
  24254478.037    -2931939.39449  -2251582.39749  24254479.9184   24254486.5984
  20688126.276    -3100622.23649  -2410358.64849  20688128.6984   20688133.5304
  23918863.129    10470394.47149   8147492.66649  23918861.6904   23918867.6784
  22471731.274    -6320058.89449  -4910206.27149  22471733.9544   22471740.5664
  20124695.319      837253.34349    654104.32149  20124696.4254   20124702.5424
  24284815.918    -2431298.00749  -1889572.46949  24284817.0244   24284824.6974
 96  2  6 17 26 59.9990000  0  7 22 19 29 25 18 14  4
  21036423.997    -1948414.10349  -1511214.10149  21036423.7824   21036429.7034
  24238438.787    -3016231.80549  -2317264.75249  24238438.8954   24238445.9234
  20683606.914    -3124373.13049  -2428865.83849  20683608.8914   20683614.0134
  23937892.329    10570402.77449   8225421.14549  23937892.6374   23937897.8834
  22458466.586    -6389774.23549  -4964529.89449  22458467.4654   22458474.2274
  20131092.978      870876.20649    680303.93849  20131094.8254   20131100.8184
  24283419.295    -2438635.64049  -1895290.13449  24283421.2224   24283427.5924
 96  2  6 17 27 29.9990000  0  7 22 19 29 25 18 14  4
  21038325.899    -1938411.74149  -1503420.03149  21038327.1674   21038332.9164
  24222419.324    -3100409.62649  -2382857.80549  24222420.4524   24222427.5844
  20679120.290    -3147952.12749  -2447239.07949  20679121.8844   20679127.3414
  23956918.647    10670403.23349   8303343.54749  23956921.9394   23956927.6784
  22445209.546    -6459442.28949  -5018816.66349  22445209.6624   22445216.6744
  20137584.130      904990.93049    706886.82849  20137586.4964   20137592.4804
  24282112.861    -2445497.23149  -1900636.84249  24282115.6424   24282121.1544
 96  2  6 17 27 59.9990000  0  7 22 19 29 25 18 14  4
  21040349.056    -1927782.91749  -1495137.82049  21040350.0774   21040355.8774
  24206414.167    -3184495.40549  -2448379.13249  24206419.4244   24206426.5144
  20674664.016    -3171366.64749  -2465484.15549  20674666.3204   20674671.4884
  23975946.217    10770393.69649   8381258.12949  23975949.4544   23975955.5144
  22431956.992    -6529060.77549  -5073064.80749  22431961.9544   22431968.7634
  20144169.776      939597.84149    733853.24249  20144172.1364   20144178.2394
  24280895.288    -2451907.90349  -1905632.19149  24280896.2444   24280901.7174
 96  2  6 17 28 29.9990000  0  7 22 19 29 25 18 14  4
  21042489.206    -1916543.68749  -1486379.96949  21042488.4254   21042494.8594
  24190436.247    -3268510.75849  -2513845.59349  24190431.9224   24190439.5804
  20670241.596    -3194609.51549  -2483595.47949  20670243.3354   20670248.7264
  23994971.088    10870351.68649   8459147.41849  23994972.1174   23994977.0274
  22418724.310    -6598611.66149  -5127260.28049  22418726.5994   22418733.3504
  20150854.296      974720.43049    761221.48049  20150855.8074   20150861.8884
  24279752.590    -2457876.06449  -1910282.72149  24279759.4064   24279766.0874
 96  2  6 17 28 59.9990000  0  7 22 19 29 25 18 14  4
  21044737.845    -1904713.52549  -1477161.64449  21044739.5834   21044745.6144
  24174456.153    -3352457.90949  -2579258.93149  24174457.8474   24174465.5294
  20665851.727    -3217681.12249  -2501573.35649  20665852.9854   20665858.2074
  24013984.433    10970275.52649   8537010.10549  24013986.7344   24013991.1144
  22405506.948    -6668085.25949  -5181395.52649  22405506.6934   22405512.9784
  20157640.097     1010381.21449    789009.09449  20157641.8064   20157647.5424
  24278703.764    -2463401.92949  -1914588.61149  24278708.9814   24278714.3264
 96  2  6 17 29 29.9990000  0  7 22 19 29 25 18 14  4
  21047101.158    -1892301.67449  -1467490.06649  21047102.0734   21047107.4734
  24158495.755    -3436315.69949  -2644602.63549  24158500.4124   24158507.2984
  20661489.993    -3240595.40249  -2519428.64049  20661492.7354   20661498.0054
  24032993.736    11070164.37949   8614845.54649  24032994.5214   24032998.9124
  22392299.129    -6737484.84549  -5235473.10149  22392300.8234   22392306.7254
  20164532.877     1046597.95849    817229.92249  20164533.4324   20164539.2374
  24277743.316    -2468457.98149  -1918528.41849  24277747.2894   24277753.1454
 96  2  6 17 29 59.9990000  0  7 22 19 29 25 18 14  4
  21049566.217    -1879353.35949  -1457400.45749  21049565.9394   21049571.3674
  24142552.381    -3520090.93949  -2709882.02549  24142558.5914   24142565.5274
  20657155.359    -3263379.16549  -2537182.22049  20657157.1304   20657162.5014
  24051989.029    11169996.75149   8692636.94149  24051991.2144   24051997.7644
  22379103.028    -6806846.23049  -5289520.91849  22379101.5774   22379107.3934
  20171525.374     1083348.53249    845866.72349  20171526.9744   20171532.5374
  24276873.992    -2473033.46849  -1922093.75249  24276876.1414   24276881.9554
 96  2  6 17 30 29.9990000  0  7 22 19 29 25 18 14  4
  21052128.836    -1865880.87549  -1446902.40049  21052129.4884   21052135.2234
  24126634.400    -3603761.63249  -2775079.94549  24126635.6764   24126643.6614
  20652845.065    -3286027.67049  -2554830.40549  20652847.0154   20652852.3724
  24070983.138    11269791.24249   8770398.82149  24070981.5694   24070987.6434
  22365906.622    -6876173.01449  -5343541.76349  22365908.9134   22365915.4954
  20178621.337     1120635.89749    874921.80649  20178622.6264   20178628.3054
  24276104.104    -2477102.76949  -1925264.66149  24276101.8614   24276108.9354
 96  2  6 17 30 59.9990000  0  7 22 19 29 25 18 14  4
  21054792.767    -1851877.36649  -1435990.56949  21054794.4194   21054800.0374
  24110738.136    -3687312.99949  -2840184.90549  24110736.1754   24110744.5724
  20648560.917    -3308538.51249  -2572371.32249  20648563.4144   20648568.7444
  24089967.862    11369579.04349   8848155.51549  24089970.5314   24089976.3864
  22352721.914    -6945472.88949  -5397541.64949  22352721.7254   22352728.1094
  20185817.202     1158448.15549    904385.89249  20185817.9624   20185824.0974
  24275421.371    -2480667.37749  -1928042.29249  24275424.2824   24275429.8274
 96  2  6 17 31 29.9990000  0  7 22 19 29 25 18 14  4
  21057562.391    -1837327.16649  -1424652.74749  21057562.5744   21057568.8654
  24094860.986    -3770736.90449  -2905190.50649  24094861.8034   24094869.1734
  20644310.036    -3330893.03649  -2589790.43049  20644309.7274   20644314.9384
  24108961.975    11469370.33849   8925914.89449  24108961.2954   24108966.5134
  22339539.186    -7014738.93549  -5451515.16949  22339540.3914   22339546.6584
  20193108.158     1196772.57349    934249.06449  20193111.0134   20193116.6104
  24274837.308    -2483724.15349  -1930424.21549  24274841.9924   24274848.0664
 96  2  6 17 31 59.9990000  0  7 22 19 29 25 18 14  4
  21060439.145    -1822209.37749  -1412872.63649  21060439.4044   21060445.3974
  24079008.373    -3854032.67249  -2970096.25949  24079011.4534   24079018.6894
  20640091.157    -3353059.97049  -2607063.36849  20640091.4444   20640096.7294
  24127952.485    11569170.51849   9003681.23549  24127952.5474   24127958.2564
  22326365.561    -7083951.47549  -5505447.00149  22326370.2284   22326376.1814
  20200500.072     1235607.25549    964509.84949  20200500.9334   20200506.5064
  24274347.971    -2486290.33549  -1932423.86349  24274353.1614   24274360.2824
 96  2  6 17 32 29.9990000  0  7 22 19 29 25 18 14  4
  21063426.609    -1806507.34449  -1400637.27649  21063428.0084   21063433.6284
  24063181.909    -3937215.09049  -3034913.68249  24063181.4444   24063189.8364
  20635907.689    -3375036.25849  -2624187.75349  20635909.3994   20635914.7894
  24146938.010    11668970.88649   9081447.72449  24146940.9104   24146945.3514
  22313209.795    -7153097.11449  -5559326.70449  22313212.1244   22313218.2944
  20207986.006     1274952.21049    995168.24549  20207987.8424   20207993.7054
  24273951.309    -2488398.23249  -1934066.41149  24273951.1794   24273958.9704
 96  2  6 17 32 59.9990000  0  7 22 19 29 25 18 14  4
  21066529.629    -1790200.27749  -1387930.46149  21066530.8294   21066536.9084
  24047375.196    -4020283.58249  -3099642.34649  24047374.5254   24047382.2224
  20631761.443    -3396826.91949  -2641167.49049  20631762.7034   20631767.9654
  24165930.678    11768749.93259                                  24165933.6174
  22300066.382    -7222165.29249  -5613146.04849  22300068.6414   22300074.7224
  20215570.805     1314809.82749   1026226.12049  20215572.5854   20215578.2374
  24273633.837    -2490063.98449  -1935364.41649  24273635.5304   24273640.5624
 96  2  6 17 33 29.9990000  0  7 22 19 29 25 18 14  4
  21069750.083    -1773275.60349  -1374742.40049  21069751.6464   21069757.5934
  24031587.014    -4103219.43149  -3164267.63249  24031591.6694   24031599.1004
  20627650.344    -3418423.07049  -2657995.65949  20627652.9674   20627658.1514
  24184909.392    11868498.04758                                  24184898.7224
  22286942.580    -7291133.24349  -5666887.28949  22286944.5844   22286950.6124
  20223256.625     1355193.69149   1057694.05849  20223257.4864   20223263.1264
  24273407.228    -2491270.08549  -1936304.25949  24273405.6464   24273412.2584
 96  2  6 17 33 59.9990000  0  6 22 19 29 18 14  4
  21073088.895    -1755732.85349  -1361072.72549  21073090.0244   21073096.0044
  24015833.086    -4186019.98549  -3228787.49449  24015834.3754   24015843.0024
  20623577.482    -3439831.27049  -2674677.37649  20623579.1214   20623584.5504
  22273841.041    -7359996.23549  -5720546.74849  22273840.6584   22273846.7784
  20231042.539     1396114.99149   1089580.77749  20231044.4344   20231050.3194
  24273259.991    -2492006.47849  -1936878.08749  24273265.6444   24273271.0584
 96  2  6 17 34 29.9990000  0  6 22 19 29 18 14  4
  21076543.684    -1737580.16449  -1346927.75449  21076544.1644   21076549.9674
  24000107.515    -4268684.65449  -3293201.44549  24000105.7254   24000113.1304
  20619538.697    -3461056.34549  -2691216.39649  20619540.2594   20619545.6284
  22260754.176    -7428753.70749  -5774123.98249  22260756.1074   22260762.4774
  20238935.119     1437583.66049   1121894.02049  20238935.6084   20238941.3634
  24273212.360    -2492258.48149  -1937074.49649  24273219.0314   24273222.1184
 96  2  6 17 34 59.9990000  0  6 22 19 29 18 14  4
  21080114.255    -1718812.51549  -1332303.60949  21080115.5234   21080121.2324
  23984398.361    -4351200.16049  -3357499.19149  23984402.3244   23984411.1324
  20615535.909    -3482094.29349  -2707609.60749  20615536.9164   20615542.2174
  22247691.789    -7497407.76649  -5827620.63449  22247691.7414   22247698.4414
  20246930.325     1479606.44049   1154639.03249  20246932.3984   20246938.3824
  24273263.296    -2491999.19949  -1936872.45249  24273266.4874   24273273.0224
 96  2  6 17 35 29.9990000  0  6 22 19 29 18 14  4
  21083797.706    -1699451.29249  -1317216.92949  21083799.4054   21083805.5354
  23968719.836    -4433593.92749  -3421702.08949  23968723.1044   23968731.3014
  20611566.243    -3502951.49249  -2723861.96749  20611567.8234   20611573.3914
  22234639.266    -7565979.52249  -5881053.14849  22234642.9994   22234649.3464
  20255030.047     1522169.86049   1187805.32549  20255031.9564   20255037.6964
  24273409.186    -2491229.00549  -1936272.30249  24273414.7134   24273420.6434
 96  2  6 17 35 59.9990000  0  6 22 19 29 18 14  4
  21087595.784    -1679503.91449  -1301673.52449  21087596.0574   21087601.4644
  23953063.810    -4515876.99949  -3485818.71349  23953065.4624   23953072.4284
  20607628.696    -3523635.03549  -2739979.02149  20607632.0844   20607637.4654
  22221604.921    -7634490.46949  -5934438.28249  22221605.7194   22221612.1904
  20263232.662     1565273.19649   1221392.32949  20263233.9874   20263239.8484
  24273654.344    -2489960.57749  -1935283.94549  24273655.1624   24273661.7614
 96  2  6 17 36 29.9990000  0  6 22 19 29 18 14  4
  21091505.183    -1658958.31349  -1285663.96449  21091505.4724   21091510.8324
  23937434.473    -4598028.11149  -3549832.52649  23937432.9594   23937440.4494
  20603731.064    -3544123.47049  -2755944.04149  20603733.1924   20603738.4374
  22208578.360    -7702936.93049  -5987773.18049  22208580.7344   22208587.3364
  20271539.922     1608924.39849   1255406.24049  20271540.7574   20271546.9094
  24273991.477    -2488195.41549  -1933908.52249  24273991.0994   24273997.9004
 96  2  6 17 36 59.9990000  0  6 22 19 29 18 14  4
  21095526.321    -1637823.22749  -1269195.06249  21095527.3044   21095532.6104
  23921820.155    -4680057.11849  -3613751.15349  23921823.4104   23921830.9824
  20599865.602    -3564429.46749  -2771766.89849  20599869.0674   20599874.2724
  22195564.728    -7771338.99749  -6041073.47949  22195564.4274   22195570.4934
  20279946.763     1653103.98349   1289831.88049  20279947.7834   20279953.6214
  24274412.647    -2485954.28749  -1932162.22449  24274416.2064   24274424.4644
 96  2  6 17 37 29.9990000  0  6 22 19 29 18 14  4
  21099659.176    -1616106.07649  -1252272.61249  21099659.5234   21099665.1964
  23906237.344    -4761956.06349  -3677568.49049  23906238.0524   23906245.9434
  20596040.535    -3584542.99149  -2787439.77449  20596041.6024   20596046.6304
  22182556.590    -7839686.56649  -6094331.31049  22182558.5344   22182564.7404
  20288451.150     1697804.49749   1324663.43749  20288453.8634   20288460.2624
  24274928.149    -2483251.92449  -1930056.51349  24274931.8764   24274937.0204
 96  2  6 17 37 59.9990000  0  6 22 19 29 18 14  4
  21103899.677    -1593818.30749  -1234905.51549  21103901.3494   21103906.5924
  23890680.143    -4843721.10249  -3741281.46249  23890678.9174   23890686.0764
  20592245.724    -3604473.14449  -2802969.77249  20592248.8154   20592254.3014
  22169560.966    -7907985.14049  -6147550.96949  22169561.6374   22169567.9574
  20297053.327     1743002.62849   1359882.73949  20297054.7604   20297060.7804
  24275525.865    -2480118.26149  -1927614.73449  24275528.8374   24275535.5334
 96  2  6 17 38 29.9990000  0  6 22 19 29 18 14  4
  21108248.528    -1570965.06749  -1217097.80649  21108250.0274   21108255.2874
  23875140.718    -4925363.94549  -3804899.22349  23875142.5094   23875150.9284
  20588489.513    -3624223.07949  -2818359.32949  20588490.7914   20588495.9934
  22156569.094    -7976233.45049  -6200731.46549  22156574.2644   22156580.5284
  20305744.832     1788678.65349   1395474.43749  20305746.9504   20305752.8944
  24276208.618    -2476552.03849  -1924835.88649  24276205.6934   24276213.5344
 96  2  6 17 38 59.9990000  0  6 22 19 29 18 14  4
  21112710.327    -1547523.79549  -1198831.88949  21112710.3834   21112716.1354
  23859629.393    -5006868.46249  -3868409.22649  23859633.0784   23859641.3994
  20584767.603    -3643775.12749  -2833594.68949  20584770.0024   20584775.1874
  22143602.796    -8044401.07749  -6253849.08049  22143602.3474   22143608.5054
  20314532.759     1834854.53449   1431455.62949  20314533.8864   20314540.0974
  24276974.744    -2472512.28349  -1921688.06649  24276976.3524   24276981.6414
 96  2  6 17 39 29.9990000  0  6 22 19 29 18 14  4
  21117282.598    -1523494.89149  -1180108.07349  21117283.4424   21117289.0764
  23844146.592    -5088238.82749  -3931814.68049  23844148.9424   23844156.3224
  20581085.463    -3663123.49549  -2848671.34249  20581088.1394   20581093.4224
  22130646.166    -8112480.41449  -6306897.90849  22130647.5404   22130653.6344
  20323413.135     1881528.69349   1467825.08649  20323415.5244   20323421.7654
  24277831.366    -2467991.80249  -1918165.64149  24277835.5674   24277841.6884
 96  2  6 17 39 59.9990000  0  6 22 19 29 18 14  4
  21121970.406    -1498864.74449  -1160915.76249  21121970.4044   21121975.9514
  23828688.522    -5169474.64949  -3995115.27449  23828689.5144   23828697.2594
  20577444.212    -3682261.45049  -2863584.02749  20577446.2824   20577451.6984
  22117709.853    -8180471.56449  -6359878.01649  22117709.0074   22117715.1114
  20332393.859     1928715.66049   1504594.13849  20332394.7864   20332401.1234
  24278788.453    -2462966.10449  -1914249.53949  24278792.7344   24278800.0424
 96  2  6 17 40 29.9990000  0  6 22 19 29 18 14  4
  21126769.518    -1473632.97549  -1141254.65049  21126771.4034   21126777.7284
  23813252.853    -5250580.55849  -4058314.64049  23813256.0584   23813264.0874
  20573843.973    -3701183.69549  -2878328.62949  20573845.3274   20573850.8684
  22104786.888    -8248364.26549  -6412781.40949  22104789.5084   22104795.6414
  20341472.235     1976425.45149   1541770.58049  20341473.8704   20341480.1144
  24279852.902    -2457407.03849  -1909917.82849  24279849.8584   24279856.1954
 96  2  6 17 40 59.9990000  0  6 22 19 29 18 14  4
  21131689.663    -1447791.56249  -1121118.50449  21131689.2104   21131695.0414
  23797846.463    -5331546.34949  -4121404.84749  23797849.0764   23797856.6024
  20570285.836    -3719878.69449  -2892896.15649  20570288.0444   20570293.1164
  22091890.476    -8316142.02549  -6465595.23649  22091891.8724   22091898.0184
  20350652.992     2024674.30249   1579367.07249  20350655.3444   20350661.5134
  24281004.259    -2451310.97449  -1905167.68349  24281009.8094   24281017.0464
 96  2  6 17 41 29.9990000  0  6 22 19 29 18 14  4
  21136719.744    -1421347.79049  -1100512.96949  21136720.9544   21136727.0624
  23782463.121    -5412375.55549  -4184388.61049  23782467.3244   23782474.3214
  20566771.766    -3738345.21649  -2907285.64649  20566773.9164   20566779.1014
  22079018.296    -8383801.82849  -6518317.14049  22079016.7894   22079022.8944
  20359937.521     2073462.72649   1617384.01149  20359939.6214   20359945.5424
  24282270.060    -2444687.88249  -1900006.87149  24282271.3064   24282276.4554
 96  2  6 17 41 59.9990000  0  6 22 19 29 18 14  4
  21141864.975    -1394308.15849  -1079443.14249  21141866.6404   21141872.6744
  23767108.698    -5493066.57549  -4247264.71049  23767112.6664   23767119.3074
  20563296.819    -3756605.19549  -2921514.20149  20563299.1434   20563304.3664
  22066160.738    -8451353.29449  -6570954.63949  22066161.7644   22066168.2624
  20369325.094     2122787.10449   1655818.57549  20369325.6824   20369331.9744
  24283622.271    -2437548.59149  -1894443.83949  24283629.2454   24283635.6844
 96  2  6 17 42 29.9990000  0  6 22 19 29 18 14  4
  21147122.001    -1366684.65349  -1057918.33749  21147123.0844   21147129.2204
  23751783.693    -5573628.51649  -4310040.22349  23751782.3124   23751789.7534
  20559857.168    -3774672.55949  -2935592.65749  20559861.0294   20559866.0664
  22053323.489    -8518798.75749  -6623509.53549  22053327.3034   22053334.0664
  20378810.628     2172639.29449   1694664.41749  20378812.2174   20378818.4824
  24285078.389    -2429920.35849  -1888499.79649  24285080.0984   24285087.2964
 96  2  6 17 42 59.9990000  0  6 22 19 29 18 14  4
  21152489.827    -1338481.29549  -1035941.70249  21152490.2244   21152496.4204
  23736476.023    -5654054.19049  -4372709.55649  23736478.1444   23736484.8584
  20556454.262    -3792562.52749  -2949532.89349  20556456.6144   20556461.7604
  22040512.110    -8586148.44349  -6675989.80649  22040511.2974   22040517.6404
  20388398.027     2223023.66849   1733924.95149  20388400.0924   20388406.4624
  24286613.896    -2421827.57349  -1882193.76149  24286620.0054   24286627.3854
 96  2  6 17 43 29.9990000  0  6 22 19 29 18 14  4
  21157964.627    -1309704.19349  -1013517.98849  21157966.2454   21157972.1314
  23721195.046    -5734339.41049  -4435269.47449  23721199.6634   23721206.3344
  20553080.335    -3810289.82149  -2963346.36949  20553083.2784   20553088.3654
  22027709.159    -8653417.21149  -6728407.01549  22027710.3884   22027716.8664
  20398084.727     2273928.51249   1773591.04849  20398087.1314   20398093.0024
  24288244.242    -2413287.51949  -1875539.20849  24288245.3584   24288252.1534
 96  2  6 17 43 59.9990000  0  6 22 19 29 18 14  4
  21163552.097    -1280345.67149   -990641.22549  21163553.1174   21163558.7114
  23705953.212    -5814462.43649  -4497702.98649  23705952.7254   23705960.6084
  20549741.447    -3827839.00249  -2977021.05549  20549743.6814   20549749.0584
  22014923.018    -8720607.63349  -6780763.17549  22014924.3554   22014930.6074
  20407872.868     2325361.97049   1813669.05149  20407874.4894   20407880.4934
  24289953.213    -2404297.91249  -1868534.35449  24289956.1334   24289962.7624
 96  2  6 17 44 29.9990000  0  6 22 19 29 18 14  4
  21169247.845    -1250415.70149   -967319.17449  21169248.9284   21169254.3314
  23690733.680    -5894417.43849  -4560005.56549  23690737.8484   23690745.4554
  20546438.096    -3845200.32649  -2990549.36249  20546440.0694   20546445.2144
  22002155.061    -8787706.51049  -6833048.00249  22002156.0614   22002162.2294
  20417762.827     2377329.50449   1854163.21849  20417763.6804   20417769.7154
  24291749.763    -2394858.17349  -1861178.75649  24291752.5584   24291759.3404
 96  2  6 17 44 59.9990000  0  6 22 19 29 18 14  4
  21175052.497    -1219909.32649   -943547.96849  21175053.6684   21175059.7204
  23675552.992    -5974191.91249  -4622167.48649  23675556.6574   23675564.9834
  20543172.521    -3862357.48349  -3003918.57349  20543175.0954   20543180.1824
  21989404.216    -8854705.50249  -6885254.98749  21989406.3664   21989412.5854
  20427752.708     2429834.17149   1895075.93049  20427754.8284   20427761.3314
  24293633.639    -2384954.09349  -1853461.32949  24293637.5904   24293644.5804
 96  2  6 17 45 29.9990000  0  6 22 19 29 18 14  4
  21180966.740    -1188830.64649   -919330.81649  21180967.7174   21180973.8064
  23660406.378    -6053797.62549  -4684197.90249  23660409.1494   23660416.5294
  20539949.558    -3879302.04749  -3017122.12749  20539950.8144   20539955.7194
  21976674.224    -8921608.11349  -6937386.87949  21976675.3974   21976681.3224
  20437843.769     2482862.02249   1936396.31949  20437845.9654   20437852.3694
  24295611.161    -2374583.88649  -1845380.70149  24295610.6614   24295618.7054
 96  2  6 17 45 59.9990000  0  6 22 19 29 18 14  4
  21186989.688    -1157177.44949   -894665.99349  21186991.2704   21186997.3874
  23645291.311    -6133239.69249  -4746100.81049  23645291.8814   23645298.9164
  20536766.979    -3896018.82049  -3030148.19149  20536769.9724   20536775.0384
  21963965.304    -8988391.25749  -6989425.67749  21963966.8634   21963973.0134
  20448036.690     2536423.76349   1978132.72249  20448038.4724   20448044.3154
  24297673.792    -2363733.81149  -1836926.12349  24297676.1434   24297682.4554
 96  2  6 17 46 29.9990000  0  6 22 19 29 18 14  4
  21193124.892    -1124939.65249   -869545.63549  21193125.7704   21193131.8724
  23630202.765    -6212532.28549  -4807887.23249  23630202.1544   23630209.7044
  20533630.156    -3912507.62149  -3042996.60749  20533632.3264   20533637.1914
  21951280.086    -9055039.01849  -7041358.98049  21951284.2464   21951290.2554
  20458329.395     2590514.93249   2020281.67049  20458331.6984   20458337.7074
  24299829.155    -2352394.32449  -1828090.19349  24299833.5094   24299840.0504
 96  2  6 17 46 59.9990000  0  6 22 19 29 18 14  4
  21199373.631    -1092106.42149   -843961.30149  21199373.9294   21199379.7584
  23615131.270    -6291693.70249  -4869571.43149  23615138.5424   23615145.6534
  20530537.890    -3928757.59849  -3055658.93049  20530539.9034   20530544.9274
  21938621.717    -9121568.44749  -7093200.07549  21938623.8154   21938630.0014
  20468720.319     2645119.78349   2062830.89149  20468722.3544   20468728.4954
  24302080.644    -2340567.78149  -1818874.76349  24302082.9894   24302090.4714
 96  2  6 17 47 29.9990000  0  6 22 19 29 18 14  4
  21205736.750    -1058663.84649   -817902.16049  21205737.7484   21205743.4104
  23600096.143    -6370717.16249  -4931148.12749  23600100.8784   23600108.3674
  20527492.878    -3944754.65549  -3068124.17149  20527495.8714   20527500.7334
  21925986.978    -9187972.23749  -7144943.26949  21925987.6474   21925994.2184
  20479212.237     2700248.51049   2105788.32549  20479212.9784   20479219.3354
  24304425.228    -2328241.23449  -1809269.68649  24304429.9614   24304436.7844
 96  2  6 17 47 59.9990000  0  6 22 19 29 18 14  4
  21212212.360    -1024627.47849   -791380.31449  21212214.4744   21212220.5344
  23585082.705    -6449611.60649  -4992624.31249  23585087.9484   23585095.2814
  20524494.587    -3960506.71249  -3080398.50949  20524498.1344   20524503.0474
  21913376.893    -9254256.36049  -7196593.21349  21913374.3064   21913380.4344
  20489797.903     2755884.16049   2149140.76249  20489800.0234   20489806.5294
  24306867.095    -2315429.81749  -1799286.81349  24306867.6744   24306875.5514
 96  2  6 17 48 29.9990000  0  6 22 19 29 18 14  4
  21218803.332     -989996.61849   -764395.23849  21218804.7064   21218810.6134
  23570101.364    -6528373.34549  -5053997.07049  23570099.6214   23570106.6664
  20521544.939    -3976016.43349  -3092484.00849  20521546.8914   20521551.5774
  21900778.384    -9320442.65249  -7248166.92749  21900779.7054   21900785.6374
  20500479.679     2812014.92449   2192879.00249  20500481.3144   20500487.7544
  24309400.008    -2302136.95149  -1788928.77449  24309398.4454   24309403.9054
 96  2  6 17 48 59.9990000  0  6 22 19 29 18 14  4
  21225505.204     -954775.32949   -736950.07949  21225506.6934   21225512.9014
  23555136.530    -6606988.23549  -5115255.38749  23555140.2524   23555148.1914
  20518638.981    -3991280.41649  -3104378.02749  20518642.2464   20518646.9054
  21888202.578    -9386530.70049  -7299664.07949  21888203.4254   21888209.9314
  20511257.408     2868649.40749   2237009.75649  20511258.6044   20511264.6874
  24312020.817    -2288364.19549  -1778196.79749  24312017.1804   24312025.0494
 96  2  6 17 49 29.9990000  0  6 22 19 29 18 14  4
  21232316.163     -918989.50049   -709065.03549  21232316.9774   21232322.7984
  23540211.621    -6685448.66149  -5176393.36249  23540210.1154   23540218.0224
  20515777.183    -4006320.90549  -3116097.90049  20515780.2044   20515785.0434
  21875644.437    -9452509.54749  -7351076.14549  21875647.9474   21875654.7124
  20522129.007     2925784.05549   2281530.23749  20522131.0114   20522137.0454
  24314729.348    -2274125.52049  -1767101.76549  24314728.9534   24314734.8104
 96  2  6 17 49 59.9990000  0  6 22 19 29 18 14  4
  21239229.885     -882638.73649   -680739.76449  21239233.9024   21239239.9124
  23525309.056    -6763739.48149  -5237399.17549  23525311.5834   23525318.8434
  20512958.936    -4021133.36849  -3127640.08749  20512961.5394   20512966.2594
  21863112.241    -9518365.03249  -7402392.08749  21863115.8124   21863122.2204
  20533098.305     2983424.92249   2326445.18649  20533099.8184   20533106.0224
  24317524.612    -2259412.22849  -1755636.90449  24317527.4834   24317534.3884
 96  2  6 17 50 29.9990000  0  6 22 19 29 18 14  4
  21246258.366     -845725.03549   -651975.85849  21246258.6984   21246264.1564
  23510442.223    -6841866.90549  -5298277.65149  23510444.3404   23510452.0354
  20510181.158    -4035732.31949  -3139015.90249  20510183.2944   20510188.2344
  21850602.835    -9584105.82749  -7453618.66549  21850605.7144   21850612.0774
  20544161.907     3041570.52949   2371753.43349  20544164.3674   20544170.6204
  24320417.483    -2244226.84949  -1743804.18749  24320416.2434   24320424.8464
 96  2  6 17 50 59.9990000  0  6 22 19 29 18 14  4
  21253390.252     -808241.02749   -622767.54149  21253391.1524   21253397.3174
  23495611.337    -6919818.15049  -5359018.86249  23495610.4694   23495617.5374
  20507446.086    -4050109.16949  -3150218.64649  20507447.7664   20507452.4434
  21838121.375    -9649712.86449  -7504741.00549  21838121.6084   21838127.6174
  20555326.299     3100235.90349   2417466.69749  20555328.1364   20555334.1964
  24323396.021    -2228561.12449  -1731597.14649  24323397.4144   24323405.6264
 96  2  6 17 51 29.9990000  0  6 22 19 29 18 14  4
  21260636.938     -770159.78549   -593093.85349  21260638.2714   21260643.9564
  23480813.863    -6997569.94249  -5419604.64549  23480814.9524   23480821.7514
  20504754.531    -4064248.69949  -3161236.46849  20504756.8704   20504761.8314
  21825661.739    -9715181.74749  -7555755.70149  21825663.0634   21825669.3794
  20566589.855     3159428.50449   2463590.78049  20566592.1374   20566598.2974
  24326468.850    -2212399.52549  -1719003.72549  24326473.9134   24326480.5334
 96  2  6 17 51 59.9990000  0  6 22 19 29 18 14  4
  21267994.858     -731487.98849   -562959.99349  21267997.3444   21268002.9264
  23466049.822    -7075142.15649  -5480050.49749  23466053.0224   23466060.1624
  20502107.487    -4078158.81349  -3172075.52249  20502109.7034   20502114.8484
  21813224.456    -9780538.28649  -7606682.85549  21813226.1874   21813232.0734
  20577949.856     3219123.38349   2510106.25449  20577951.3434   20577957.6934
  24329645.078    -2195752.71549  -1706032.22949  24329642.2964   24329649.2514
 96  2  6 17 52 29.9990000  0  6 22 19 29 18 14  4
  21275468.067     -692216.81649   -532359.09049  21275470.1094   21275475.9774
  23451322.974    -7152535.78149  -5540357.20049  23451325.2944   23451332.3744
  20499505.620    -4091838.04549  -3182734.67549  20499506.8014   20499511.7684
  21800811.908    -9845777.20149  -7657518.36149  21800812.0044   21800817.6814
  20589406.178     3279328.11149   2557019.01349  20589408.1664   20589414.3404
  24332902.540    -2178616.93949  -1692679.69249  24332901.9964   24332909.5454
 96  2  6 17 52 59.9990000  0  6 22 19 29 18 14  4
  21283057.777     -652339.49349   -501285.86149  21283058.6324   21283064.4874
  23436632.997    -7229741.56749  -5600517.55049  23436633.7044   23436641.6244
  20496947.633    -4105273.67449  -3193204.00149  20496950.0994   20496955.2294
  21788420.296    -9910891.27149  -7708256.58449  21788420.6044   21788427.0044
  20600960.067     3340048.39649   2604333.51049  20600963.0764   20600969.3324
  24336255.708    -2160989.01249  -1678943.67449  24336257.5634   24336264.4414
 96  2  6 17 53 29.9990000  0  6 22 19 29 18 14  4
  21290757.431     -611876.53349   -469756.29049  21290758.6964   21290764.5024
  23421969.849    -7306767.18949  -5660537.48849  23421975.8484   23421983.8134
  20494435.302    -4118473.63749  -3203489.69249  20494438.2154   20494443.2324
  21776055.099    -9975865.35649  -7758885.72349  21776056.6844   21776063.0884
  20612612.981     3401280.07149   2652046.49349  20612614.9244   20612621.2064
  24339700.723    -2142880.77549  -1664833.38549  24339702.1844   24339709.3384
 96  2  6 17 53 59.9990000  0  6 22 19 29 18 14  4
  21298564.189     -570854.87049   -437791.37149  21298564.8734   21298571.1124
  23407349.209    -7383629.99649  -5720430.59049  23407349.4674   23407357.6964
  20491968.606    -4131439.86249  -3213593.24949  20491970.7854   20491975.9774
  21763722.158   -10040680.60549  -7809391.10949  21763722.8134   21763728.7314
  20624363.852     3463027.79049   2700161.57849  20624365.2824   20624371.8014
  24343238.259    -2124305.61749  -1650359.25049  24343237.9354   24343244.2064
 96  2  6 17 54 29.9990000  0  6 22 19 29 18 14  4
  21306474.512     -529274.66749   -405391.21149  21306477.3494   21306483.3834
  23392749.599    -7460331.65149  -5780198.09349  23392754.6034   23392761.6094
  20489544.761    -4144178.85049  -3223519.73349  20489546.8054   20489551.8154
  21751415.729   -10105334.21449  -7859770.53249  21751419.5104   21751425.8664
  20636212.941     3525300.86649   2748686.03949  20636215.7164   20636221.8284
  24346856.489    -2105278.89449  -1635533.27249  24346858.6184   24346865.8794
 96  2  6 17 54 59.9990000  0  6 22 19 29 18 14  4
  21314492.002     -487158.83249   -372573.68949  21314491.7054   21314497.5544
  23378183.727    -7536893.70849  -5839856.82149  23378184.7024   23378191.7374
  20487161.299    -4156704.33749  -3233279.85349  20487163.5804   20487168.2214
  21739144.399   -10169838.73849  -7910033.78649  21739144.5164   21739151.0814
  20648158.246     3588069.63549   2797596.74749  20648159.8994   20648166.1064
  24350556.659    -2085822.03449  -1620372.09149  24350561.1734   24350567.6974
 96  2  6 17 55 29.9990000  0  6 22 19 29 18 14  4
  21322604.876     -444514.12349   -339344.05149  21322606.3424   21322612.3134
  23363641.250    -7613319.70849  -5899409.52149  23363641.6174   23363648.5724
  20484820.022    -4169006.90649  -3242866.27349  20484822.2374   20484826.8814
  21726898.243   -10234190.88249  -7960178.30249  21726898.8744   21726904.8444
  20660195.355     3651323.74849   2846885.64349  20660196.3384   20660202.9904
  24354343.572    -2065935.13449  -1604875.83149  24354345.1564   24354351.8524
 96  2  6 17 55 59.9990000  0  6 22 19 29 18 14  4
  21330824.996     -401317.13949   -305684.06649  21330826.7274   21330832.5124
  23349124.877    -7689607.86349  -5958854.79249  23349124.2284   23349131.1594
  20482523.067    -4181074.46149  -3252269.56349  20482525.9774   20482530.7714
  21714673.792   -10298420.77949  -8010227.56549  21714676.2164   21714682.2884
  20672322.502     3715055.58649   2896546.79249  20672324.7284   20672330.9364
  24358215.107    -2045608.27749  -1589036.74349  24358214.3334   24358221.0624
 96  2  6 17 56 29.9990000  0  6 22 19 29 18 14  4
  21339157.848     -357532.99249   -271566.55749  21339158.8684   21339164.3234
  23334636.245    -7765733.54249  -6018173.46949  23334638.5374   23334646.3374
  20480274.136    -4192896.77549  -3261481.75349  20480275.9214   20480280.9824
  21702475.004   -10362528.54849  -8060181.65549  21702476.8904   21702483.2054
  20684541.618     3779267.39749   2946581.94849  20684543.7324   20684549.8784
  24362162.978    -2024814.18749  -1572833.59449  24362170.4394   24362177.1724
 96  2  6 17 56 59.9990000  0  6 22 19 29 18 14  4
  21347600.005     -313162.70349   -236992.30149  21347601.9824   21347607.8224
  23320179.136    -7841686.75249  -6077357.75049  23320184.3414   23320192.2674
  20478073.347    -4204463.60449  -3270494.86849  20478074.7394   20478079.6374
  21690301.252   -10426515.67049  -8110041.74049  21690300.6584   21690306.6794
  20696851.614     3843951.84049   2996985.39249  20696852.7764   20696858.7654
  24366218.647    -2003546.70449  -1556261.55949  24366217.2624   24366224.5254
 96  2  6 17 57 29.9990000  0  6 22 19 29 18 14  4
  21356157.162     -268195.77549   -201953.14749  21356159.0394   21356164.9264
  23305770.507    -7917433.28349  -6136380.98649  23305770.1604   23305778.0744
  20475922.352    -4215760.83849  -3279297.91149  20475925.2564   20475930.4554
  21678146.052   -10490378.01549  -8159804.59049  21678147.9654   21678154.3364
  20709255.124     3909135.02249   3047777.46549  20709256.7684   20709262.9304
  24370351.871    -1981809.75649  -1539323.70749  24370354.5504   24370360.1354
 96  2  6 17 57 59.9990000  0  6 22 19 29 18 14  4
  21364825.450     -222639.11349   -166454.44849  21364828.1434   21364833.9924
  23291391.727    -7992979.02749  -6195247.75349  23291393.9214   23291402.2574
  20473822.027    -4226796.00649  -3287896.74349  20473825.2344   20473830.3894
  21666020.160   -10554110.27649  -8209466.08049  21666020.0674   21666026.5384
  20721755.989     3974827.45949   3098966.36249  20721757.9024   20721764.1414
  24374577.582    -1959594.43449  -1522013.08449  24374581.9694   24374588.1784
 96  2  6 17 58 29.9990000  0  6 22 19 29 18 14  4
  21373606.575     -176509.55749   -130509.36049  21373605.9504   21373612.1984
  23277052.008    -8068330.49949  -6253963.15149  23277055.2754   23277062.4764
  20471773.840    -4237568.54149  -3296290.92749  20471775.2014   20471780.3884
  21653917.232   -10617698.38549  -8259015.24149  21653919.6264   21653925.9884
  20734355.380     4041034.70249   3150556.41149  20734356.4844   20734362.6114
  24378897.035    -1936903.90649  -1504332.18449  24378898.7324   24378906.2214
 96  2  6 17 58 59.9990000  0  6 22 19 29 18 14  4
  21382489.639     -129821.40249    -94128.98249  21382490.7394   21382496.5424
  23262752.359    -8143489.45649  -6312528.54849  23262753.2284   23262760.0094
  20469778.233    -4248051.90849  -3304459.78849  20469780.0644   20469785.3054
  21641845.943   -10681133.03249  -8308444.81949  21641848.5514   21641854.8124
  20747055.742     4107778.65549   3202564.67649  20747057.6964   20747063.8384
  24383302.130    -1913733.36349  -1486277.24249  24383308.7774   24383315.3694
 96  2  6 17 59 29.9990000  0  6 22 19 29 18 14  4
  21391484.926      -82556.84349    -57299.47249  21391484.9234   21391490.8824
  23248486.309    -8218457.84449  -6370945.45749  23248487.0984   23248495.0274
  20467840.501    -4258231.12249  -3312391.64749  20467843.4684   20467848.4284
  21629812.497   -10744391.53149  -8357737.13849  21629810.6844   21629816.6414
  20759861.713     4175072.42549   3255001.37649  20759862.9174   20759869.3024
  24387817.669    -1890050.97749  -1467823.45549  24387815.1584   24387822.7404
 96  2  6 17 59 59.9990000  0  6 22 19 29 18 14  4
  21400570.139      -34808.03449    -20092.61249  21400571.1414   21400576.8234
  23234234.716    -8293352.42149  -6429304.83449  23234235.5904   23234242.5744
  20465942.638    -4268208.49949  -3320166.23149  20465944.7434   20465949.7694
  21617785.479   -10807568.19549  -8406965.69049  21617788.6704   21617794.8784
  20772750.061     4242804.92749   3307779.93549  20772752.2104   20772758.2624
  24392398.702    -1865939.47549  -1449035.28949  24392404.3234   24392409.1974
 96  2  6 18  0 29.9990000  0  6 22 19 29 18 14  4
  21409754.675       13461.17849     17519.74849  21409756.4114   21409762.5534
  23220000.989    -8368138.00849  -6487579.30349  23220004.1024   23220010.5694
  20464087.677    -4277954.18049  -3327760.26849  20464090.4324   20464095.3564
  21605787.320   -10870641.58349  -8456113.76549  21605786.2694   21605792.1294
  20785725.036     4310990.95749   3360911.89749  20785727.4804   20785733.8224
  24397073.789    -1841394.18549  -1429909.13049  24397074.6854   24397082.4384
 96  2  6 18  0 59.9990000  0  6 22 19 29 18 14  4
  21419047.357       62286.68349     55565.57649  21419047.6634   21419053.3744
  23205800.027    -8442760.50049  -6545726.68549  23205804.5304   23205811.3394
  20462284.187    -4287438.42849  -3335150.59849  20462285.3144   20462290.1834
  21593809.611   -10933564.67549  -8505144.73049  21593812.4284   21593818.0754
  20798792.467     4379653.04249   3414414.80949  20798793.4384   20798799.8244
  24401832.317    -1816386.43149  -1410422.58649  24401832.8014   24401840.4814
 96  2  6 18  1 29.9990000  0  6 22 19 29 18 14  4
  21428445.613      111679.27449     94053.29149  21428446.9314   21428452.7184
  23191633.045    -8517206.78949  -6603736.75349  23191637.4794   23191643.4864
  20460526.017    -4296675.34749  -3342348.20449  20460527.9024   20460532.6824
  21581867.298   -10996322.15049  -8554046.63949  21581869.9264   21581875.9744
  20811945.008     4448774.46649   3468275.64449  20811946.7804   20811953.3164
  24406674.651    -1790927.85249  -1390584.75649  24406678.8274   24406684.8904
 96  2  6 18  1 59.9990000  0  6 22 19 29 18 14  4
  21437955.631      161647.03549    132989.19849  21437955.6074   21437961.4404
  23177509.227    -8591441.75649  -6661582.15749  23177510.6234   23177517.3914
  20458817.591    -4305644.09549  -3349336.84549  20458820.8714   20458825.9194
  21569959.333   -11058907.53249  -8602814.44849  21569960.3784   21569966.2434
  20825189.624     4518376.44049   3522510.93349  20825191.6054   20825198.2144
  24411605.299    -1765025.47049  -1370401.09049  24411607.5944   24411614.6894
 96  2  6 18  2 29.9990000  0  6 22 19 29 18 14  4
  21447570.729      212189.21749    172372.70449  21447573.3014   21447579.1904
  23163425.837    -8665444.65649  -6719246.72149  23163428.4914   23163435.2184
  20457165.036    -4314335.33749  -3356109.24449  20457167.0054   20457171.7714
  21558083.704   -11121312.18749  -8651441.44349  21558084.9334   21558091.1834
  20838527.596     4588466.10549   3577126.24249  20838529.2914   20838535.5334
  24416614.824    -1738686.02349  -1349876.88849  24416619.5134   24416626.7544
 96  2  6 18  2 59.9990000  0  6 22 19 29 18 14  4
  21457295.686      263287.23449    212189.32649  21457297.0074   21457302.7514
  23149392.334    -8739210.65149  -6776726.70949  23149391.6314   23149398.1104
  20455558.828    -4322771.36549  -3362682.77349  20455561.8674   20455566.5834
  21546241.806   -11183537.69849  -8699928.84549  21546243.7664   21546249.9614
  20851957.375     4659040.96249   3632119.62149  20851959.0134   20851965.6304
  24421710.276    -1711904.28549  -1329008.03949  24421716.1024   24421722.1454
 96  2  6 18  3 29.9990000  0  6 22 19 29 18 14  4
  21467127.993      314960.72349    252454.37749  21467130.2844   21467135.8344
  23135394.675    -8812736.48649  -6834019.54749  23135399.6134   23135407.1794
  20454007.337    -4330929.85949  -3369040.04449  20454009.4444   20454014.2444
  21534434.797   -11245574.53349  -8748269.22349  21534438.5164   21534444.7684
  20865484.025     4730122.72949   3687507.99549  20865485.6234   20865492.3074
  24426898.174    -1684669.83649  -1307786.40549  24426898.1434   24426905.1504
 96  2  6 18  3 59.9990000  0  6 22 19 29 18 14  4
  21477063.037      367167.16449    293134.71049  21477064.8854   21477070.4824
  23121444.005    -8886064.91149  -6891158.56449  23121445.4094   23121453.0294
  20452500.624    -4338842.22649  -3375205.52949  20452503.4974   20452508.5574
  21522658.907   -11307461.17249  -8796492.56449  21522662.2354   21522668.1674
  20879101.409     4801679.07649   3743266.17249  20879102.3134   20879108.7804
  24432160.181    -1657010.65549  -1286233.85149  24432161.7224   24432168.0014
 96  2  6 18  4 29.9990000  0  6 22 19 29 18 14  4
  21487095.223      419888.68449    334216.41149  21487097.3914   21487102.7794
  23107524.980    -8959220.83749  -6948163.15849  23107524.5074   23107531.9044
  20451036.245    -4346536.25749  -3381200.88049  20451039.5024   20451044.3674
  21510914.447   -11369195.76449  -8844597.43049  21510914.2984   21510920.6274
  20892802.493     4873686.19349   3799375.59749  20892805.0864   20892811.2604
  24437504.126    -1628925.71949  -1264349.51649  24437505.6474   24437513.1194
 96  2  6 18  4 59.9990000  0  6 22 19 29 18 14  4
  21497229.362      473139.59549    375710.61049  21497230.8174   21497236.3354
  23093630.805    -9032215.09049  -7005041.78749  23093634.0324   23093640.6674
  20449619.557    -4353987.12249  -3387006.75449  20449621.7404   20449626.6914
  21499196.327   -11430763.55749  -8892572.32949  21499198.7304   21499204.2034
  20906592.192     4946149.88249   3855840.78749  20906594.4254   20906600.5994
  24442927.597    -1600389.82149  -1242113.77849  24442935.1324   24442943.6594
 96  2  6 18  5 29.9990000  0  6 22 19 29 18 14  4
  21507467.151      526944.93449    417636.85249  21507469.4964   21507475.1834
  23079769.738    -9105055.94049  -7061800.86349  23079773.3964   23079780.3154
  20448253.862    -4361159.05849  -3392595.28049  20448256.8194   20448261.7134
  21487516.614   -11492155.92849  -8940410.52549  21487515.7594   21487522.0114
  20920469.453     5019075.94749   3912666.27749  20920471.5984   20920477.8524
  24448454.128    -1571385.33349  -1219512.91949  24448456.0284   24448462.8384
 96  2  6 18  5 59.9990000  0  6 22 19 29 18 14  4
  21517811.055      581287.81149    459981.94049  21517810.8434   21517816.2984
  23065934.431    -9177761.18249  -7118454.28049  23065937.4334   23065944.7184
  20446940.170    -4368073.56749  -3397983.21349  20446941.2394   20446945.6914
  21475860.245   -11553400.38649  -8988133.46749  21475861.4464   21475867.6144
  20934430.130     5092441.64749   3969834.33349  20934432.6284   20934438.8494
  24454064.860    -1541916.00449  -1196549.83649  24454064.0024   24454070.1784
 96  2  6 18  6 29.9990000  0  6 22 19 29 18 14  4
  21528255.172      636184.79949    502758.81349  21528257.0344   21528262.6304
  23052130.714    -9250304.99749  -7174981.91649  23052133.2024   23052141.0994
  20445675.729    -4374712.87249  -3403156.69149  20445677.9704   20445682.6844
  21464234.806   -11614493.29349  -9035738.31649  21464235.6594   21464241.8894
  20948478.142     5166259.70949   4027354.88249  20948479.8384   20948486.0134
  24459757.968    -1511972.93549  -1173217.59349  24459761.3694   24459769.4324
 96  2  6 18  6 59.9990000  0  6 22 19 29 18 14  4
  21538807.822      691626.45249    545960.08649  21538807.4554   21538813.0604
  23038353.690    -9322695.60249  -7231390.17849  23038357.6234   23038364.8664
  20444463.824    -4381078.47549  -3408116.91049  20444466.4764   20444471.2914
  21452632.180   -11675453.35349  -9083239.65349  21452635.0294   21452641.3974
  20962610.597     5240528.36849   4085226.54249  20962612.6124   20962619.0944
  24465541.670    -1481588.42749  -1149541.39049  24465543.2974   24465551.5124
 96  2  6 18  7 29.9990000  0  6 22 19 29 18 14  4
  21549456.747      747609.25149    589583.04249  21549460.5304   21549466.1854
  23024618.031    -9394898.34249  -7287652.06049  23024617.7854   23024624.9234
  20443304.482    -4387178.55549  -3412870.21749  20443305.8634   20443310.1644
  21441061.753   -11736266.87149  -9130626.79849  21441062.9954   21441068.9204
  20976833.633     5315269.59449   4143466.44149  20976835.5214   20976841.8114
  24471408.209    -1450774.45449  -1125530.53349  24471407.6224   24471414.6284
 96  2  6 18  7 59.9990000  0  6 22 19 29 18 14  4
  21560211.449      804110.78549    633610.20549  21560212.3484   21560218.0204
  23010910.713    -9466902.93549  -7343759.52549  23010916.0224   23010923.5624
  20442191.008    -4393023.58449  -3417424.78549  20442193.3474   20442198.1694
  21429518.855   -11796923.30949  -9177891.53749  21429520.5274   21429526.3204
  20991147.309     5390489.95849   4202079.68949  20991149.5974   20991155.8634
  24477344.147    -1419552.40349  -1101201.69649  24477348.6324   24477355.0954
 96  2  6 18  8 29.9990000  0  6 22 19 29 18 14  4
  21571055.477      861104.37249    678020.78849  21571058.0724   21571063.5174
  22997248.012    -9538721.54749  -7399722.07249  22997248.9004   22997256.2734
  20441125.379    -4398614.88249  -3421781.64649  20441129.7314   20441134.2634
  21418008.269   -11857407.17549  -9225021.81549  21418010.9214   21418016.7124
  21005553.837     5466192.32449   4261068.52749  21005555.1714   21005561.3774
  24483360.055    -1387939.16549  -1076568.03449  24483364.9544   24483371.0814
 96  2  6 18  8 59.9990000  0  6 22 19 29 18 14  4
  21581999.719      918614.30649    722833.71049  21582001.5674   21582007.4814
  22983617.440    -9610344.81849  -7455532.41349  22983619.8204   22983626.7064
  20440117.379    -4403919.54749  -3425915.15249  20440120.0834   20440124.9784
  21406540.518   -11917669.03649  -9271979.09649  21406543.4744   21406549.3624
  21020056.506     5542405.12149   4320455.10249  21020058.3024   21020064.2124
  24489459.853    -1355906.69649  -1051607.69249  24489460.7494   24489467.6174
 96  2  6 18  9 29.9990000  0  6 22 19 29 18 14  4
  21593037.347      976612.11549    768026.79949  21593038.2854   21593044.0974
  22970022.029    -9681793.99149  -7511207.09849  22970023.7394   22970030.7864
  20439159.912    -4408953.08949  -3429837.39749  20439162.3514   20439166.8874
  21395111.582   -11977725.64849  -9318776.43849  21395114.6944   21395121.0584
  21034648.207     5619091.13849   4380210.41649  21034650.7874   21034657.3514
  24495630.683    -1323450.60649  -1026317.26349  24495635.7674   24495643.3504
 96  2  6 18  9 59.9990000  0  6 22 19 29 18 14  4
  21604167.619     1035105.50149    813606.04149  21604169.1804   21604175.0334
  22956458.429    -9753083.91749  -7566757.67549  22956457.6594   22956464.7154
  20438255.198    -4413708.57149  -3433542.96949  20438257.3514   20438261.8364
  21383721.359   -12037579.45349  -9365415.75249  21383725.3554   21383730.9244
  21049327.598     5696227.31849   4440316.50849  21049329.0594   21049335.7584
  24501891.878    -1290562.71849  -1000690.38049  24501895.2294   24501902.2564
 96  2  6 18 10 29.9990000  0  6 22 19 29 18 14  4
  21615396.346     1094110.94549    859584.29649  21615397.9854   21615403.1304
  22942918.155    -9824215.90049  -7622185.19349  22942921.3254   22942929.3824
  20437403.336    -4418180.91549  -3437027.92149  20437406.2504   20437410.8854
  21372370.591   -12097243.99649  -9411907.59549  21372371.4914   21372377.4484
  21064090.192     5773804.31549   4500766.09949  21064091.9204   21064098.4404
  24508227.714    -1257236.22649   -974721.73849  24508237.1684   24508243.5164
 96  2  6 18 10 59.9990000  0  6 22 19 29 18 14  4
  21626726.295     1153653.03949    905980.72049  21626728.1654   21626733.6674
  22929419.124    -9895162.39149  -7677468.17349  22929421.4594   22929427.8944
  20436608.189    -4422364.06549  -3440287.51949  20436610.2284   20436614.9244
  21361050.961   -12156728.77949  -9458259.36249  21361051.2884   21361057.3704
  21078934.214     5851812.49849   4561551.67849  21078936.6664   21078942.8944
  24514660.437    -1223474.11849   -948413.63449  24514660.4874   24514669.0634
 96  2  6 18 11 29.9990000  0  6 22 19 29 18 14  4
  21638160.812     1213741.26549    952802.70349  21638162.5224   21638168.0004
  22915957.856    -9965901.58749  -7732589.60949  22915959.9664   22915966.8964
  20435866.649    -4426254.46349  -3443319.00449  20435869.8304   20435874.4434
  21349761.559   -12216046.54749  -9504480.99449  21349763.9124   21349769.7914
  21093861.241     5930253.49449   4622674.51449  21093863.0934   21093869.7624
  24521171.082    -1189277.12049   -921766.64949  24521168.1254   24521176.7394
 96  2  6 18 11 59.9990000  0  6 22 19 29 18 14  4
  21649696.722     1274361.69249   1000039.38549  21649698.2694   21649703.9914
  22902527.519   -10036445.60249  -7787558.95649  22902535.4934   22902542.7674
  20435178.157    -4429873.45349  -3446138.99949  20435181.1084   20435185.8214
  21338499.206   -12275229.45149  -9550597.53149  21338501.3494   21338507.7764
  21108866.853     6009109.40949   4684120.66249  21108868.9554   21108875.2764
  24527744.687    -1154690.77649   -894816.26549  24527750.5064   24527757.4194
 96  2  6 18 12 29.9990000  0  6 22 19 29 18 14  4
  21661337.793     1335536.32349   1047707.91749  21661339.1544   21661344.8944
  22889158.007   -10106752.36249  -7842343.43849  22889157.0534   22889163.0644
  20434549.265    -4433181.05949  -3448716.35749  20434551.6704   20434556.3824
  21327268.797   -12334240.21349  -9596579.93549  21327272.3744   21327278.2154
  21123959.253     6088422.16249   4745922.78649  21123961.7684   21123968.1634
  24534405.394    -1119686.86949   -867540.53449  24534411.2424   24534418.2214
 96  2  6 18 12 59.9990000  0  6 22 19 29 18 14  4
  21673078.410     1397232.17149   1095782.59749  21673079.6544   21673085.4094
  22875815.488   -10176848.58749  -7896963.85349  22875818.2794   22875825.6394
  20433972.443    -4436210.32249  -3451076.82849  20433975.2784   20433980.0034
  21316072.613   -12393087.96149  -9642435.31049  21316074.0774   21316080.1374
  21139131.825     6168152.31849   4808050.16249  21139133.7084   21139140.3864
  24541148.817    -1084292.58149   -839960.60149  24541146.2534   24541152.9554
 96  2  6 18 13 29.9990000  0  6 22 19 29 18 14  4
  21684914.633     1459438.82149   1144255.30249  21684917.1194   21684922.8234
  22862510.916   -10246750.92649  -7951433.18549  22862515.6254   22862523.2314
  20433448.008    -4438965.74049  -3453223.90849  20433450.8504   20433455.6484
  21304908.360   -12451757.74249  -9688152.01349  21304909.7864   21304915.4884
  21154385.188     6248307.38749   4870508.63549  21154386.8534   21154393.6374
  24547953.769    -1048500.19949   -812070.46249  24547958.3174   24547965.3334
 96  2  6 18 13 59.9990000  0  6 22 19 29 18 14  4
  21696847.778     1522142.88049   1193115.60349  21696849.2564   21696854.9504
  22849244.576   -10316467.83449  -8005758.02149  22849249.2124   22849256.8374
  20432975.832    -4441450.12349  -3455159.79149  20432978.1834   20432982.7824
  21293780.867   -12510231.11749  -9733715.67249  21293782.5604   21293788.2924
  21169717.907     6328886.36549   4933297.43149  21169720.3954   21169726.9884
  24554846.218    -1012314.17449   -783873.57449  24554843.8694   24554851.3624
 96  2  6 18 14 29.9990000  0  6 22 19 29 18 14  4
  21708870.154     1585322.48849   1242346.45849  21708871.9734   21708877.7414
  22836010.592   -10386025.97549  -8059959.14349  22836012.1834   22836020.2434
  20432552.762    -4443673.81749  -3456892.54249  20432555.1944   20432559.7044
  21282692.906   -12568501.83849  -9779121.41949  21282694.0394   21282699.8834
  21185130.392     6409873.50649   4996404.27449  21185132.0614   21185138.5174
  24561796.501     -975743.33849   -755376.86049  24561803.6344   24561811.0024
 96  2  6 18 14 59.9990000  0  6 22 19 29 18 14  4
  21720986.816     1648989.47249   1291957.08349  21720987.4364   21720993.0724
  22822804.210   -10455419.90749  -8114032.30349  22822807.5254   22822814.2444
  20432181.678    -4445623.83549  -3458412.04149  20432184.1404   20432188.6444
  21271641.486   -12626567.12749  -9824367.08849  21271644.4114   21271650.4404
  21200620.640     6491278.89949   5059837.02249  21200622.9464   21200629.3104
  24568839.659     -938775.71649   -726570.95649  24568838.3314   24568845.2604
 96  2  6 18 15 29.9990000  0  6 22 19 29 18 14  4
  21733193.221     1713139.48849   1341944.10449  21733194.7514   21733200.5664
  22809631.808   -10524637.63449  -8167968.16249  22809635.5814   22809642.6554
  20431867.136    -4447279.88349  -3459702.46449  20431868.8384   20431873.5064
  21260628.937   -12684437.71449  -9869461.03949  21260632.0254   21260637.9464
  21216194.839     6573121.43949   5123610.41549  21216196.9854   21216203.1414
  24575940.374     -901401.63649   -697448.33649  24575949.6814   24575956.0444
 96  2  6 18 15 59.9990000  0  6 22 19 29 18 14  4
  21745492.583     1777778.25449   1392311.97449  21745494.9564   21745500.6894
  22796500.339   -10593665.09049  -8221755.75749  22796500.2074   22796507.4214
  20431611.468    -4448620.21749  -3460746.88049  20431613.7134   20431618.5494
  21249652.642   -12742119.69949  -9914408.03349  21249655.5384   21249661.3674
  21231852.953     6655403.24649   5187726.08949  21231854.7164   21231861.0824
  24583144.835     -863609.89549   -668000.25349  24583141.0854   24583149.0004
 96  2  6 18 16 29.9990000  0  6 22 19 29 18 14  4
  21757888.458     1842915.06849   1443067.92649  21757889.9114   21757895.9744
  22783400.580   -10662504.30349  -8275396.66649  22783400.3354   22783408.0904
  20431414.900    -4449650.77649  -3461549.91649  20431417.7344   20431422.3584
  21238709.420   -12799628.45249  -9959220.04149  21238712.0514   21238717.6424
  21247594.416     6738123.20249   5252183.17849  21247596.0844   21247602.2424
  24590409.676     -825394.01249   -638221.68049  24590413.9754   24590420.8254
 96  2  6 18 16 59.9990000  0  6 22 19 29 18 14  4
  21770379.887     1908559.21349   1494219.20249  21770381.9934   21770387.6404
  22770334.463   -10731145.61849  -8328883.37349  22770338.1724   22770345.4224
  20431279.217    -4450367.87749  -3462108.69549  20431281.3004   20431285.9514
  21227797.380   -12856970.71749 -10003902.31449  21227800.0184   21227806.0954
  21263418.297     6821282.04349   5316982.25349  21263420.3774   21263426.6594
  24597771.772     -786748.12749   -608108.02549  24597768.3124   24597775.3384
 96  2  6 18 17 29.9990000  0  6 22 19 29 18 14  4
  21782963.967     1974691.35949   1545750.73849  21782966.2674   21782971.7514
  22757310.343   -10799602.68449  -8382226.51049  22757311.5844   22757318.9894
  20431198.600    -4450794.09149  -3462440.81149  20431200.2044   20431204.7644
  21216917.502   -12914145.27849 -10048453.91449  21216920.0504   21216925.8794
  21279322.741     6904861.60349   5382109.16849  21279325.2164   21279331.3344
  24605191.633     -747696.26049   -577678.01649  24605198.5094   24605205.8814
 96  2  6 18 17 59.9990000  0  6 22 19 29 18 14  4
  21795643.730     2041310.80149   1597661.97949  21795643.7214   21795649.1714
  22744321.391   -10867879.77049  -8435429.40549  22744318.5874   22744326.3844
  20431170.256    -4450942.65749  -3462556.58249  20431172.1494   20431176.6904
  21206074.987   -12971135.91649 -10092862.19349  21206075.1554   21206081.1854
  21295307.438     6988857.87449   5447560.78549  21295309.2254   21295315.6004
  24612710.526     -708259.27249   -546947.94449  24612702.9224   24612710.6724
 96  2  6 18 18 29.9990000  0  6 22 19 29 18 14  4
  21808412.918     2108421.24649   1649955.82949  21808414.3264   21808419.7824
  22731361.488   -10935963.02049  -8488481.26249  22731363.1194   22731370.0124
  20431196.198    -4450806.12849  -3462450.19549  20431197.9684   20431202.5994
  21195268.060   -13027916.30349 -10137106.64449  21195270.4604   21195276.2024
  21311371.091     7073272.77949   5513338.61949  21311372.7624   21311378.9284
  24620268.338     -668437.35349   -515917.92249  24620282.5334   24620288.3154
 96  2  6 18 18 59.9990000  0  6 22 19 29 18 14  4
  21821272.347     2176001.53749   1702615.78749  21821274.4094   21821279.6494
  22718443.543   -11003844.25249  -8541375.71049  22718445.4134   22718452.6234
  20431276.520    -4450374.57849  -3462113.92649  20431279.8624   20431284.3044
  21184506.050   -13084477.12249 -10181179.99849  21184507.2024   21184512.9504
  21327512.745     7158105.91749   5579442.34449  21327516.1984   21327522.5684
  24627930.185     -628247.05249   -484600.82549  24627929.5984   24627937.4524
 96  2  6 18 19 29.9990000  0  6 22 19 29 18 14  4
  21834219.545     2244042.02049   1755634.33049  21834222.2684   21834227.5974
  22705561.406   -11071519.41549  -8594109.57549  22705567.0414   22705574.7324
  20431412.891    -4449658.05849  -3461555.60949  20431416.2754   20431420.9244
  21173786.001   -13140810.14549 -10225075.86249  21173787.5694   21173793.3704
  21343738.654     7243365.79049   5645878.59549  21343740.2594   21343746.8304
  24635641.961     -587695.05849   -453001.88149  24635645.8524   24635654.3504
 96  2  6 18 19 59.9990000  0  6 22 19 29 18 14  4
  21847257.145     2312550.68449   1809017.69449  21847259.0504   21847264.5814
  22692725.419   -11138988.03849  -8646682.50649  22692728.3884   22692735.6984
  20431605.508    -4448654.70449  -3460773.77549  20431607.3124   20431612.0114
  21163108.350   -13196919.79849 -10268797.65949  21163109.9624   21163116.0084
  21360042.287     7329045.71749   5712642.16049  21360044.4764   21360051.2144
  24643430.173     -546775.94849   -421116.89449  24643432.1924   24643440.7534
 96  2  6 18 20 29.9990000  0  6 22 19 29 18 14  4
  21860380.496     2381515.46149   1862756.46649  21860382.6574   21860388.1054
  22679923.468   -11206268.03149  -8699108.45649  22679925.4394   22679932.8814
  20431848.335    -4447375.36649  -3459776.89149  20431850.4444   20431855.3904
  21152472.302   -13252813.32449 -10312351.05449  21152473.7864   21152479.6034
  21376422.397     7415119.94849   5779712.97149  21376424.2004   21376430.5784
  24651282.385     -505496.17249   -388950.84549  24651289.6204   24651295.9414
 96  2  6 18 20 59.9990000  0  6 22 19 29 18 14  4
  21873596.195     2450952.56249   1916863.28549  21873595.9624   21873601.8964
  22667158.509   -11273360.51849  -8751388.29649  22667158.0514   22667165.3124
  20432144.705    -4445816.61549  -3458562.28549  20432147.4344   20432152.0504
  21141877.959   -13308488.93249 -10355734.64149  21141878.7374   21141884.7914
  21392878.302     7501592.62949   5847094.26749  21392879.1874   21392885.7534
  24659213.669     -463848.73649   -356498.32549  24659213.7644   24659221.1394
 96  2  6 18 21 29.9990000  0  6 22 19 29 18 14  4
  21886900.435     2520880.81149   1971352.81549  21886902.7794   21886908.7654
  22654418.021   -11340276.05949  -8803530.25049  22654424.5524   22654431.3924
  20432496.525    -4443973.00149  -3457125.70949  20432498.1594   20432502.7504
  21131324.038   -13363951.13649 -10398951.93949  21131324.9434   21131330.8734
  21409405.759     7588448.24149   5914773.94649  21409407.5104   21409413.8774
  24667209.758     -421819.47949   -323748.29549  24667211.3604   24667219.3874
 96  2  6 18 21 59.9990000  0  6 22 19 29 18 14  4
  21900298.246     2591287.06649   2026214.81049  21900300.9974   21900306.3574
  22641724.017   -11407020.00049  -8855538.48949  22641723.4684   22641730.8234
  20432901.327    -4441840.34249  -3455463.90349  20432904.0684   20432908.6834
  21120805.824   -13419212.42549 -10442012.68149  21120809.0164   21120815.0994
  21425999.616     7675654.35749   5982726.74549  21426002.2994   21426008.7024
  24675272.689     -379410.53749   -290702.39049  24675281.5724   24675289.2154
 96  2  6 18 22 29.9990000  0  6 22 19 29 18 14  4
  21913787.339     2662168.82549   2081447.32949  21913789.0384   21913794.8144
  22629054.882   -11473589.15249  -8907410.52349  22629055.6364   22629062.9644
  20433366.840    -4439395.53249  -3453558.85649  20433369.2784   20433373.7844
  21110328.685   -13474274.82449 -10484918.44149  21110331.2244   21110337.2124
  21442664.105     7763222.44549   6050961.60549  21442665.6904   21442672.1274
  24683427.606     -336612.27649   -257353.12349  24683426.2854   24683434.0664
 96  2  6 18 22 59.9990000  0  6 22 19 29 18 14  4
  21927363.456     2733510.78349   2137038.45249  21927364.7534   21927370.7564
  22616419.307   -11539980.35149  -8959143.89849  22616422.3074   22616429.6004
  20433892.767    -4436632.18549  -3451405.60649  20433894.9724   20433899.6144
  21099885.812   -13529153.30649 -10527680.88449  21099887.8584   21099894.1324
  21459398.269     7851165.94049   6119488.99149  21459401.0044   21459407.6604
  24691640.670     -293425.07449   -223700.79149  24691645.5664   24691650.4364
 96  2  6 18 23 29.9990000  0  6 22 19 29 18 14  4
  21941025.627     2805308.75349   2192984.89549  21941027.7674   21941033.1794
  22603824.255   -11606179.72449  -9010727.79149  22603824.9074   22603831.9164
  20434480.572    -4433545.67949  -3449000.53849  20434482.6014   20434487.3474
  21089480.560   -13583832.20949 -10570287.81449  21089482.8014   21089488.8254
  21476208.264     7939503.82749   6188323.68449  21476211.1364   21476217.5634
  24699936.209     -249847.62349   -189744.37849  24699937.3314   24699943.6684
 96  2  6 18 23 59.9990000  0  6 22 19 29 18 14  4
  21954770.669     2877544.59349   2249272.54949  21954773.7764   21954779.6854
  22591260.153   -11672194.59049  -9062167.91649  22591262.5924   22591269.9054
  20435127.415    -4430148.70249  -3446353.55049  20435129.0694   20435133.4924
  21079117.304   -13638302.72249 -10612732.36149  21079117.6514   21079123.3724
  21493095.021     8028242.06649   6257470.35249  21493097.7994   21493103.9474
  24708294.067     -205890.95949   -155492.45449  24708302.3634   24708309.5004
 96  2  6 18 24 29.9990000  0  6 22 19 29 18 14  4
  21968598.427     2950202.51449   2305889.09049  21968600.1964   21968606.0794
  22578723.998   -11738058.59949  -9113490.49449  22578728.9714   22578736.2154
  20435828.517    -4426464.02749  -3443482.37949  20435830.1704   20435834.6714
  21068788.965   -13692574.99749 -10655022.43649  21068789.6544   21068795.7304
  21510057.365     8117377.51049   6326926.53149  21510059.1014   21510065.3984
  24716731.225     -161588.99449   -120971.46049  24716731.9864   24716741.3074
 96  2  6 18 24 59.9990000  0  6 22 19 29 18 14  4
  21982509.472     3023313.37049   2362858.57249  21982513.1094   21982518.3964
  22566227.092   -11803742.60949  -9164672.80349  22566230.1644   22566236.4284
  20436583.444    -4422489.24349  -3440385.15549  20436586.5664   20436590.9704
  21058504.217   -13746614.04749 -10697130.78449  21058506.4324   21058512.4594
  21527097.759     8206927.94849   6396706.07749  21527100.2144   21527106.7264
  24725226.729     -116934.50249    -86175.79349  24725228.4804   24725236.4704
 96  2  6 18 25 29.9990000  0  6 22 19 29 18 14  4
  21996517.560     3096909.02249   2420205.81149  21996517.6894   21996523.6434
  22553764.082   -11869231.75949  -9215703.27949  22553767.6524   22553774.9024
  20437396.250    -4418216.52849  -3437055.76749  20437399.7204   20437404.2274
  21048272.936   -13800391.62249 -10739035.37949  21048272.9364   21048278.9484
  21544216.738     8296890.47949   6466806.73649  21544219.5494   21544226.0894
  24733793.435      -71918.08049    -51098.08349  24733797.1144   24733802.7984
 96  2  6 18 25 59.9990000  0  6 22 19 29 18 14  4
  22010609.551     3170967.95649   2477914.05949  22010610.4644   22010615.8864
  22541340.377   -11934537.59049  -9266590.91949  22541339.9984   22541347.3704
  20438268.582    -4413645.95249  -3433494.27749  20438269.7034   20438273.9754
  21038083.925   -13853924.13949 -10780749.02949  21038086.0954   21038091.7804
  21561408.518     8387227.86549   6537199.49049  21561410.0484   21561416.8694
  24742426.738      -26553.38149    -15748.99949  24742429.1284   24742433.0224
 96  2  6 18 26 29.9990000  0  7 22 19 28 29 18 14  4
  22024790.154     3245491.35049   2535984.21849  22024791.6994   22024797.4934
  22528946.910   -11999639.52649  -9317319.67149  22528951.8934   22528959.1444
  24728762.438    -3398804.63519  -2639620.28619  24728764.294    24728769.470
  20439191.444    -4408782.68149  -3429704.72049  20439194.9024   20439199.4654
  21027942.071   -13907220.12149 -10822278.36349  21027944.1294   21027949.9054
  21578669.639     8477935.35949   6607880.63749  21578670.9594   21578677.8094
  24751118.884       19145.51849     19860.52249  24751123.0724   24751132.0534
 96  2  6 18 26 59.9990000  0  6 22 19 28 29 18 14
  22039061.522     3320472.13049   2594410.79149  22039060.3504   22039065.8434
  22516597.602   -12064531.09549  -9367884.50549  22516602.9784   22516610.3704
  24715853.226    -3466632.526 9  -2692473.195 9  24715854.848    24715861.864
  20440172.395    -4403628.87249  -3425688.76949  20440175.2514   20440179.9124
  21017844.326   -13960286.69449 -10863628.92249  21017845.6404   21017851.6534
  21595996.759     8568997.83749   6678838.39449  21595999.7334   21596006.6234
 96  2  6 18 27 29.9990000  0  6 22 19 28 29 18 14
  22053412.468     3395903.24249   2653188.27149  22053414.1124   22053419.9574
  22504297.868   -12129197.05449  -9418273.54249  22504297.8344   22504304.5964
  24702974.398    -3534333.222 9  -2745226.976 9  24702973.361    24702980.338
  20441215.365    -4398151.15649  -3421420.41649  20441217.9764   20441222.4264
  21007794.463   -14013102.85549 -10904784.36749  21007795.3124   21007801.1214
  21613394.996     8660424.81049   6750080.17049  21613397.4404   21613404.6764
 96  2  6 18 27 59.9990000  0  6 22 19 28 29 18 14
  22067847.272     3471747.44049   2712287.63349  22067846.5944   22067852.5644
  22492027.151   -12193669.63949  -9468511.89749  22492029.0164   22492035.7324
  24690108.483    -3601936.571 9  -2797904.900 9  24690108.612    24690113.634
  20442314.427    -4392379.17449  -3416922.77149  20442316.3204   20442321.1304
  20997782.248   -14065711.48249 -10945778.09849  20997784.2664   20997789.7604
  21630858.120     8752190.58649   6821585.95149  21630859.9424   21630866.9394
 96  2  6 18 28 29.9990000  0  6 22 19 28 29 18 14
  22082361.691     3548034.01949   2771731.71049  22082363.7534   22082369.4944
  22479796.786   -12257929.34149  -9518584.37049  22479800.5504   22479807.7974
  24677262.721    -3669414.391 9  -2850485.018 9  24677266.894    24677275.852
  20443470.262    -4386294.38549  -3412181.37649  20443473.9214   20443478.8674
  20987815.899   -14118091.32049 -10986593.54749  20987816.7464   20987822.7284
  21648392.686     8844336.41449   6893387.87049  21648394.9604   21648401.9514
 96  2  6 18 28 59.9990000  0  6 22 19 28 29 18 14
  22096956.017     3624723.77649   2831489.95149  22096957.2464   22096963.0294
  22467604.653   -12322009.86349  -9568517.22649  22467606.6164   22467613.3824
  24664446.195    -3736778.149 9  -2902976.242 9  24664448.396    24664453.733
  20444689.909    -4379890.47849  -3407191.31949  20444692.8744   20444697.4574
  20977889.909   -14170250.05449 -11027236.70649  20977891.0364   20977896.6644
  21665996.919     8936847.23049   6965474.19649  21665998.9314   21666006.1534
 96  2  6 18 29 29.9990000  0  6 22 19 28 29 18 14
  22111628.470     3701830.96849   2891573.46549  22111630.3114   22111636.4484
  22455450.832   -12385888.80249  -9618293.01049  22455450.7814   22455458.0844
  24651655.759    -3804008.208 9  -2955363.249 9  24651656.088    24651663.362
  20445972.722    -4373145.03649  -3401935.13049  20445976.3004   20445981.0044
  20968009.732   -14222168.06649 -11067692.29549  20968011.5344   20968017.2064
  21683673.976     9029743.15849   7037860.60649  21683676.8344   21683684.0984
 96  2  6 18 29 59.9990000  0  6 22 19 28 29 18 14
  22126377.961     3779344.81749   2951973.85749  22126380.9964   22126386.4424
  22443327.587   -12449585.15849  -9667926.51249  22443329.5324   22443336.6374
  24638886.093    -3871120.999 9  -3007658.877 9  24638886.475    24638893.755
  20447317.281    -4366083.58249  -3396432.70349  20447320.1974   20447324.6404
  20958169.036   -14273877.71249 -11107985.52049  20958171.4724   20958177.4724
  21701421.916     9123004.69449   7110531.91249  21701423.7644   21701430.9644
 96  2  6 18 30 29.9990000  0  6 22 19 28 29 18 14
  22141208.519     3857263.44249   3012689.65749  22141208.7794   22141214.4284
  22431238.862   -12513091.42449  -9717411.89149  22431244.6984   22431251.7364
  24626132.992    -3938099.235 9  -3059849.793 9  24626136.874    24626147.408
  20448725.793    -4358687.51049  -3390669.52749  20448727.6384   20448732.6754
  20948372.006   -14325361.48849 -11148102.74149  20948374.7214   20948380.3054
  21719238.740     9216638.51549   7183493.30649  21719241.5324   21719248.8834
 96  2  6 18 30 59.9990000  0  6 22 19 28 29 18 14
  22156111.742     3935585.52249   3073719.84049  22156112.4394   22156118.4504
  22419193.826   -12576407.55849  -9766749.12849  22419196.2604   22419203.0744
  24613413.803    -4004945.466 9  -3111937.689 9  24613419.245    24613425.047
  20450194.675    -4350962.78149  -3384650.26049  20450197.5814   20450202.4384
  20938617.549   -14376620.53549 -11188044.85749  20938620.3734   20938626.0354
  21737124.253     9310619.13249   7256724.93049  21737126.0264   21737132.5974
 96  2  6 18 31 29.9990000  0  6 22 19 28 29 18 14
  22171097.060     4014343.68449   3135089.82349  22171099.9894   22171105.6954
  22407184.783   -12639515.43449  -9815924.07849  22407187.0724   22407194.4254
  24600727.177    -4071652.212 9  -3163917.045 9  24600727.209    24600730.403
  20451725.809    -4342919.48049  -3378382.75849  20451728.1564   20451732.8824
  20928907.277   -14427654.34649 -11227811.45649  20928908.9244   20928914.6924
  21755070.727     9404930.15149   7330214.00349  21755072.6114   21755079.0104
 96  2  6 18 31 59.9990000  0  6 22 19 28 29 18 14
  22186169.161     4093535.41449   3196797.65249  22186169.3964   22186175.4724
  22395215.974   -12702420.89949  -9864941.30349  22395216.5484   22395223.9384
  24588057.638    -4138215.431 9  -3215784.439 9  24588059.950    24588065.036
  20453317.641    -4334554.82349  -3371864.85049  20453320.0154   20453324.7884
  20919238.157   -14478462.79149 -11267402.44249  20919240.0624   20919246.3574
  21773080.834     9499572.68449   7403961.40749  21773082.8134   21773089.3884
 96  2  6 18 32 29.9990000  0  6 22 19 28 29 18 14
  22201317.071     4173152.22349   3258836.72049  22201320.0194   22201325.8904
  22383284.980   -12765133.04149  -9913807.89049  22383282.6364   22383289.8694
  24575417.282    -4204639.462 9  -3267543.408 9  24575417.704    24575424.709
  20454971.279    -4325865.29249  -3365093.78749  20454973.7794   20454978.4394
  20909616.203   -14529034.23449 -11306808.76049  20909616.7374   20909622.7924
  21791151.317     9594538.33449   7477960.59449  21791153.8864   21791160.3324
 96  2  6 18 32 59.9990000  0  6 22 19 28 29 18 14
  22216547.599     4253182.06849   3321197.62749  22216549.3464   22216555.0594
  22371382.420   -12827654.79649  -9962526.11449  22371385.2574   22371392.5694
  24562803.105    -4270935.629 9  -3319202.688 9  24562802.428    24562810.304
  20456682.741    -4316869.78549  -3358084.30549  20456685.3164   20456690.1954
  20900032.729   -14579375.39749 -11346035.63549  20900037.2424   20900043.1414
  21809280.635     9689809.69849   7552197.99749  21809283.6394   21809289.7864
 96  2  6 18 33 29.9990000  0  6 22 19 28 29 18 14
  22231854.693     4333621.07649   3383877.35449  22231856.0844   22231862.2414
  22359520.466   -12889982.79149 -10011093.35649  22359525.0024   22359531.4684
  24550214.767    -4337090.495 9  -3370751.871 9  24550213.772    24550220.027
  20458454.271    -4307558.76949  -3350828.97049  20458457.2924   20458462.0654
  20890498.875   -14629478.92949 -11385077.33949  20890502.8794   20890508.7924
  21827473.368     9785413.41649   7626694.38249  21827475.9764   21827482.8264
 96  2  6 18 33 59.9990000  0  6 22 19 28 29 18 14
  22247235.020     4414446.99749   3446858.57449  22247237.1494   22247243.2504
  22347697.662   -12952122.99049 -10059514.26449  22347700.0824   22347706.8654
  24537649.534    -4403104.156 9  -3422191.034 9  24537651.483    24537660.636
  20460286.992    -4297931.39849  -3343327.12649  20460289.0364   20460294.0284
  20881012.618   -14679338.38549 -11423928.85849  20881014.8624   20881020.8584
  21845733.647     9881367.04349   7701463.41949  21845735.3564   21845742.1704
 96  2  6 18 34 29.9990000  0  6 22 19 28 29 18 14
  22262694.265     4495673.53949   3510151.95849  22262693.7294   22262699.6584
  22335910.353   -13014063.19249 -10107779.32549  22335913.0984   22335920.5154
  24525110.530    -4468966.262 9  -3473512.043 9  24525119.572    24525125.437
  20462178.978    -4287987.43449  -3335578.58849  20462181.3804   20462186.5714
  20871577.251   -14728934.27049 -11462574.99749  20871577.1064   20871582.9914
  21864058.493     9977665.39549   7776501.07549  21864060.4894   21864067.3644
 96  2  6 18 34 59.9990000  0  6 22 19 28 29 18 14
  22278223.125     4577300.10049   3573757.05049  22278226.7024   22278232.7274
  22324162.966   -13075802.49149 -10155887.84249  22324164.1084   22324171.5704
  24512611.639    -4534669.634 9  -3524709.356 9  24512615.114    24512623.544
  20464129.269    -4277733.27149  -3327588.34249  20464132.7584   20464137.6934
  20862186.778   -14778268.79549 -11501017.48149  20862189.0934   20862195.0014
  21882450.457    10074314.02449   7851811.66849  21882452.0064   21882459.2504
 96  2  6 18 35 29.9990000  0  6 22 19 28 29 18 14
  22293834.380     4659325.73549   3637673.10749  22293835.9384   22293842.0374
  22312449.151   -13137358.27749 -10203853.35949  22312450.8384   22312458.0104
  24500144.968    -4600218.760 9  -3575786.492 9  24500140.654    24500147.612
  20466138.490    -4267175.03549  -3319361.14349  20466141.6684   20466146.7514
  20852847.835   -14827342.25349 -11539256.53249  20852850.6094   20852856.3294
  21900906.975    10171302.19849   7927386.84249  21900908.6804   21900915.2524
 96  2  6 18 35 59.9990000  0  6 22 19 28 29 18 14
  22309519.979     4741756.65449   3701904.97049  22309521.8204   22309527.6054
  22300769.587   -13198725.25849 -10251671.75549  22300772.7154   22300780.0474
  24487694.372    -4665612.573 9  -3626742.635 9  24487697.578    24487704.149
  20468207.009    -4256311.07649  -3310895.72549  20468209.2644   20468214.1204
  20843564.932   -14876132.19449 -11577274.66949  20843566.5124   20843571.8294
  21919423.005    10268614.59549   8003214.66549  21919426.5044   21919433.1024
 96  2  6 18 36 29.9990000  0  6 22 19 28 29 18 14
  22325287.192     4824620.10949   3766473.87049  22325290.2114   22325296.0774
  22289131.022   -13259888.45249 -10299331.36349  22289134.0334   22289140.6234
  24475279.958    -4730830.333 9  -3677561.575 9  24475286.220    24475292.833
  20470337.352    -4245116.24349  -3302172.48649  20470339.6134   20470344.6424
  20834337.040   -14924620.49849 -11615057.76149  20834339.6384   20834345.1514
  21938007.315    10366268.25349   8079308.40049  21938009.4384   21938016.5354
 96  2  6 18 36 59.9990000  0  6 22 19 28 29 18 14
  22341134.273     4907893.86549   3831362.48049  22341136.5274   22341142.6654
  22277531.321   -13320858.77349 -10346840.68249  22277531.3834   22277538.8214
  24462905.462    -4795879.275 9  -3728248.975 9  24462908.327    24462914.389
  20472529.316    -4233595.80349  -3293195.52849  20472532.1014   20472536.9124
  20825164.302   -14972827.36749 -11652621.54749  20825165.6464   20825171.5864
  21956654.609    10464258.35749   8155664.29849  21956656.4174   21956663.3274
 96  2  6 18 37 29.9990000  0  6 22 19 28 29 18 14
  22357057.565     4991579.32449   3896571.90549  22357061.2474   22357067.2944
  22265963.598   -13381624.46549 -10394190.55449  22265968.4734   22265975.4804
  24450560.299    -4860755.843 9  -3778802.038 9  24450562.291    24450569.329
  20474783.882    -4221747.31049  -3283962.93949  20474786.7354   20474791.4354
  20816044.729   -15020753.18849 -11689966.34149  20816045.8114   20816051.6324
  21975362.098    10562569.27049   8232270.17749  21975364.2554   21975371.2164
 96  2  6 18 37 59.9990000  0  6 22 19 28 29 18 14
  22373061.455     5075663.25049   3962091.81649  22373062.2874   22373067.9404
  22254440.500   -13442185.71349 -10441381.11549  22254444.1794   22254451.2134
  24438249.705    -4925456.430 9  -3829217.969 9  24438251.016    24438257.561
  20477103.843    -4209560.32049  -3274466.58749  20477105.7854   20477110.6294
  20806973.390   -15068418.22149 -11727107.92149  20806975.5564   20806981.4404
  21994132.958    10661203.05649   8309127.64549  21994133.7444   21994140.6614
 96  2  6 18 38 29.9990000  0  6 22 19 28 29 18 14
  22389135.140     5160138.76749   4027916.86849  22389137.2294   22389143.3534
  22242955.523   -13502544.93049 -10488414.25349  22242958.5054   22242964.9854
  24425967.711    -4989972.495 9  -3879490.125 9  24425972.995    24425978.538
  20479489.636    -4197022.72449  -3264697.04149  20479491.6864   20479496.5544
  20797949.667   -15115847.59349 -11764065.86749  20797950.0494   20797955.8094
  22012959.865    10760155.70249   8386233.57049  22012963.7134   22012970.3124
 96  2  6 18 38 59.9990000  0  6 22 19 28 29 18 14
  22405282.867     5244994.07649   4094037.86549  22405285.1594   22405290.4534
  22231510.066   -13562700.06849 -10535288.37649  22231510.8624   22231517.8684
  24413730.862    -5054300.005 9  -3929615.388 9  24413732.245    24413738.552
  20481941.658    -4184139.10249  -3254657.86249  20481943.4184   20481948.0884
  20788964.977   -15163043.59349 -11800841.96649  20788968.8064   20788974.8584
  22031848.188    10859402.91649   8463569.03449  22031850.2424   22031856.9504
 96  2  6 18 39 29.9990000  0  6 22 19 28 29 18 14
  22421499.286     5330215.42549   4160444.07949  22421501.7624   22421507.5884
  22220098.873   -13622659.07549 -10582009.65049  22220100.6234   22220107.8014
  24401516.486    -5118446.446 9  -3979599.547 9  24401524.775    24401532.047
  20484458.456    -4170908.61349  -3244348.39649  20484460.9174   20484465.7924
  20780030.568   -15210004.67749 -11837435.01149  20780032.4454   20780038.3814
  22050786.487    10958931.81049   8541123.98949  22050789.7724   22050796.6324
 96  2  6 18 39 59.9990000  0  6 22 19 28 29 18 14
  22437785.667     5415797.16449   4227131.12349  22437787.5064   22437793.7484
  22208723.671   -13682424.20049 -10628579.85349  22208727.8934   22208734.9494
  24389358.043    -5182395.599 9  -4029429.996 9  24389356.275    24389362.797
  20487046.439    -4157311.64049  -3233753.35049  20487048.3874   20487053.3584
  20771143.183   -15256715.73949 -11873833.23649  20771143.8714   20771149.5794
  22069784.351    11058762.58749   8618914.17749  22069786.6414   22069794.0094
 96  2  6 18 40 29.9990000  0  6 22 19 28 29 18 14
  22454138.838     5501732.39349   4294093.60949  22454140.0824   22454146.0884
  22197390.669   -13741989.06449 -10674994.01249  22197393.2094   22197400.2014
  24377226.375    -5246154.334 9  -4079112.100 9  24377222.937    24377228.942
  20489698.208    -4143372.75249  -3222891.88749  20489700.9884   20489705.9344
  20762301.995   -15303168.01149 -11910029.81049  20762304.0054   20762309.6374
  22088834.867    11158875.05549   8696923.86349  22088837.5954   22088844.7614
 96  2  6 18 40 59.9990000  0  6 22 19 28 29 18 14
  22470556.413     5588013.09849   4361325.30349  22470559.3344   22470565.0134
  22186093.970   -13801358.03249 -10721255.52649  22186095.8864   22186102.7794
  24365123.188    -5309725.626 9  -4128648.079 9  24365126.675    24365133.168
  20492414.445    -4129098.19249  -3211768.85649  20492417.3554   20492422.4434
  20753514.015   -15349350.17949 -11946015.91649  20753515.8564   20753521.4614
  22107940.231    11259275.72149   8775158.11749  22107943.3834   22107950.1334
 96  2  6 18 41 29.9990000  0  6 22 19 28 29 18 14
  22487042.076     5674643.61849   4428829.59249  22487044.2174   22487050.2924
  22174831.491   -13860531.80449 -10767364.94249  22174835.3874   22174841.9034
  24353067.807    -5373096.528 9  -4178027.955 9  24353066.982    24353074.085
  20495196.973    -4114476.77749  -3200375.54749  20495199.6614   20495204.4024
  20744778.574   -15395243.18149 -11981776.69449  20744782.7874   20744788.5314
  22127105.730    11359990.50549   8853637.14049  22127108.2824   22127115.3094
 96  2  6 18 41 59.9990000  0  6 22 19 28 29 18 14
  22503596.695     5761632.69449   4496613.26149  22503597.8344   22503603.4074
  22163608.943   -13919523.96349 -10813332.84149  22163609.6034   22163616.4824
  24341037.187    -5436276.796 9  -4227259.279 9  24341043.669    24341051.280
  20498039.930    -4099534.37649  -3188732.12349  20498043.2454   20498047.8564
  20736100.744   -15440860.08949 -12017322.33449  20736102.0894   20736107.9724
  22146327.756    11461000.84549   8932346.46249  22146330.3354   22146336.8384
 96  2  6 18 42 29.9990000  0  6 22 19 28 29 18 14
  22520224.569     5849004.47649   4564695.14749  22520224.3584   22520230.2744
  22152417.134   -13978330.42849 -10859156.03849  22152419.2064   22152426.1734
  24329058.652    -5499264.306 9  -4276340.422 9  24329057.661    24329064.563
  20500946.051    -4084272.12949  -3176839.45949  20500947.3924   20500952.2554
  20727470.483   -15486200.47749 -12052652.50049  20727473.9074   20727479.7744
  22165606.644    11562305.73149   9011285.29949  22165608.4074   22165614.5394
 96  2  6 18 42 59.9990000  0  6 22 19 28 29 18 14
  22536926.129     5936787.58049   4633097.54749  22536929.0284   22536934.7474
  22141266.859   -14036933.50849 -10904820.75549  22141267.2364   22141273.9694
  24317117.552    -5562017.706 9  -4325239.126 9  24317116.363    24317122.650
  20503917.623    -4068649.02549  -3164665.62349  20503920.4264   20503925.3394
  20718905.524   -15531217.32749 -12087730.56149  20718907.6494   20718913.2284
  22184948.305    11663948.62949   9090487.51949  22184950.2244   22184956.6054
 96  2  6 18 43 30.0000000  0  6 22 19 28 29 18 14
  22553702.763     6024945.74249   4701792.19749  22553704.8684   22553710.8804
  22130142.292   -14095372.39049 -10950357.52749  22130146.8014   22130153.2564
  24305210.709    -5624581.208 9  -4373989.851 9  24305211.093    24305217.239
  20506947.527    -4052726.49749  -3152258.46149  20506950.2624   20506955.0264
  20710393.178   -15575957.83149 -12122593.29049  20710394.0114   20710399.7344
  22204341.980    11765875.10649   9169910.71649  22204346.1414   22204352.4684
 96  2  6 18 44  0.0000000  0  6 22 19 28 29 18 14
  22570554.272     6113490.68049   4770788.23349  22570554.5124   22570560.4414
  22119061.803   -14153617.31749 -10995743.16249  22119062.8764   22119069.5534
  24293343.308    -5686933.513 9  -4422576.020 9  24293345.188    24293352.571
  20510035.111    -4036499.96949  -3139614.41849  20510038.2034   20510042.6954
  20701930.961   -15620413.44049 -12157234.01949  20701934.1074   20701940.0264
  22223792.832    11868079.48649   9249550.47049  22223794.8454   22223801.6364
 96  2  6 18 44 30.0000000  0  6 22 19 28 29 18 14
  22587463.348     6202378.74049   4840051.64149  22587469.0844   22587475.2524
  22108007.881   -14211678.15649 -11040985.35249  22108014.2454   22108020.6744
  24281519.058    -5749081.693 9  -4471003.129 9  24281518.347    24281526.118
  20513181.366    -4019966.09549  -3126730.88949  20513184.3494   20513189.2434
  20693523.846   -15664595.00549 -12191661.20749  20693526.9624   20693532.5674
  22243292.935    11970559.87849   9329405.29149  22243296.2874   22243302.8034
 96  2  6 18 45  0.0000000  0  6 22 19 28 29 18 14
  22604446.912     6291594.47349   4909570.36749  22604446.6344   22604452.3674
  22097004.895   -14269535.93949 -11086069.31149  22097004.5624   22097011.1014
  24269731.960    -5811010.965 9  -4519259.666 9  24269734.498    24269741.219
  20516392.330    -4003098.03749  -3113586.95749  20516394.5424   20516399.1574
  20685172.930   -15708486.07049 -12225862.03249  20685174.5644   20685180.3414
  22262847.738    12073316.92949   9409475.69449  22262850.2274   22262857.3174
 96  2  6 18 45 30.0000000  0  6 22 19 28 29 18 14
  22621485.408     6381145.15749   4979350.10249  22621487.5834   22621493.3284
  22086030.403   -14327178.62749 -11130985.66749  22086035.2014   22086042.4204
  24257989.186    -5872718.420 9  -4567343.365 9  24257992.217    24257998.223
  20519666.796    -3985880.70249  -3100170.86549  20519670.5614   20519675.3534
  20676874.353   -15752095.71949 -12259843.56849  20676875.6224   20676881.7174
  22282452.791    12176344.54549   9489756.91849  22282455.5774   22282462.5594
 96  2  6 18 46  0.0000000  0  6 22 19 28 29 18 14
  22638582.303     6471001.04549   5049367.65749  22638586.6514   22638592.2634
  22075102.125   -14384628.83849 -11175752.04849  22075102.9734   22075109.7284
  24246287.748    -5934218.755 9  -4615265.669 9  24246288.577    24246295.065
  20523014.143    -3968300.51749  -3086472.02649  20523016.0884   20523020.5954
  20668623.860   -15795437.48949 -12293616.37649  20668627.9924   20668633.8914
  22302106.666    12279623.46749   9570233.97349  22302109.3524   22302115.9814
 96  2  6 18 46 30.0000000  0  7 22 19 28 29 27 18 14
  22655745.714     6561181.74849   5119638.31349  22655747.5674   22655753.0304
  22064211.454   -14441848.33849 -11220338.64449  22064214.6804   22064221.3394
  24234627.486    -5995478.940 9  -4663000.821 9  24234630.341    24234637.200
  20526437.454    -3950303.12949  -3072448.09849  20526440.8924   20526445.4674
  24974896.194     -719041.51459   -548139.35359  24974900.0684   24974908.0454
  20660436.381   -15838472.45049 -12327150.10549  20660438.6394   20660444.6164
  22321814.841    12383191.36549   9650936.20449  22321817.8444   22321824.2534
 96  2  6 18 47  0.0000000  0  7 22 19 28 29 27 18 14
  22672968.475     6651685.60349   5190160.77849  22672969.9974   22672975.8044
  22053363.898   -14498855.90149 -11264760.09549  22053366.1474   22053372.8044
  24223017.545    -6056509.532 9  -4710557.129 9  24223017.696    24223023.838
  20529936.467    -3931922.78449  -3058125.75349  20529938.3414   20529943.0814
  24959869.207     -798000.39849   -609665.75349  24959874.3824   24959882.4474
  20652304.418   -15881208.13049 -12360450.63449  20652306.4454   20652312.3104
  22341574.970    12487026.96149   9731847.02249  22341577.1864   22341584.2014
 96  2  6 18 47 30.0000000  0  7 22 19 28 29 27 18 14
  22690249.920     6742517.45849   5260938.82449  22690254.4014   22690259.9414
  22042555.782   -14555649.97949 -11309015.19249  22042558.4394   22042565.2274
  24211442.695    -6117310.348 9  -4757934.377 9  24211447.680    24211454.303
  20533500.584    -3913188.08949  -3043527.29849  20533503.6754   20533508.2084
  24944854.864     -876909.44249   -671153.30449  24944857.7804   24944866.4484
  20644231.800   -15923640.74949 -12393515.00749  20644231.8934   20644237.5504
  22361385.094    12591127.44149   9812964.24149  22361386.7164   22361393.3664
 96  2  6 18 48  0.0000000  0  7 22 19 28 29 27 18 14
  22707595.084     6833650.57649   5331951.61749  22707596.5004   22707602.4504
  22031788.015   -14612248.45449 -11353117.88449  22031788.2114   22031794.9254
  24199920.694    -6177895.799 9  -4805143.789 9  24199918.925    24199925.219
  20537130.816    -3894119.65749  -3028668.77949  20537132.1664   20537136.6494
  24929847.611     -955790.27349   -732618.85849  24929847.1954   24929855.6174
  20636209.474   -15965786.42949 -12426355.79549  20636211.9174   20636217.1574
  22381241.247    12695472.90549   9894272.36249  22381243.5234   22381249.2704
 96  2  6 18 48 30.0000000  0  7 22 19 28 29 27 18 14
  22724986.822     6925032.19149   5403158.02249  22724986.2674   22724991.9384
  22021037.762   -14668723.17549 -11397124.13449  22021041.5304   22021048.1884
  24188417.415    -6238322.526 9  -4852229.504 9  24188419.634    24188426.074
  20540806.093    -3874797.64449  -3013612.68649  20540808.9014   20540813.3724
  24914826.950    -1034704.58149   -794110.50249  24914831.0364   24914838.8684
  20628231.698   -16007708.66149 -12459022.47149  20628234.1864   20628239.5544
  22401132.546    12800004.74949   9975725.71049  22401134.6744   22401141.3424
 96  2  6 18 49  0.0000000  0  7 22 19 28 29 27 18 14
  22742435.524     7016749.05349   5474625.67849  22742439.2594   22742445.2184
  22010330.973   -14725011.92249 -11440985.48149  22010330.2494   22010336.4784
  24176963.210    -6298512.375 9  -4899130.693 9  24176965.828    24176971.887
  20544541.423    -3855171.85849  -2998319.87649  20544543.9754   20544548.2474
  24899825.580    -1113559.36049   -855555.78649  24899825.0614   24899834.1584
  20620310.913   -16049340.25149 -12491462.67749  20620312.0504   20620317.6654
  22421069.744    12904786.04649  10057373.44049  22421073.7894   22421081.2534
 96  2  6 18 49 30.0000000  0  7 22 19 28 29 27 18 14
  22759943.606     7108742.89849   5546309.17549  22759945.0794   22759950.8254
  21999639.472   -14781169.93449 -11484744.94349  21999643.2254   21999649.8134
  24165544.722    -6358521.496 9  -4945891.016 9  24165546.515    24165552.174
  20548326.698    -3835275.89949  -2982816.54049  20548329.9014   20548334.5534
  24884819.315    -1192421.92449   -917007.12349  24884817.6854   24884827.2024
  20612431.380   -16090748.61749 -12523728.92749  20612432.3854   20612438.0804
  22441048.402    13009759.90849  10139171.21649  22441049.5674   22441056.8544
 96  2  6 18 50  0.0000000  0  7 22 19 28 29 27 18 14
  22777504.638     7201031.30349   5618222.20049  22777506.8134   22777513.2674
  21988983.871   -14837192.38049 -11528398.77049  21988982.5404   21988989.4494
  24154165.034    -6418323.225 9  -4992489.758 9  24154166.707    24154172.841
  20552172.019    -3815075.75049  -2967076.16049  20552173.7774   20552178.5994
  24869811.829    -1271253.46249   -978434.27249  24869816.9224   24869825.7744
  20604597.079   -16131919.28749 -12555809.97349  20604597.8314   20604603.8124
  22461063.948    13114948.32649  10221136.19749  22461066.6714   22461073.1574
 96  2  6 18 50 30.0000000  0  7 22 19 28 29 27 18 14
  22795129.149     7293651.84349   5690394.02349  22795132.0084   22795137.8924
  21978352.350   -14893033.04649 -11571910.94549  21978356.6604   21978363.3494
  24142834.141    -6477866.812 9  -5038887.317 9  24142835.641    24142842.615
  20556081.145    -3794528.50349  -2951065.32049  20556083.9804   20556088.6044
  24854829.852    -1349993.17549  -1039789.87349  24854833.8754   24854842.5224
  20596815.087   -16172799.26349 -12587664.49849  20596818.4364   20596824.7774
  22481127.981    13220387.03149  10303296.19049  22481130.3494   22481137.1894
 96  2  6 18 51  0.0000000  0  7 22 19 28 29 27 18 14
  22812816.535     7386580.88349   5762806.22749  22812815.7914   22812822.1874
  21967764.385   -14948692.35549 -11615281.81449  21967765.1464   21967772.0474
  24131550.599    -6537163.741 9  -5085092.721 9  24131552.549    24131558.462
  20560056.601    -3773642.86549  -2934790.79649  20560058.2994   20560063.2284
  24839867.626    -1428652.15349  -1101082.52449  24839864.4914   24839873.5914
  20589092.093   -16213390.48649 -12619294.01849  20589094.6144   20589100.3174
  22501236.655    13326049.61149  10385630.63949  22501237.5974   22501244.4214
 96  2  6 18 51 30.0000000  0  7 22 19 28 29 27 18 14
  22830553.974     7479807.96349   5835450.67649  22830556.3354   22830562.8554
  21957204.133   -15004173.52449 -11658513.87249  21957207.4394   21957213.5744
  24120316.680    -6596215.840 9  -5131107.344 9  24120314.640    24120321.076
  20564097.052    -3752401.00049  -2918238.70449  20564100.5214   20564105.5854
  24824907.982    -1507243.10649  -1162322.18749  24824908.8964   24824917.5474
  20581424.579   -16253689.10149 -12650695.53849  20581426.1834   20581431.7754
  22521382.793    13431928.18949  10468133.39349  22521385.8154   22521392.2694
 96  2  6 18 52  0.0000000  0  8 22 19 28 29 27 31 18 14
  22848355.916     7573346.08749   5908337.49749  22848356.8784   22848362.8184
  21946680.972   -15059466.91949 -11701599.61049  21946685.1714   21946691.5444
  24109121.848    -6655013.017 9  -5176923.293 9  24109125.746    24109132.634
  20568209.435    -3730801.10749  -2901407.62649  20568211.0374   20568215.7624
  24809965.875    -1585747.98849  -1223494.78049  24809970.9864   24809978.8884
  24529977.584    -3567150.86359  -2378069.68959  24529980.4884   24529988.8724
  20573813.542   -16293673.14549 -12681851.93849  20573817.4894   20573823.1654
  22541574.937    13538032.46049  10550812.00949  22541576.7084   22541583.2544
 96  2  6 18 52 30.0000000  0  8 22 19 28 29 27 31 18 14
  22866216.597     7667210.13349   5981478.27749  22866217.9504   22866224.0224
  21936197.241   -15114558.97049 -11744528.45649  21936201.4894   21936208.0294
  24097985.475    -6713549.838 9  -5222536.396 9  24097987.039    24097992.480
  20572386.556    -3708838.26849  -2884293.73949  20572390.1824   20572395.0754
  24795035.095    -1664194.12649  -1284621.59349  24795042.9584   24795052.2784
  24513750.674    -3652424.78049  -2444516.92249  24513753.5814   24513760.9884
  20566267.041   -16333332.54149 -12712755.36649  20566270.4454   20566276.2144
  22561809.141    13644372.25749  10633674.13949  22561812.4324   22561819.2584
 96  2  6 18 53  0.0000000  0  8 22 19 28 29 27 31 18 14
  22884145.632     7761433.24649   6054898.86449  22884147.5924   22884154.2294
  21925759.257   -15169435.28949 -11787289.20949  21925758.7754   21925765.2334
  24086902.006    -6771808.096 9  -5267932.401 9  24086900.373    24086906.919
  20576639.183    -3686497.98649  -2866885.73049  20576641.0674   20576646.2944
  24780123.816    -1742583.92249  -1345704.49549  24780125.5404   24780133.8524
  24497524.725    -3737698.65349  -2510964.11049  24497526.0404   24497533.8994
  20558787.092   -16372649.46749 -12743391.93349  20558788.4334   20558794.2554
  22582094.475    13750969.31049  10716736.74949  22582096.9404   22582103.6684
 96  2  6 18 53 30.0000000  0  8 22 19 28 29 27 31 18 14
  22902136.809     7855986.31649   6128576.55649  22902140.7204   22902148.0984
  21915351.611   -15224110.01749 -11829892.86749  21915354.7774   21915361.2224
  24075861.158    -6829798.556 9  -5313119.759 9  24075864.834    24075872.238
  20580959.177    -3663787.77149  -2849189.47449  20580962.8274   20580968.1214
  24765213.829    -1820926.03549  -1406750.24649  24765216.6324   24765226.6484
  24481295.143    -3822988.88349  -2577424.04749  24481296.4354   24481302.6914
  20551368.016   -16411634.21549 -12773769.66049  20551370.2414   20551376.0064
  22602424.856    13857808.89649  10799988.33649  22602428.6454   22602435.7314
 96  2  6 18 54  0.0000000  0  8 22 19 28 29 27 31 18 14
  22920191.226     7950855.94749   6202500.91849  22920193.7794   22920200.6214
  21904986.678   -15278581.11149 -11872337.85049  21904989.2014   21904996.1414
  24064881.330    -6887518.464 9  -5358096.309 9  24064880.866    24064888.337
  20585349.718    -3640723.07549  -2831216.99149  20585351.8314   20585357.0714
  24750312.973    -1899222.95049  -1467760.77749  24750318.4644   24750327.1284
  24465057.617    -3908301.72849  -2643901.51849  24465060.6804   24465067.4884
  20544013.224   -16450282.22049 -12803884.98949  20544015.4064   20544020.9904
  22622802.373    13964886.29349  10883425.22549  22622804.4944   22622811.2644
 96  2  6 18 54 30.0000000  0  8 22 19 28 29 27 31 18 14
  22938297.885     8046006.58749   6276644.24349  22938300.8884   22938307.0234
  21894659.890   -15332863.14549 -11914635.51449  21894659.5494   21894666.2244
  24053945.853    -6944971.738 9  -5402865.054 9  24053948.323    24053954.413
  20589802.556    -3617319.71749  -2812980.62949  20589805.3684   20589810.7624
  24735420.938    -1977482.78549  -1528742.41749  24735426.3094   24735434.2594
  24448820.523    -3993647.97549  -2710404.99549  24448823.0214   24448824.6084
  20536719.054   -16488610.79049 -12833751.41049  20536722.0254   20536727.8694
  22643216.061    14072169.30549  10967022.34049  22643219.2614   22643226.8694
 96  2  6 18 55  0.0000000  0  8 22 19 28 29 27 31 18 14
  22956455.827     8141415.37349   6350988.72949  22956456.2324   22956462.4254
  21884365.588   -15386941.71249 -11956774.63249  21884368.8704   21884375.4964
  24043066.939    -7002149.481 9  -5447419.113 9  24043068.607    24043074.547
  20594323.533    -3593568.00449  -2794472.81549  20594325.1044   20594330.5794
  24720541.676    -2055676.45749  -1589672.49749  24720545.5664   24720554.1734
  24432570.030    -4079013.97149  -2776923.88749  24432575.5664   24432580.6374
  20529484.667   -16526623.22649 -12863371.49249  20529488.4674   20529494.2774
  22663670.845    14179648.33649  11050772.19849  22663671.9264   22663679.7374
 96  2  6 18 55 30.0000000  0  8 22 19 28 29 27 31 18 14
  22974656.458     8237060.50849   6425517.37349  22974657.0134   22974663.1724
  21874115.468   -15440815.23149 -11998753.97149  21874117.1784   21874123.7974
  24032239.409    -7059054.537 9  -5491760.681 9  24032239.069    24032245.617
  20598907.038    -3569471.68249  -2775696.47749  20598910.4584   20598915.6834
  24705679.530    -2133798.58849  -1650546.83449  24705680.0024   24705687.9474
  24416319.983    -4164407.84249  -2843464.51549  24416326.1744   24416332.4374
  20522308.019   -16564337.99949 -12892759.62549  20522311.5174   20522317.3554
  22684160.518    14287326.31749  11134677.07049  22684162.9454   22684170.3874
 96  2  6 18 56  0.0000000  0  8 22 19 28 29 27 31 18 14
  22992901.317     8332963.57549   6500247.01449  22992906.4254   22992912.9144
  21863899.644   -15494480.89449 -12040571.34149  21863904.6564   21863911.7544
  24021463.425    -7115678.853 9  -5535883.508 9  24021463.678    24021470.595
  20603558.570    -3545034.04449  -2756654.18149  20603561.0954   20603566.0844
  24690818.540    -2211856.42449  -1711371.08649  24690825.8234   24690833.9284
  24400071.776    -4249819.54249  -2910018.95649  24400072.8784   24400079.7124
  20515188.684   -16601761.28549 -12921920.63149  20515190.2854   20515196.0394
  22704689.972    14395209.43049  11218741.79449  22704692.6134   22704699.6984
 96  2  6 18 56 30.0000000  0  8 22 19 28 29 27 31 18 14
  23011204.808     8429130.54949   6575182.28449  23011206.4104   23011213.0214
  21853730.212   -15547940.55449 -12082228.19249  21853731.5724   21853738.5494
  24010743.008    -7172020.263 9  -5579785.868 9  24010742.498    24010748.726
  20608276.887    -3520236.39649  -2737331.34849  20608279.9584   20608285.0884
  24675979.130    -2289847.25849  -1772143.12949  24675984.4434   24675992.6684
  24383815.269    -4335237.39449  -2976578.22849  24383817.0994   24383824.5364
  20508122.721   -16638896.57549 -12950857.22349  20508123.6774   20508129.4594
  22725260.071    14503303.28249  11302970.72549  22725262.3974   22725269.9314
 96  2  6 18 57  0.0000000  0  8 22 19 28 29 27 31 18 14
  23029556.222     8525577.05249   6650335.37449  23029559.5614   23029566.6364
  21843597.069   -15601180.31549 -12123713.68849  21843600.6074   21843607.5544
  24000070.076    -7228075.472 9  -5623465.220 9  24000075.513    24000082.255
  20613066.251    -3495069.67049  -2717720.92749  20613069.0024   20613073.9414
  24661154.739    -2367777.95549  -1832868.31949  24661154.6964   24661163.4634
  24367561.578    -4420658.51649  -3043140.02249  24367563.3664   24367569.7274
  20501113.145   -16675730.51549 -12979558.99749  20501114.3204   20501120.1444
  22745872.773    14611626.26149  11387378.18949  22745875.0624   22745882.6474
 96  2  6 18 57 30.0000000  0  8 22 19 28 29 27 31 18 14
  23047969.311     8622320.37649   6725719.74149  23047969.7404   23047976.0804
  21833508.703   -15654208.25049 -12165034.12749  21833509.7464   21833516.1874
  23989463.595    -7283840.453 9  -5666918.398 9  23989464.035    23989469.943
  20617924.462    -3469535.50849  -2697824.19149  20617928.0524   20617932.8594
  24646330.501    -2445657.23449  -1893553.43949  24646335.0544   24646342.8324
  24351308.076    -4506064.72649  -3109690.10449  24351310.0494   24351318.2424
  20494167.003   -16712235.90549 -13008004.75449  20494167.7324   20494173.4964
  22766530.763    14720178.57849  11471964.36149  22766531.1104   22766538.7814
 96  2  6 18 58  0.0000000  0  8 22 19 28 29 27 31 18 14
  23066429.719     8719342.43149   6801321.32149  23066432.4154   23066438.5504
  21823451.204   -15707053.01549 -12206211.83449  21823453.6254   21823460.3984
  23978903.953    -7339330.392 9  -5710157.262 9  23978904.423    23978910.468
  20622852.555    -3443641.83549  -2677647.31649  20622855.4284   20622860.5644
  24631516.496    -2523505.04949  -1954214.05049  24631520.8204   24631528.3704
  24335057.914    -4591456.48549  -3176228.89049  24335060.8804   24335069.3304
  20487282.843   -16748408.52749 -13036191.21349  20487284.1774   20487289.7804
  22787225.557    14828933.83649  11556708.67249  22787227.5124   22787234.6244
 96  2  6 18 58 30.0000000  0  8 22 19 28 29 27 31 18 14
  23084947.123     8816637.39449   6877135.54349  23084947.0134   23084953.2104
  21813432.583   -15759703.10849 -12247237.84649  21813434.4154   21813441.1284
  23968400.042    -7394535.525 9  -5753174.194 9  23968399.591    23968405.382
  20627852.116    -3417370.78849  -2657176.38549  20627854.2724   20627859.6074
  24616712.077    -2601306.72149  -2014838.69449  24616715.3084   24616724.0374
  24318814.869    -4676812.89649  -3242740.20249  24318818.2774   24318825.4494
  20480464.968   -16784228.53649 -13064102.90749  20480467.6944   20480473.7904
  22807960.915    14937907.50549  11641623.17749  22807964.6454   22807971.9994
 96  2  6 18 59  0.0000000  0  8 22 19 28 29 27 31 18 14
  23103510.807     8914202.30049   6953160.11549  23103512.9354   23103519.1394
  21803454.476   -15812144.75149 -12288101.43349  21803455.6264   21803461.9554
  23957946.948    -7449443.057 9  -5795959.226 9  23957950.222    23957956.866
  20632921.410    -3390731.84849  -2636418.78349  20632923.8594   20632928.9994
  24601919.316    -2679053.54849  -2075420.60249  24601920.9344   24601929.2454
  24302581.732    -4762117.92749  -3309211.44849  24302583.9964   24302592.2164
  20473720.790   -16819675.00549 -13091723.52749  20473722.4784   20473728.3574
  22828742.481    15047102.91849  11726710.46849  22828743.6264   22828751.0654
 96  2  6 18 59 30.0000000  0  8 22 19 28 29 27 31 18 14
  23122130.360     9012050.39149   7029405.34249  23122132.7454   23122138.9004
  21793514.948   -15864390.04849 -12328812.03449  21793513.6474   21793520.0574
  23947557.887    -7504038.132 9  -5838500.759 9  23947561.569    23947567.860
  20638061.732    -3363718.25249  -2615369.24949  20638064.2824   20638069.5244
  24587138.836    -2756721.59849  -2135941.12149  24587140.9304   24587149.7924
  24286364.544    -4847354.38449  -3375629.24949  24286364.6264   24286373.1074
  20467050.265   -16854732.32349 -13119040.91949  20467051.3564   20467057.3584
  22849563.084    15156521.26049  11811971.46049  22849565.0184   22849572.9704
 96  2  6 19  0  0.0000000  0  8 22 19 28 29 27 31 18 14
  23140800.050     9110164.33949   7105857.73249  23140803.1794   23140809.3404
  21783602.592   -15916450.70549 -12369378.75049  21783606.5904   21783612.9434
  23937233.241    -7558323.627 9  -5880801.067 9  23937231.139    23937237.986
  20643271.784    -3336338.56749  -2594034.44249  20643274.5004   20643279.5774
  24572380.274    -2834307.49549  -2196397.63849  24572377.2804   24572385.5294
  24270153.478    -4932550.87249  -3442015.96449  24270151.7524   24270160.2724
  20460446.959   -16889423.12649 -13146072.71349  20460449.7704   20460455.6134
  22870425.343    15266154.34249  11897399.78349  22870427.6674   22870435.5334
 96  2  6 19  0 30.0000000  0  8 22 19 28 29 27 31 18 14
  23159521.239     9208536.53049   7182511.34649  23159523.0574   23159528.9054
  21773732.376   -15968324.16349 -12409799.60449  21773735.4904   21773742.0394
  23926958.136    -7612294.445 9  -5922856.156 9  23926960.801    23926967.152
  20648547.978    -3308613.22949  -2572430.30049  20648550.4844   20648555.4834
  24557625.381    -2911805.74649  -2256785.86149  24557629.4914   24557638.1414
  24253941.381    -5017720.09949  -3508381.40749  24253944.2574   24253952.3174
  20453912.020   -16923767.10549 -13172834.25349  20453914.4744   20453920.4654
  22891324.081    15375985.12249  11982982.15649  22891328.0854   22891334.8264
 96  2  6 19  1  0.0000000  0  8 22 19 28 29 27 31 18 14
  23178289.658     9307163.48149   7259363.48149  23178290.8664   23178297.0874
  21763894.768   -16020017.04749 -12450079.75449  21763898.4464   21763904.7934
  23916746.669    -7665951.900 9  -5964667.087 9  23916749.937    23916756.404
  20653886.352    -3280557.23549  -2550568.49649  20653889.3134   20653894.3944
  24542897.413    -2989226.94649  -2317114.04249  24542897.5194   24542905.0474
  24237736.733    -5102873.91649  -3574734.91949  24237740.2774   24237748.2334
  20447441.481   -16957777.41949 -13199335.80049  20447442.4014   20447448.3794
  22912257.084    15485987.86649  12068698.53149  22912260.7814   22912267.9074
 96  2  6 19  1 30.0000000  0  8 22 19 28 29 27 31 18 14
  23197103.664     9406042.26549   7336411.85449  23197106.8874   23197112.8554
  21754092.017   -16071529.55149 -12490219.36049  21754095.7844   21754102.8804
  23906598.115    -7719298.279 9  -6006235.623 9  23906598.537    23906604.770
  20659292.338    -3252151.06249  -2528433.82849  20659294.6474   20659300.0134
  24528172.453    -3066581.28049  -2377390.13149  24528177.3334   24528184.5054
  24221535.491    -5188021.27549  -3641083.37549  24221537.6724   24221545.7334
  20441029.168   -16991472.07249 -13225591.37949  20441030.8694   20441036.6844
  22933222.080    15596148.61949  12154538.02149  22933224.0544   22933231.3994
 96  2  6 19  2  0.0000000  0  8 22 19 28 29 27 31 18 14
  23215968.054     9505160.33349   7413646.66949  23215968.8524   23215975.4454
  21744329.218   -16122829.73649 -12530193.51349  21744333.7544   21744340.6894
  23896504.356    -7772329.968 9  -6047558.944 9  23896507.200    23896513.558
  20664766.962    -3223383.78949  -2506017.78649  20664769.2044   20664774.1614
  24513468.466    -3143883.02949  -2437625.26849  24513466.8874   24513474.1924
  24205336.530    -5273152.74749  -3707419.45449  24205337.8394   24205345.6414
  20434674.035   -17024861.39749 -13251609.03349  20434676.9904   20434682.7364
  22954212.772    15706461.29649  12240495.90949  22954215.7244   22954223.1184
 96  2  6 19  2 30.0000000  0  8 22 19 28 29 27 31 18 14
  23234876.163     9604511.95149   7491063.47749  23234874.8874   23234881.1494
  21734616.043   -16173914.81049 -12570000.04649  21734612.3854   21734619.1584
  23886472.411    -7825055.144 9  -6088643.438 9  23886473.777    23886480.049
  20670308.384    -3194257.62449  -2483322.07949  20670311.7684   20670316.8114
  24498762.401    -3221159.41149  -2497840.63749  24498761.9594   24498769.2694
  24189144.599    -5358251.33549  -3773729.95649  24189143.9314   24189151.9154
  20428378.297   -17057945.46449 -13277388.82149  20428381.4564   20428387.1854
  22975230.449    15816902.61449  12326554.03749  22975232.6974   22975239.4434
 96  2  6 19  3  0.0000000  0  8 22 19 28 29 27 31 18 14
  23253823.188     9704097.41749   7568662.50549  23253825.3754   23253831.2294
  21724930.421   -16224781.61049 -12609636.50349  21724932.7534   21724939.8474
  23876497.221    -7877470.493 9  -6129486.502 9  23876499.635    23876505.487
  20675924.293    -3164749.00249  -2460328.36249  20675927.1744   20675931.9654
  24484059.503    -3298411.96249  -2558037.44849  24484061.2904   24484068.9654
  24172955.771    -5443310.10549  -3840009.42749  24172957.7664   24172964.8254
  20422144.544   -17090703.03249 -13302914.19249  20422147.4994   20422153.4094
  22996271.139    15927477.63849  12412716.34849  22996274.2134   22996281.1234
 96  2  6 19  3 30.0000000  0  8 22 19 28 29 27 31 18 14
  23272819.338     9803933.42249   7646456.76249  23272823.0974   23272829.9394
  21715291.005   -16275431.06749 -12649103.59749  21715294.2984   21715301.2674
  23866581.273    -7929562.836 9  -6170077.887 9  23866586.686    23866592.494
  20681614.094    -3134847.85249  -2437028.77449  20681617.3094   20681621.9934
  24469364.625    -3375615.59349  -2618196.11349  24469369.6214   24469377.1354
  24156776.195    -5528323.58749  -3906253.63249  24156780.6984   24156787.7274
  20415976.187   -17123122.32049 -13328175.97249  20415978.2584   20415984.0234
  23017341.097    16038203.86649  12498996.48449  23017344.5284   23017351.3394
 96  2  6 19  4  0.0000000  0  8 22 19 28 29 27 31 18 14
  23291871.465     9904037.53949   7724459.92649  23291872.3134   23291879.4214
  21705694.887   -16325870.96649 -12688407.40449  21705696.0724   21705703.2064
  23856737.679    -7981319.272 9  -6210407.527 9  23856737.510    23856743.761
  20687375.903    -3104569.52949  -2413435.28649  20687379.0334   20687383.8944
  24454691.553    -3452751.42249  -2678301.95649  24454692.8954   24454699.5694
  24140608.475    -5613289.30549  -3972460.62149  24140611.1704   24140618.9294
  20409875.129   -17155183.02549 -13353158.33849  20409877.3744   20409883.2694
  23038447.186    16149104.27649  12585412.34049  23038448.7314   23038454.9464
 96  2  6 19  4 30.0000000  0  8 22 19 28 29 27 31 18 14
  23310967.967    10004386.44049   7802653.83749  23310968.3094   23310974.5704
  21696127.338   -16376141.35249 -12727579.12049  21696130.0924   21696137.0764
  23846944.935    -8032760.955 9  -6250491.913 9  23846948.406    23846954.980
  20693203.510    -3073946.53649  -2389573.22349  20693206.2664   20693211.1684
  24440022.822    -3529824.11649  -2738358.60249  24440025.5334   24440032.9954
  24124441.908    -5698240.78149  -4038656.48949  24124445.8434   24124453.1644
  20403837.626   -17186908.44649 -13377879.44149  20403839.8834   20403845.9924
  23059579.439    16260162.37749  12671951.06549  23059581.4394   23059588.4114
 96  2  6 19  5  0.0000000  0  8 22 19 28 29 27 31 18 14
  23330117.235    10105013.55049   7881064.53649  23330116.8634   23330123.1654
  21686596.530   -16426225.31149 -12766605.56549  21686599.2604   21686606.1594
  23837221.656    -8083857.794 9  -6290307.608 9  23837224.657    23837230.692
  20699101.795    -3042951.61549  -2365421.35149  20699104.6404   20699109.4194
  24425372.198    -3606796.57749  -2798337.16649  24425377.6374   24425384.0714
  24108285.503    -5783158.77749  -4104826.30349  24108288.4164   24108294.4114
  20397869.976   -17218266.09849 -13402313.97749  20397872.9554   20397878.9404
  23080752.856    16371427.34649  12758650.99249  23080753.9004   23080762.0624
 96  2  6 19  5 30.0000000  0  8 22 19 28 29 27 31 18 14
  23349317.808    10205915.25549   7959689.20649  23349318.0334   23349324.4284
  21677101.514   -16476132.03949 -12805493.90549  21677102.1154   21677108.9384
  23827564.998    -8134616.048 9  -6329859.472 9  23827565.539    23827572.196
  20705067.546    -3011604.41549  -2340994.97049  20705069.7854   20705074.7484
  24410744.889    -3683675.80049  -2858243.06449  24410748.2674   24410754.4394
  24092133.679    -5868034.45549  -4170963.14349  24092134.8954   24092142.9534
  20391972.438   -17249268.62949 -13426471.78749  20391973.2874   20391979.3044
  23101962.500    16482891.52149  12845506.15149  23101966.2074   23101971.9564
 96  2  6 19  6  0.0000000  0  8 22 19 28 29 27 31 18 14
  23368563.731    10307055.77749   8038499.97449  23368564.0384   23368570.2814
  21667639.140   -16525853.08749 -12844237.56449  21667641.0754   21667647.5264
  23817961.799    -8185044.988 9  -6369154.736 9  23817969.969    23817975.570
  20711097.258    -2979915.59349  -2316302.39949  20711099.8254   20711104.7324
  24396128.251    -3760483.18149  -2918092.98149  24396132.6534   24396139.7854
  24075989.458    -5952855.45149  -4237057.39149  24075995.4534   24076002.2704
  20386139.008   -17279918.46049 -13450354.77549  20386141.0514   20386146.7514
  23123208.718    16594540.23549  12932505.09849  23123210.3274   23123218.4924
 96  2  6 19  6 30.0000000  0  8 22 19 28 29 27 31 18 14
  23387850.936    10408431.13649   8117493.72349  23387856.1114   23387862.2464
  21658214.215   -16575367.96349 -12882820.56949  21658218.5914   21658225.2764
  23808438.928    -8235130.653 9  -6408182.498 9  23808438.825    23808445.164
  20717197.624    -2947855.27549  -2291320.34449  20717200.7504   20717205.9184
  24381534.344    -3837213.61249  -2977882.93249  24381530.8584   24381538.4634
  24059866.927    -6037584.25649  -4303079.81849  24059871.4184   24059878.5624
  20380374.942   -17310203.50349 -13473953.50549  20380377.9004   20380383.4824
  23144489.363    16706367.09849  13019642.86749  23144491.6164   23144499.3244
 96  2  6 19  7  0.0000000  0  8 22 19 28 29 27 31 18 14
  23407188.354    10510036.28949   8196666.51449  23407190.7854   23407196.5254
  21648829.758   -16624683.25949 -12921248.06049  21648834.1394   21648840.4314
  23798973.277    -8284874.579 9  -6446943.978 9  23798972.404    23798978.708
  20723368.489    -2915426.68749  -2266051.33149  20723371.5874   20723376.7894
  24366941.942    -3913875.58749  -3037619.53449  24366942.5854   24366949.2854
  24043765.099    -6122211.70749  -4369023.23549  24043768.0054   24043773.6724
  20374684.265   -17340120.91249 -13497265.77449  20374685.1104   20374690.6144
  23165798.201    16818356.54149  13106907.31049  23165801.8244   23165810.0434
 96  2  6 19  7 30.0000000  0  8 22 19 28 29 27 31 18 14
  23426560.970    10611839.48749   8275993.65649  23426563.7454   23426569.3384
  21639486.114   -16673792.54849 -12959515.02049  21639489.1064   21639495.5454
  23789569.546    -8334280.061 9  -6485441.720 9  23789570.857    23789577.548
  20729609.947    -2882632.67849  -2240497.57249  20729612.4244   20729617.3774
  24352372.701    -3990471.16049  -3097304.38449  24352367.6024   24352374.3884
  24027679.784    -6206740.96849  -4434890.19149  24027680.7964   24027688.1114
  20369057.359   -17369686.90249 -13520304.21249  20369058.9614   20369064.3934
  23187135.660    16930474.32249  13194271.76149  23187138.2344   23187145.0764
 96  2  6 19  8  0.0000000  0  8 22 19 28 29 27 31 18 14
  23445974.487    10713849.52349   8355481.96149  23445975.1074   23445981.3274
  21630182.265   -16722689.31849 -12997616.38349  21630184.3054   21630190.5124
  23780230.850    -8383335.071 9  -6523666.370 9  23780235.260    23780242.395
  20735923.723    -2849449.61549  -2214640.65549  20735927.0324   20735931.6014
  24337802.214    -4066991.50649  -3156930.62349  24337805.1644   24337813.6354
  24011614.074    -6291171.49249  -4500680.16049  24011612.5814   24011621.9434
  20363499.795   -17398889.60749 -13543059.56649  20363502.1494   20363507.2044
  23208496.366    17042725.38449  13281740.05749  23208499.1914   23208507.4704
 96  2  6 19  8 30.0000000  0  8 22 19 28 29 27 31 18 14
  23465429.437    10816085.59249   8435146.38749  23465430.2234   23465436.4624
  21620912.714   -16771383.31849 -13035559.73849  21620918.1814   21620924.0454
  23770970.671    -8432030.507 9  -6561610.834 9  23770969.700    23770975.993
  20742315.545    -2815856.73349  -2188464.39349  20742319.2694   20742324.3304
  24323260.874    -4143427.93949  -3216491.46549  24323260.5474   24323267.4914
  23995565.991    -6375510.04349  -4566398.50849  23995567.4264   23995573.4794
  20358012.816   -17427718.13649 -13565523.35649  20358015.6904   20358021.0724
  23229879.613    17155104.14649  13369307.86749  23229883.8804   23229892.6604
 96  2  6 19  9  0.0000000  0  8 22 19 28 29 27 31 18 14
  23484927.966    10918553.46749   8514991.43649  23484929.3784   23484935.1484
  21611687.358   -16819860.33249 -13073334.02049  21611693.0814   21611699.3314
  23761769.681    -8480359.216 9  -6599269.533 9  23761772.748    23761779.200
  20748787.107    -2781857.68649  -2161971.64349  20748789.1224   20748794.1534
  24308734.658    -4219770.24949  -3275978.97149  24308732.8854   24308740.2864
  23979527.578    -6459765.66349  -4632052.13249  23979531.3964   23979543.5814
  20352601.046   -17456163.64049 -13587688.68449  20352602.7344   20352608.1724
  23251293.411    17267620.56049  13456982.93549  23251295.7274   23251302.7534
 96  2  6 19  9 30.0000000  0  8 22 19 28 29 27 31 18 14
  23504462.209    11021225.59949   8594995.65949  23504466.8384   23504472.1754
  21602504.075   -16868137.15349 -13110952.29649  21602506.1854   21602512.7264
  23752639.186    -8528337.249 9  -6636654.974 9  23752643.706    23752649.275
  20755329.811    -2747470.07849  -2135176.11849  20755332.8104   20755337.8954
  24294211.872    -4296045.63249  -3335414.33649  24294219.0484   24294224.2704
  23963506.174    -6543956.64149  -4697655.47849  23963514.3664   23963517.4024
  20347258.942   -17484236.26949 -13609563.45349  20347261.0054   20347266.2964
  23272728.112    17380261.69149  13544755.18149  23272730.6674   23272737.8364
 96  2  6 19 10  0.0000000  0  8 22 19 28 29 27 31 18 14
  23524045.105    11124111.85649   8675166.73449  23524045.7894   23524051.8024
  21593354.259   -16916215.21449 -13148415.70249  21593357.4934   21593363.6134
  23743580.722    -8575955.061 9  -6673759.720 9  23743581.217    23743587.986
  20761947.144    -2712695.48449  -2108079.04949  20761950.5244   20761955.4754
  24279719.071    -4372256.59649  -3394799.48149  24279716.3034   24279723.1024
  23947505.753    -6628069.74849  -4763198.14749  23947503.4164   23947510.4114
  20341990.944   -17511919.74349 -13631134.99249  20341992.9654   20341998.3554
  23294189.163    17493048.20549  13632640.73449  23294192.9864   23294200.6244
 96  2  6 19 10 30.0000000  0  8 22 19 28 29 27 31 18 14
  23543658.726    11227188.43249   8755486.11649  23543661.1754   23543666.5424
  21584243.897   -16964090.12649 -13185720.81549  21584247.1534   21584253.3134
  23734588.380    -8623212.459 9  -6710583.646 9  23734589.048    23734595.633
  20768635.225    -2677553.59249  -2080695.77149  20768637.4474   20768642.2984
  24265218.540    -4448413.26849  -3454142.33049  24265223.8634   24265230.8404
  23931509.870    -6712104.39359  -4828679.67759  23931515.1434   23931515.8474
  20336796.814   -17539213.69449 -13652403.00449  20336799.0814   20336804.4014
  23315678.654    17605977.03849  13720637.16049  23315681.7824   23315690.3204
 96  2  6 19 11  0.0000000  0  8 22 19 28 29 27 31 18 14
  23563306.220    11330441.72949   8835943.17749  23563309.0424   23563314.7434
  21575172.653   -17011761.75749 -13222867.52549  21575175.2994   21575181.8784
  23725664.559    -8670109.976 9  -6747127.126 9  23725664.860    23725670.921
  20775388.300    -2642067.18449  -2053044.04249  20775390.5264   20775395.2774
  24250734.276    -4524520.19249  -3513446.41949  24250741.0304   24250748.1904
  23915530.531    -6796056.26719
  20331675.720   -17566122.41749 -13673370.83749  20331678.4844   20331683.9974
  23337198.990    17719050.16949  13808746.03649  23337199.1214   23337206.8064
 96  2  6 19 11 30.0000000  0  8 22 19 28 29 27 31 18 14
  23582989.789    11433867.50349   8916534.66849  23582990.3554   23582995.8964
  21566136.080   -17059248.93249 -13259870.50649  21566139.2134   21566145.3724
  23716803.220    -8716645.275 9  -6783388.340 9  23716809.580    23716815.095
  20782207.388    -2606231.63249  -2025120.24649  20782209.8734   20782214.4714
  24236268.436    -4600584.78649  -3572717.52449  24236266.7574   24236272.6964
  23899584.939    -6879918.22819
  20326629.643   -17592647.96649 -13694040.09549  20326630.5844   20326636.1114
  23358739.124    17832257.85149  13896959.77649  23358742.0094   23358749.4104
 96  2  6 19 12  0.0000000  0  8 22 19 28 29 27 31 18 14
  23602700.715    11537457.10449   8997253.80449  23602703.2444   23602708.8584
  21557133.439   -17106562.57449 -13296738.26349  21557135.5274   21557141.8644
  23708016.420    -8762827.038 9  -6819374.099 9  23708020.992    23708027.138
  20789091.196    -2570056.45949  -1996931.81349  20789093.6144   20789098.6264
  24221798.958    -4676618.14049  -3631964.29049  24221797.8424   24221804.3724
  23883647.126    -6963707.491 9
  20321649.265   -17618811.90949 -13714427.58649  20321651.9584   20321657.5064
  23380304.121    17945574.76849  13985258.61349  23380306.1704   23380313.6494
 96  2  6 19 12 30.0000000  0  8 22 19 28 29 27 31 18 14
  23622448.148    11641232.95649   9078118.05849  23622451.0804   23622456.9804
  21548166.684   -17153680.85949 -13333453.79749  21548168.7404   21548175.6924
  23699299.673    -8808638.648 9  -6855071.406 9  23699303.340    23699309.029
  20796042.710    -2533523.56449  -1968464.63749  20796045.5524   20796050.4974
  24207331.052    -4752594.53149  -3691166.65849  24207339.7224   24207347.8204
  23867727.403    -7047408.21119
  20316742.620   -17644603.02949 -13734524.55849  20316744.2474   20316749.7224
  23401889.808    18059001.88749  14073643.33849  23401890.7614   23401897.5954
 96  2  6 19 13  0.0000000  0  7 22 19 28 29 27 18 14
  23642236.114    11745211.43349   9159140.20049  23642237.4734   23642243.2524
  21539236.847   -17200608.75449 -13370020.97649  21539238.9534   21539245.4264
  23690651.958    -8854082.015 9  -6890481.804 9  23690655.670    23690661.627
  20803065.651    -2496619.96349  -1939708.59449  20803068.2144   20803073.2474
  24192892.988    -4828510.18449  -3750321.70949  24192893.0234   24192900.2494
  20311902.638   -17670037.91649 -13754343.94849  20311903.9444   20311909.4224
  23423492.020    18172535.89049  14162111.32849  23423494.9414   23423501.9754
 96  2  6 19 13 30.0000000  0  7 22 19 28 29 27 18 14
  23662065.289    11849421.26149   9240342.62649  23662067.1704   23662074.0474
  21530350.124   -17247310.92749 -13406412.26949  21530351.9614   21530358.5604
  23682083.974    -8899130.814 9  -6925584.730 9  23682083.817    23682089.007
  20810165.496    -2459307.86849  -1910634.24949  20810168.3984   20810173.4344
  24178463.382    -4904333.78049  -3809405.03049  24178464.1184   24178472.5984
  20307132.960   -17695095.84849 -13773869.61049  20307135.5464   20307141.0044
  23445120.099    18286194.60449  14250676.50449  23445123.6694   23445130.4234
 96  2  6 19 14  0.0000000  0  7 22 19 28 29 27 18 14
  23681934.323    11953834.33949   9321703.43549  23681937.0614   23681942.9974
  21521503.193   -17293806.32649 -13442642.43449  21521504.1664   21521510.4204
  23673579.594    -8943808.977 9  -6960398.851 9  23673581.673    23673587.289
  20817337.638    -2421619.79749  -1881266.93149  20817340.2964   20817345.1714
  24164050.571    -4980073.57349  -3868423.05049  24164051.2404   24164059.3024
  20302432.073   -17719801.89949 -13793121.07549  20302434.3294   20302439.4754
  23466770.120    18399954.89249  14339320.84049  23466772.1794   23466777.8064
 96  2  6 19 14 30.0000000  0  7 22 19 28 29 27 18 14
  23701843.818    12058460.00749   9403229.89649  23701846.5954   23701852.4254
  21512692.650   -17340097.58649 -13478713.53049  21512695.1194   21512701.6714
  23665151.515    -8988106.930 9  -6994916.723 9  23665151.782    23665157.710
  20824581.039    -2383554.71549  -1851605.84349  20824583.9904   20824588.8694
  24149648.690    -5055720.66849  -3927368.82049  24149655.9744   24149664.5774
  20297801.244   -17744139.34249 -13812085.30849  20297802.9344   20297808.5054
  23488436.113    18513825.29849  14428050.98949  23488439.6994   23488447.5314
 96  2  6 19 15  0.0000000  0  7 22 19 28 29 27 18 14
  23721794.438    12163296.08249   9484920.32049  23721795.8954   23721803.0044
  21503917.199   -17386197.91549 -13514635.85349  21503922.6374   21503928.9154
  23656792.118    -9032017.060 9  -7029132.379 9  23656795.785    23656801.996
  20831896.674    -2345110.15849  -1821649.05249  20831899.3284   20831904.4584
  24135274.397    -5131280.18649  -3986246.35049  24135278.0704   24135285.2784
  20293241.869   -17768099.63349 -13830755.67049  20293243.4644   20293249.3204
  23510129.127    18627809.97049  14516870.14549  23510131.0264   23510138.3034
 96  2  6 19 15 30.0000000  0  7 22 19 28 29 27 18 14
  23741781.773    12268327.57949   9566763.00049  23741782.7704   23741789.7744
  21495183.277   -17432110.05549 -13550411.52949  21495186.1134   21495192.2014
  23648511.895    -9075533.023 9  -7063040.891 9  23648515.056    23648521.079
  20839283.090    -2306295.11349  -1791403.57549  20839285.9444   20839290.8224
  24120918.412    -5206748.69149  -4045052.96149  24120916.5884   24120924.3074
  20288757.606   -17791662.51549 -13849116.36149  20288759.7884   20288765.4584
  23531837.783    18741898.60049  14605770.31949  23531841.7564   23531849.1604
 96  2  6 19 16  0.0000000  0  7 22 19 28 29 27 18 14
  23761804.173    12373552.09849   9648756.08949  23761807.2794   23761812.5994
  21486479.055   -17477843.39749 -13586047.88449  21486483.2274   21486489.4434
  23640305.317    -9118655.753 9  -7096642.991 9  23640309.212    23640315.132
  20846738.909    -2267113.94649  -1760872.80349  20846742.0244   20846746.8614
  24106563.937    -5282146.34949  -4103804.35849  24106569.1814   24106576.7084
  20284349.132   -17814826.69549 -13867166.37549  20284351.7094   20284357.4594
  23553569.325    18856093.31049  14694753.16249  23553572.6164   23553579.3984
 96  2  6 19 16 30.0000000  0  7 22 19 28 29 27 18 14
  23781862.347    12478959.96549   9730892.05949  23781864.6784   23781871.4214
  21477807.144   -17523409.29949 -13621553.76149  21477812.1854   21477818.8034
  23632176.067    -9161392.948 9  -7129944.685 9  23632176.424    23632182.236
  20854263.501    -2227569.33849  -1730058.83449  20854266.9084   20854271.9784
  24092226.832    -5357505.71249  -4162525.92149  24092228.3194   24092236.7384
  20280015.287   -17837605.56949 -13884916.14849  20280016.8704   20280023.0394
  23575319.518    18970384.92449  14783811.50349  23575320.1524   23575329.1784
 96  2  6 19 17  0.0000000  0  7 22 19 28 29 27 18 14
  23801953.993    12584537.29649   9813160.08649  23801955.9004   23801962.5884
  21469170.514   -17568790.68549 -13656915.85449  21469176.3294   21469182.5654
  23624115.615    -9203742.672 9  -7162944.448 9  23624117.567    23624123.144
  20861860.428    -2187651.86649  -1698954.31849  20861862.9324   20861868.3764
  24077899.341    -5432821.48649  -4221213.49949  24077896.6284   24077903.5954
  20275753.934   -17859999.61549 -13902366.06449  20275755.1804   20275761.1844
  23597086.323    19084776.69849  14872947.88949  23597088.7004   23597097.0024
 96  2  6 19 17 30.0000000  0  7 22 19 28 29 27 18 14
  23822076.327    12690286.40449   9895561.95349  23822079.5304   23822085.6264
  21460579.394   -17613962.47249 -13692114.63249  21460579.9424   21460586.8684
  23616131.555    -9245692.752 9  -7195632.791 9  23616134.425    23616140.535
  20869530.191    -2147344.18849  -1667545.75449  20869533.1624   20869538.6554
  24063571.239    -5508075.26349  -4279852.77549  24063576.0194   24063583.4374
  20271567.064   -17881992.90349 -13919503.69449  20271570.2144   20271576.0534
  23618876.163    19199272.72549  14962165.50149  23618877.1094   23618885.0194
 96  2  6 19 18  0.0000000  0  7 22 19 28 29 27 18 14
  23842232.644    12796216.56449   9978104.90749  23842236.7874   23842244.1324
  21452022.832   -17658916.13749 -13727143.43949  21452025.7954   21452032.5804
  23608226.060    -9287233.496 9  -7228002.172 9  23608229.983    23608235.671
  20877276.063    -2106639.34549  -1635827.69749  20877279.0544   20877284.1544
  24049264.463    -5583263.38349  -4338440.88249  24049268.3624   24049275.4594
  20267459.880   -17903580.14549 -13936324.92549  20267462.3934   20267468.1794
  23640682.746    19313882.03749  15051471.37649  23640686.4954   23640694.3334
 96  2  6 19 18 30.0000000  0  7 22 19 28 29 27 18 14
  23862421.363    12902286.25549  10060756.58749  23862420.5924   23862428.0354
  21443506.122   -17703671.64649 -13762017.84949  21443509.0574   21443515.5934
  23600398.600    -9328384.329 9  -7260067.753 9  23600399.150    23600404.709
  20885092.855    -2065562.16349  -1603819.51549  20885095.5884   20885100.8914
  24034976.039    -5658389.54249  -4396980.71849  24034972.5254   24034980.0154
  20263426.006   -17924780.30349 -13952844.52949  20263427.7614   20263434.1204
  23662511.827    19428568.95249  15140837.73949  23662511.6044   23662518.9054
 96  2  6 19 19  0.0000000  0  7 22 19 28 29 27 18 14
  23882628.108    13008490.69249  10143513.24749  23882630.7574   23882638.4594
  21435032.736   -17748201.07949 -13796716.09149  21435035.5374   21435042.0264
  23592646.089    -9369133.627 9  -7291820.447 9  23592644.395    23592650.689
  20892981.295    -2024106.33149  -1571516.27949  20892984.4724   20892989.5584
  24020690.390    -5733430.19249  -4455453.89549  24020692.5204   24020699.5874
  20259468.427   -17945571.21249 -13969045.24649  20259471.2454   20259477.5984
  23684345.142    19543320.17449  15230254.19949  23684347.4934   23684354.7454
 96  2  6 19 19 30.0000000  0  7 22 19 28 29 27 18 14
  23902861.900    13114824.65549  10226370.84549  23902866.1744   23902872.6074
  21426598.752   -17792518.53249 -13831249.15549  21426602.3014   21426608.7654
  23584965.218    -9409487.396 9  -7323264.934 9  23584965.691    23584971.564
  20900941.431    -1982281.61549  -1538925.59649  20900943.7614   20900948.7564
  24006425.075    -5808399.19349  -4513871.26549  24006425.5634   24006433.8884
  20255590.170   -17965957.31449 -13984930.52349  20255592.2214   20255598.2504
  23706192.435    19658123.87349  15319711.56949  23706194.5864   23706201.6524
 96  2  6 19 20  0.0000000  0  7 22 19 28 29 27 18 14
  23923125.373    13221282.03649  10309324.61649  23923124.0434   23923130.7244
  21418207.271   -17836625.80249 -13865618.43949  21418209.0824   21418215.7864
  23577359.999    -9449441.669 9  -7354398.126 9  23577362.252    23577368.447
  20908972.328    -1940079.99149  -1506041.22649  20908974.3354   20908979.6564
  23992164.736    -5883297.27049  -4572233.37849  23992174.2024   23992180.2034
  20251786.220   -17985944.65949 -14000505.08249  20251789.0294   20251794.7424
  23728051.440    19772990.80349  15409218.21349  23728052.8104   23728059.7884
 96  2  6 19 20 30.0000000  0  7 22 19 28 29 27 18 14
  23943410.866    13327882.09249  10392389.57049  23943408.8794   23943415.5684
  21409858.705   -17880497.32949 -13899804.01849  21409860.5604   21409866.6684
  23569837.077    -9488974.273 9  -7385202.753 9  23569839.710    23569845.623
  20917080.610    -1897468.84949  -1472837.74749  20917083.0634   20917088.1724
  23977937.607    -5958097.29349  -4630519.07049  23977939.3654   23977946.4794
  20248061.314   -18005522.16449 -14015760.28149  20248063.5184   20248068.9894
  23749924.513    19887941.47749  15498790.09349  23749926.9364   23749934.1834
 96  2  6 19 21  0.0000000  0  7 22 19 28 29 27 18 14
  23963725.369    13434648.08849  10475583.84449  23963726.4484   23963732.5284
  21401554.648   -17924138.56049 -13933810.15849  21401555.8554   21401562.0744
  23562395.499    -9528072.809 9  -7415669.139 9  23562399.178    23562405.244
  20925268.224    -1854442.49349  -1439310.72849  20925270.5924   20925276.0314
  23963721.893    -6032793.56449  -4688723.94349  23963726.0034   23963732.8144
  20244414.688   -18024678.83449 -14030687.56849  20244418.0004   20244423.5794
  23771820.822    20002994.26749  15588441.56649  23771820.9214   23771828.6094
 96  2  6 19 21 30.0000000  0  7 22 19 28 29 27 18 14
  23984071.428    13541569.61149  10558899.28549  23984072.5354   23984078.7144
  21393285.624   -17967592.11049 -13967670.04849  21393286.9494   21393292.8184
  23555037.128    -9566753.933 9  -7445810.289 9  23555038.330    23555044.705
  20933530.687    -1811021.21049  -1405475.96949  20933533.3244   20933538.5364
  23949524.163    -6107406.75049  -4746864.05949  23949527.0884   23949534.3314
  20240844.772   -18043443.03949 -14045309.03049  20240847.7334   20240852.8274
  23793732.959    20118147.88049  15678171.58749  23793734.8724   23793741.1054
 96  2  6 19 22  0.0000000  0  7 22 19 28 29 27 18 14
  24004449.094    13648644.48449  10642334.21249  24004448.2244   24004455.2304
  21385045.665   -18010870.65249 -14001393.57349  21385050.8984   21385056.8164
  23547755.800    -9605015.906 9  -7475624.821 9  23547757.605    23547763.846
  20941866.144    -1767215.29649  -1371341.50149  20941869.2694   20941874.6564
  23935338.812    -6181938.57849  -4804940.77949  23935344.0924   23935351.0374
  20237348.147   -18061821.84349 -14059630.18249  20237350.2084   20237355.5404
  23815657.995    20233386.35349  15767967.74349  23815663.3254   23815669.7574
 96  2  6 19 22 30.0000000  0  7 22 19 28 29 27 18 14
  24024851.437    13755879.08549  10725893.62949  24024854.4384   24024861.0014
  21376845.627   -18053989.51249 -14034992.66749  21376845.8564   21376852.0474
  23540554.166    -9642861.791 9  -7505115.135 9  23540556.009    23540562.190
  20950270.453    -1723053.68649  -1336929.87249  20950272.8934   20950278.1124
  23921172.186    -6256398.66649  -4862961.59149  23921175.0024   23921182.5374
  20233925.501   -18079809.65649 -14073646.65749  20233926.9334   20233932.7194
  23837601.227    20348691.58149  15857815.90949  23837604.8264   23837612.1034
 96  2  6 19 23  0.0000000  0  7 22 19 28 29 27 18 14
  24045291.727    13863279.46149  10809582.21249  24045292.3114   24045298.4934
  21368666.840   -18096954.09649 -14068471.55049  21368669.8534   21368676.2284
  23533433.034    -9680282.495 9  -7534274.132 9  23533435.036    23533440.974
  20958740.846    -1678541.76249  -1302245.26649  20958743.4334   20958748.6314
  23907013.741    -6330802.46949  -4920938.56649  23907016.4344   23907023.7174
  20230579.424   -18097390.09949 -14087345.71249  20230581.3434   20230587.0044
  23859555.152    20464060.47349  15947713.67549  23859558.1584   23859565.2634
 96  2  6 19 23 30.0000000  0  7 22 19 28 29 27 18 14
  24065762.776    13970840.64149  10893396.08549  24065760.1794   24065767.1644
  21360525.677   -18139742.25649 -14101812.96249  21360527.3144   21360534.0314
  23526392.316    -9717267.833 9  -7563093.887 9  23526396.930    23526402.968
  20967280.756    -1633663.16049  -1267274.93849  20967283.8194   20967288.8714
  23892865.488    -6405152.28649  -4978873.46649  23892868.1594   23892874.8894
  20227312.807   -18114554.56949 -14100720.62349  20227315.2054   20227321.1744
  23881521.045    20579486.70549  16037656.11449  23881523.8674   23881531.6144
 96  2  6 19 24  0.0000000  0  7 22 19 28 29 27 18 14
  24086255.151    14078549.27849  10977324.86149  24086256.9004   24086262.9104
  21352418.094   -18182355.85449 -14135018.34949  21352418.5144   21352424.7614
  23519437.786    -9753827.215 9  -7591581.716 9  23519439.916    23519445.942
  20975888.878    -1588429.37849  -1232027.84649  20975891.3964   20975896.4704
  23878721.641    -6479465.01849  -5036779.47049  23878726.5764   23878733.8784
  20224125.783   -18131304.91749 -14113772.83949  20224127.8224   20224133.5054
  23903492.096    20694948.90249  16127626.59249  23903495.1954   23903503.0354
 96  2  6 19 24 30.0000000  0  7 22 19 28 29 27 18 14
  24106782.073    14186411.31649  11061373.16849  24106782.2864   24106788.3034
  21344345.109   -18224765.66849 -14168064.94749  21344348.0164   21344354.4224
  23512562.484    -9789951.049 9  -7619730.157 9  23512565.813    23512572.063
  20984568.363    -1542820.43649  -1196488.42749  20984570.4894   20984575.4174
  23864590.423    -6553731.61349  -5094649.52349  23864593.9084   23864601.7044
  20221019.617   -18147623.92649 -14126488.95449  20221022.4104   20221028.1734
  23925472.333    20810455.76749  16217631.87449  23925476.2244   23925482.8974
 96  2  6 19 25  0.0000000  0  7 22 19 28 29 27 18 14
  24127331.462    14294398.89249  11145519.29049  24127331.8854   24127337.9484
  21336314.565   -18266959.66949 -14200943.36849  21336318.9294   21336325.2204
  23505768.628    -9825648.641 9  -7647546.453 9  23505772.565    23505778.896
  20993319.954    -1496829.81649  -1160651.59049  20993322.3044   20993327.2774
  23850469.736    -6627953.96149  -5152485.08249  23850471.1164   23850476.9614
  20217995.200   -18163516.04949 -14138872.42449  20217997.9814   20218003.8994
  23947458.018    20925996.73049  16307663.73549  23947462.9934   23947469.4504
 96  2  6 19 25 30.0000000  0  7 22 19 28 29 27 18 14
  24147905.404    14402525.14049  11229773.46249  24147907.2914   24147914.6204
  21328334.365   -18308910.13949 -14233632.02949  21328336.1894   21328342.2044
  23499062.174    -9860899.371 9  -7675014.556 9  23499064.755    23499070.717
  21002147.935    -1450433.71549  -1124498.80249  21002151.0754   21002156.1464
  23836362.499    -6702089.56549  -5210253.06149  23836362.7244   23836369.9414
  20215057.070   -18178959.10849 -14150905.97549  20215059.4564   20215065.2104
  23969457.193    21041595.50049  16397740.63049  23969461.0104   23969467.4414
 96  2  6 19 26  0.0000000  0  8 22 19 28 29 27 31 18 14
  24168510.881    14510798.09349  11314141.96449  24168511.2444   24168518.0514
  21320396.274   -18350626.65249 -14266138.38349  21320397.7094   21320403.4344
  23492439.112    -9895704.463 9  -7702135.393 9  23492441.423    23492447.771
  21011053.828    -1403636.62849  -1088033.55249  21011056.3924   21011061.4034
  23822270.965    -6776130.26449  -5267947.09949  23822273.5464   23822280.2584
  23447483.411      -42193.45519
  20212202.829   -18193957.32949 -14162592.89649  20212205.4484   20212211.1294
  23991466.528    21157249.19249  16487860.33449  23991468.2014   23991475.8034
 96  2  6 19 26 30.0000000  0  8 22 19 28 29 27 31 18 14
  24189135.857    14619187.02149  11398600.84049  24189137.1354   24189143.7834
  21312495.292   -18392121.89849 -14298472.33049  21312501.1204   21312507.1714
  23485901.664    -9930075.632 9  -7728918.100 9  23485900.640    23485907.088
  21020031.138    -1356457.80049  -1051270.84949  21020034.3054   21020039.0454
  23808196.663    -6850082.40249  -5325572.10549  23808201.0864   23808207.5354
  23432352.027     -121655.186 9
  20209429.213   -18208526.69149 -14173945.64849  20209432.8934   20209438.9104
  24013480.837    21272943.39949  16578011.62049  24013484.4384   24013492.6934
 96  2  6 19 27  0.0000000  0  8 22 19 28 29 27 31 18 14
  24209788.249    14727706.97949  11483161.79149  24209787.4884   24209793.2254
  21304646.265   -18433384.34949 -14330624.87549  21304649.4074   21304655.2464
  23479444.220    -9963987.141 9  -7755342.624 9  23479447.690    23479453.825
  21029084.080    -1308888.06849  -1014203.54249  21029086.4814   21029091.5554
  23794144.616    -6923930.07749  -5383115.73249  23794147.7364   23794154.2954
  23417270.780     -200902.924 9   -140780.53359                  23417283.0064
  20206740.267   -18222656.25149 -14184955.69449  20206744.1144   20206749.9484
  24035509.789    21388702.97349  16668213.82149  24035512.9834   24035519.7334
 96  2  6 19 27 30.0000000  0  8 22 19 28 29 27 31 18 14
  24230463.456    14836361.55249  11567827.64949  24230464.8224   24230470.7464
  21296832.937   -18474439.32049 -14362615.75049  21296836.5724   21296842.9364
  23473076.728    -9997443.406 9  -7781412.408 9  23473081.384    23473087.425
  21038208.945    -1260932.40849   -976835.50949  21038211.8314   21038217.3944
  23780113.627    -6997685.28549  -5440587.31449  23780113.7064   23780119.4654
  23402238.108     -279940.87559   -202368.48149  23402235.2444   23402242.8004
  20204132.842   -18236364.43849 -14195637.39949  20204135.9294   20204141.4154
  24057550.235    21504512.63049  16758455.07349  24057551.8184   24057557.7044
 96  2  6 19 28  0.0000000  0  8 22 19 28 29 27 31 18 14
  24251160.148    14945140.91949  11652590.76349  24251164.1674   24251170.8134
  21289062.620   -18515290.91449 -14394448.15449  21289063.0494   21289069.0594
  23466797.730   -10030449.534 9  -7807131.435 9  23466800.250    23466806.664
  21047406.507    -1212600.74249   -939174.49049  21047409.1974   21047414.5124
  23766088.016    -7071362.18049  -5497997.85749  23766092.4954   23766099.3174
  23387229.777     -358763.71549   -263788.81359  23387234.7484   23387242.9294
  20201603.854   -18249654.67749 -14205993.43049  20201606.6094   20201612.3584
  24079590.411    21620353.23349  16848720.41049  24079594.5684   24079602.1274
 96  2  6 19 28 30.0000000  0  8 22 19 28 29 27 31 18 14
  24271883.104    15054040.53449  11737447.56749  24271887.7164   24271894.6764
  21281327.623   -18555923.96349 -14426110.27049  21281330.6614   21281336.8734
  23460605.537   -10062998.443 9  -7832494.191 9  23460606.416    23460612.673
  21056676.224    -1163888.04449   -901216.56149  21056678.8624   21056684.3374
  23752084.266    -7144962.30049  -5555348.56849  23752086.5644   23752093.9994
  23372279.031     -437349.04459   -325024.09349  23372281.7194   23372286.8254
  20199155.339   -18262522.86049 -14216020.58849  20199158.0264   20199163.4244
  24101642.136    21736229.45449  16939013.51949  24101645.9534   24101653.4534
 96  2  6 19 29  0.0000000  0  8 22 19 28 29 27 31 18 14
  24292634.958    15163070.63749  11822406.07949  24292634.6484   24292641.8764
  21273634.457   -18596355.65849 -14457615.48749  21273636.9204   21273643.2434
  23454497.332   -10095094.945 9  -7857504.413 9  23454498.613    23454504.463
  21066020.724    -1114783.24149   -862953.09849  21066023.0054   21066028.3204
  23738088.878    -7218493.75149  -5612645.76349  23738094.8054   23738100.8824
  23357368.996     -515704.41649   -386080.14149  23357371.9904   23357376.8054
  20196784.808   -18274977.25549 -14225725.31649  20196787.8684   20196793.5664
  24123697.528    21852127.81949  17029323.89749  24123700.3484   24123707.4604
 96  2  6 19 29 30.0000000  0  8 22 19 28 29 27 31 18 14
  24313408.475    15272233.41849  11907467.94549  24313407.8194   24313414.9844
  21265977.847   -18636587.30449 -14488964.81449  21265981.0264   21265987.0604
  23448476.404   -10126736.521 9  -7882160.152 9  23448477.436    23448483.581
  21075439.929    -1065279.13749   -824378.49049  21075443.5594   21075448.8194
  23724117.425    -7291938.19849  -5669875.15749  23724118.4604   23724126.3044
  23342500.160     -593837.04249   -446962.63649  23342503.0914   23342509.2464
  20194497.346   -18287003.92949 -14235096.75349  20194499.3624   20194505.0624
  24145754.803    21968045.92949  17119649.63549  24145758.1454   24145765.8074
 96  2  6 19 30  0.0000000  0  8 22 19 28 29 27 31 18 14
  24334198.634    15381516.24949  11992623.35949  24334202.6384   24334210.6314
  21258362.684   -18676606.77549 -14520148.80249  21258365.7004   21258371.7614
  23442538.399   -10157919.647 9  -7906458.649 9  23442543.316    23442549.494
  21084935.578    -1015388.85249   -785502.96149  21084937.3704   21084942.6354
  23710159.510    -7365290.71149  -5727032.91249  23710160.4394   23710166.6134
  23327676.132     -671737.05349   -507663.90149  23327678.4334   23327685.6944
  20192290.266   -18298600.87549 -14244133.33449  20192292.4914   20192298.2214
  24167821.092    22083998.61749  17210002.33749  24167824.0794   24167831.4604
 96  2  6 19 30 30.0000000  0  8 22 19 28 29 27 31 18 14
  24355018.420    15490903.86849  12077860.44149  24355019.6904   24355026.0584
  21250787.000   -18716423.31649 -14551174.66449  21250788.8704   21250795.0544
  23436694.245   -10188640.741 9  -7930397.117 9  23436697.451    23436703.558
  21094503.092     -965103.94149   -746319.92949  21094506.0774   21094511.6504
  23696213.891    -7438553.80949  -5784120.98149  23696217.5594   23696225.1694
  23312894.671     -749402.79549   -568182.62349  23312899.1274   23312906.4764
  20190165.134   -18309767.73449 -14252834.78849  20190167.4394   20190173.1154
  24189896.489    22199992.42449  17300387.07849  24189896.9454   24189903.7484
 96  2  6 19 31  0.0000000  0  8 22 19 28 29 27 31 18 14
  24375848.860    15600381.58249  12163167.72949  24375851.9364   24375859.7794
  21243241.687   -18756054.35349 -14582055.98449  21243247.3944   21243253.5594
  23430939.560   -10218901.100 9  -7953976.579 9  23430939.377    23430945.391
  21104144.207     -914441.41149   -706842.65949  21104147.0034   21104152.4254
  23682292.353    -7511726.60949  -5841138.69849  23682294.0494   23682301.2714
  23298161.519     -826830.67849   -628515.99349  23298165.7064   23298172.4514
  20188123.342   -18320492.59849 -14261191.83249  20188126.8004   20188132.2364
  24211972.392    22316024.91649  17390801.98449  24211976.5074   24211985.4474
 96  2  6 19 31 30.0000000  0  8 22 19 28 29 27 31 18 14
  24396698.036    15709936.41649  12248535.10749  24396699.7544   24396706.0984
  21235740.078   -18795496.01949 -14612789.73649  21235741.9074   21235747.6884
  23425265.100   -10248701.571 9  -7977197.689 9  23425267.964    23425273.873
  21113854.457     -863413.89749   -667080.98049  21113857.5684   21113862.6604
  23668385.685    -7584815.81649  -5898091.28349  23668385.6944   23668393.3494
  23283475.032     -904026.21149   -688668.30749  23283476.3134   23283481.3274
  20186168.474   -18330769.36849 -14269199.70649  20186171.2564   20186176.7404
  24234063.278    22432097.01849  17481247.72549  24234064.9644   24234072.5814
 96  2  6 19 32  0.0000000  0  8 22 19 28 29 27 31 18 14
  24417560.136    15819570.68449  12333964.38849  24417563.3384   24417570.2764
  21228269.531   -18834753.43349 -14643379.91749  21228271.4954   21228277.3464
  23419683.857   -10278041.429 9  -8000059.878 9  23419684.900    23419690.354
  21123637.084     -812008.29949   -627024.68449  21123639.5384   21123644.8574
  23654489.421    -7657838.63549  -5954992.12749  23654489.2674   23654497.2444
  23268828.019     -980990.97549   -748640.79249  23268829.5924   23268835.0484
  20184297.555   -18340599.76849 -14276859.76449  20184300.6184   20184306.2124
  24256155.449    22548197.76049  17571715.78749  24256157.6694   24256166.1304
 96  2  6 19 32 30.0000000  0  8 22 19 28 29 27 31 18 14
  24438438.769    15929296.45649  12419464.94249  24438443.4664   24438448.4884
  21220831.103   -18873832.88549 -14673831.41749  21220834.6184   21220840.6684
  23414184.315   -10306914.289 9  -8022558.170 9  23414190.742    23414196.421
  21133493.913     -760211.44249   -586663.51149  21133496.0354   21133501.5014
  23640601.596    -7730792.11049  -6011838.93649  23640607.1434   23640615.0264
  23254225.082    -1057719.38249   -808429.11549  23254228.9124   23254235.7264
  20182512.624   -18349976.61449 -14284166.39849  20182515.8174   20182521.4344
  24278249.733    22664314.22549  17662196.11349  24278253.5014   24278261.3804
 96  2  6 19 33  0.0000000  0  8 22 19 28 29 27 31 18 14
  24459337.637    16039128.08549  12505048.02649  24459343.3254   24459349.4034
  21213429.528   -18912731.45649 -14704141.98149  21213432.5534   21213438.4884
  23408785.178   -10335323.337 9  -8044695.053 9  23408784.257    23408789.717
  21143421.654     -708037.17449   -546008.25549  21143424.8144   21143430.0014
  23626737.329    -7803668.18149  -6068625.46149  23626739.6694   23626745.7944
  23239670.064    -1134216.75249   -868037.45349  23239671.6854   23239678.9794
  20180813.265   -18358910.47449 -14291127.85249  20180815.7374   20180821.6544
  24300349.623    22780429.82649  17752675.74149  24300349.9364   24300358.4844
 96  2  6 19 33 30.0000000  0  8 22 19 28 29 27 31 18 14
  24480265.624    16149080.28949  12590725.02349  24480265.5084   24480272.5684
  21206066.286   -18951428.89349 -14734295.80749  21206068.5884   21206074.4284
  23403466.535   -10363256.315 9  -8066460.973 9  23403469.005    23403474.105
  21153426.960     -655457.46349   -505037.07049  21153430.2514   21153435.6824
  23612884.318    -7876457.31549  -6125344.23549  23612887.4094   23612895.1394
  23225158.320    -1210474.33249   -927458.93949  23225160.2934   23225167.1874
  20179197.776   -18367401.73149 -14297744.41849  20179200.0354   20179205.4814
  24322444.201    22896545.48749  17843155.42049  24322445.9454   24322454.0854
 96  2  6 19 34  0.0000000  0  8 22 19 28 29 27 31 18 14
  24501204.716    16259128.74949  12676477.04749  24501207.9574   24501214.0934
  21198739.865   -18989922.35249 -14764290.69449  21198743.5834   21198749.4594
  23398241.377   -10390721.034 9  -8087862.031 9  23398242.899    23398248.086
  21163507.186     -602489.82649   -463763.61249  21163509.6204   21163515.2814
  23599051.819    -7949167.40549  -6182001.43449  23599051.8034   23599057.8644
  23210692.569    -1286490.87749   -986692.60749  23210694.7904   23210700.4304
  20177665.846   -18375455.12649 -14304019.79549  20177667.3944   20177673.2044
  24344534.072    23012645.84049  17933623.16749  24344538.6004   24344546.5314
 96  2  6 19 34 30.0000000  0  8 22 19 28 29 27 31 18 14
  24522167.667    16369262.46349  12762295.47749  24522166.4404   24522171.9454
  21191456.205   -19028199.95249 -14794117.37249  21191459.3634   21191465.7264
  23393103.774   -10417709.076 9  -8108891.644 9  23393106.609    23393112.435
  21173657.492     -549146.06149   -422197.05949  21173660.8854   21173666.1974
  23585231.838    -8021786.74849  -6238587.90049  23585232.5324   23585239.3504
  23196275.074    -1362247.83749  -1045724.00949  23196278.7784   23196284.6574
  20176217.494   -18383066.10449 -14309950.43249  20176219.6654   20176225.1994
  24366628.441    23128741.01149  18024086.86749  24366631.8004   24366639.9824
 96  2  6 19 35  0.0000000  0  8 22 19 28 29 27 31 18 14
  24543135.878    16479476.48549  12848176.47449  24543137.0504   24543141.3514
  21184212.700   -19066258.15149 -14823773.09649  21184217.1344   21184223.3394
  23388057.366   -10444223.985 9  -8129552.589 9  23388061.494    23388067.073
  21183879.514     -495427.29949   -380338.30349  21183882.9914   21183888.3484
  23571428.557    -8094325.02649  -6295111.20349  23571428.7874   23571436.0974
  23181906.641    -1437755.44349  -1104561.07749  23181910.3384   23181916.0504
  20174854.118   -18390229.60949 -14315532.38449  20174856.3254   20174861.9224
  24388718.429    23244824.69849  18114541.62649  24388720.4824   24388729.6734
 96  2  6 19 35 30.0000000  0  8 22 19 28 29 27 31 18 14
  24564122.392    16589767.23749                                  24564117.1754
  21177016.997   -19104096.43549 -14853257.45449  21177016.7444   21177023.2864
  23383103.294   -10470261.625 9  -8149841.647 9  23383106.428    23383111.923
  21194175.554     -441323.73249   -338179.69549  21194178.6114   21194184.0124
  23557635.789    -8166806.55849  -6351590.29149  23557636.7204   23557642.1214
  23167588.209    -1513001.54949  -1163194.35449  23167591.2574   23167597.4444
  20173577.273   -18396935.56549 -14320757.80249  20173580.5094   20173585.6904
  24410808.518    23360903.46549  18204992.52849  24410810.2464   24410817.8284
 96  2  6 19 36  0.0000000  0  8 22 19 28 29 27 31 18 14
  24585131.176    16700154.62558                                  24585123.4884
  21169856.870   -19141704.48649 -14882562.41149  21169860.2974   21169866.2744
  23378242.045   -10495803.931 9  -8169744.730 9  23378245.722    23378251.491
  21204545.108     -386834.60749   -295720.65549  21204547.3044   21204553.1824
  23543848.984    -8239215.83349  -6408013.08849  23543856.6314   23543864.0844
  23153325.549    -1587967.75949  -1221609.58049  23153326.0404   23153331.7694
  20172390.613   -18403171.92249 -14325617.30049  20172393.7764   20172398.6834
  24432901.447    23476986.78249  18295446.97249  24432901.7104   24432909.2024
 96  2  6 19 36 30.0000000  0  8 22 19 28 29 27 31 18 14
  24606153.878    16810641.92619
  21162740.546   -19179113.16849 -14911712.01549  21162741.7334   21162748.0264
  23373479.603   -10520863.964 9  -8189272.037 9  23373477.215    23373482.875
  21214985.284     -331967.16949   -252966.82149  21214988.1784   21214993.9724
  23530085.648    -8311570.23249  -6464393.10949  23530089.2594   23530095.0534
  23139107.486    -1662667.80649  -1279817.41149  23139110.3924   23139116.9004
  20171289.052   -18408964.73149 -14330131.17449  20171291.3844   20171296.6854
  24454983.509    23593048.80349  18385884.84349  24454986.9374   24454994.9744
 96  2  6 19 37  0.0000000  0  8 22 19 28 29 27 31 18 14
  24627208.811    16921247.70519
  21155659.424   -19216310.32749 -14940696.80749  21155663.4124   21155669.7054
  23368799.168   -10545427.120 9  -8208412.156 9  23368802.760    23368808.759
  21225500.490     -276709.75649   -209909.12349  21225503.7654   21225509.0504
  23516330.318    -8383858.58149  -6520721.66649  23516332.1324   23516338.4214
  23124947.079    -1737082.96149  -1337803.26949  23124950.3344   23124956.1354
  20170273.840   -18414298.05249 -14334287.01349  20170276.5054   20170281.4924
  24477068.479    23709102.75849  18476316.40249  24477071.5914   24477078.4954
 96  2  6 19 37 30.0000000  0  7 19 28 29 27 31 18 14
  21148619.131   -19253315.08049 -14969531.66849  21148621.4764   21148627.6514
  23364218.445   -10569505.908 9  -8227174.850 9  23364220.592    23364226.458
  21236085.598     -221087.75649   -166567.32049  21236088.5324   21236093.4194
  23502585.801    -8456087.81949  -6577004.14649  23502587.5584   23502593.7604
  23110839.101    -1811228.72149  -1395579.14649  23110841.2634   23110846.5274
  20169341.712   -18419196.83449 -14338104.23949  20169344.0824   20169349.3104
  24499145.821    23825136.23749  18566732.02549  24499151.8934   24499159.8194
 96  2  6 19 38  0.0000000  0  7 19 28 29 27 31 18 14
  21141612.439   -19290121.75849 -14998212.18449  21141617.4424   21141623.7104
  23359729.445   -10593088.568 9  -8245550.955 9  23359733.123    23359739.069
  21246739.706     -165095.56649   -122937.05049  21246743.1194   21246748.4744
  23488861.953    -8528221.00749  -6633211.78749  23488861.1734   23488867.3734
  23096780.474    -1885100.12449  -1453141.21549  23096783.1864   23096788.9344
  20168495.105   -18423651.81649 -14341575.65449  20168496.4434   20168501.7244
  24521224.851    23941157.62849  18657138.22249  24521229.3464   24521238.4734
 96  2  6 19 38 30.0000000  0  7 19 28 29 27 31 18 14
  21134650.344   -19326727.63449 -15026736.23249  21134651.7624   21134657.6164
  23355340.374   -10616173.257 9  -8263539.037 9  23355340.425    23355346.366
  21257468.693     -108716.54649    -79005.36449  21257471.7344   21257476.7104
  23475147.313    -8600253.42249  -6689340.89149  23475153.2394   23475160.2164
  23082776.232    -1958694.46449  -1510487.41149  23082778.1304   23082785.0664
  20167731.973   -18427653.66649 -14344693.97949  20167734.6584   20167740.0754
  24543305.201    24057174.61649  18747540.97949  24543308.2144   24543315.9174
 96  2  6 19 39  0.0000000  0  7 19 28 29 27 31 18 14
  21127718.425   -19363139.27549 -15055108.93149  21127722.6144   21127728.6994
  23351036.987   -10638767.855 9  -8281145.234 9  23351040.904    23351046.881
  21268270.870      -51953.84149    -34774.69849  21268273.3954   21268278.5574
  23461462.267    -8672188.45049  -6745394.12049  23461464.8594   23461471.5764
  23068823.827    -2032023.20849  -1567626.68849  23068825.0854   23068830.6494
  20167057.057   -18431202.96249 -14347459.66449  20167059.6024   20167064.8014
  24565382.519    24173185.50749  18837939.00549  24565383.6374   24565391.9354
 96  2  6 19 39 30.0000000  0  7 19 28 29 27 31 18 14
  21120830.437   -19399342.96249 -15083319.58349  21120833.3334   21120839.2884
  23346833.114   -10660856.974 9  -8298357.545 9  23346837.396    23346843.318
  21279150.723        5220.41949      9776.65549  21279153.5604   21279158.5494
  23447794.323    -8744003.00849  -6801353.47449  23447798.8164   23447804.8234
  23054920.103    -2105071.11349  -1624547.10949  23054924.2094   23054928.8804
  20166470.742   -18434287.46649 -14349863.17649  20166472.6754   20166478.2064
  24587457.939    24289195.40449  18928336.25949  24587459.5624   24587468.4684
 96  2  6 19 40  0.0000000  0  7 19 28 29 27 31 18 14
  21113983.799   -19435328.54349 -15111360.28649  21113985.5814   21113991.5694
  23342726.723   -10682442.613 9  -8315177.543 9  23342729.917    23342735.563
  21290110.987       62816.27949     54656.53749  21290113.4874   21290118.8014
  23434155.992    -8815704.56749  -6857224.79749  23434154.6494   23434160.7944
  23041079.642    -2177813.24249  -1681229.23749  23041081.0694   23041086.3594
  20165973.987   -18436896.18249 -14351895.94049  20165976.3394   20165981.4764
  24609531.576    24405199.06049  19018728.64849  24609534.0544   24609542.3274
 96  2  6 19 40 30.0000000  0  7 19 28 29 27 31 18 14
  21107172.673   -19471098.36149 -15139232.86549  21107178.8474   21107185.0814
  23338714.553   -10703533.186 9  -8331611.770 9  23338716.445    23338722.511
  21301149.457      120821.25149     99855.20649  21301151.1094   21301156.5514
  23420528.231    -8887315.62649  -6913025.59949  23420527.8844   23420533.6274
  23027295.386    -2250243.08949  -1737668.02949  23027298.3744   23027304.7844
  20165566.556   -18439033.50049 -14353561.38549  20165569.4344   20165574.5104
  24631606.322    24521180.20349  19109103.47949  24631605.2444   24631613.3244
 96  2  6 19 41  0.0000000  0  7 19 28 29 27 31 18 14
  21100410.167   -19506643.35649 -15166930.25449  21100414.7664   21100420.8574
  23334798.959   -10724122.768 9  -8347655.608 9  23334798.489    23334804.177
  21312261.775      179221.31149    145361.73049  21312264.1784   21312269.5714
  23406915.108    -8958842.55449  -6968760.84849  23406915.6284   23406922.5334
  23013575.864    -2322348.11549  -1793853.72249  23013577.3064   23013583.9124
  20165250.036   -18440697.38749 -14354857.91949  20165252.8594   20165258.0234
  24653664.220    24637137.52949  19199459.78849  24653669.9404   24653679.1644
 96  2  6 19 41 30.0000000  0  7 19 28 29 27 31 18 14
  21093695.066   -19541950.76949 -15194442.50549  21093695.7524   21093702.1174
  23330972.784   -10744204.476 9  -8363303.703 9  23330977.404    23330982.831
  21323448.150      238005.00049    191167.18949  21323450.6654   21323456.0814
  23393315.757    -9030289.59549  -7024433.84449  23393320.2774   23393327.2524
  22999920.785    -2394113.48549  -1849774.74749  22999921.7424   22999927.3794
  20165024.014   -18441887.27649 -14355785.11249  20165026.3194   20165031.5644
  24675730.849    24753073.12449  19289799.14449  24675733.3764   24675741.3294
 96  2  6 19 42  0.0000000  0  7 19 28 29 27 31 18 14
  21087018.797   -19577021.64449 -15221770.44949  21087021.9374   21087028.2714
  23327249.575   -10763778.971 9  -8378556.556 9  23327252.330    23327257.926
  21334702.842      297154.68049    237257.83549  21334706.4184   21334711.6854
  23379733.815    -9101667.29249  -7080052.82649  23379737.5474   23379744.9474
  22986324.767    -2465551.06949  -1905440.35349  22986326.5034   22986333.3974
  20164888.588   -18442599.18249 -14356339.84649  20164890.7994   20164896.1514
  24697786.941    24868979.78249  19380115.97949  24697789.1914   24697797.9584
 96  2  6 19 42 30.0000000  0  7 19 28 29 27 31 18 14
  21080385.690   -19611876.50849 -15248930.06749  21080389.8264   21080396.0914
  23323619.632   -10782847.641 9  -8393415.253 9  23323623.297    23323629.230
  21346025.904      356652.83149    283620.02149  21346028.8294   21346033.9194
  23366164.241    -9172974.38749  -7135616.79249  23366168.5634   23366175.5354
  22972784.961    -2536693.93449  -1960876.33849  22972788.0294   22972795.0814
  20164840.528   -18442849.47149 -14356534.88049  20164843.1264   20164848.7974
  24719834.940    24984844.25549  19470399.92249  24719837.7624   24719846.0514
 96  2  6 19 43  0.0000000  0  6 19 28 29 27 31 18
  21073796.927   -19646509.28849 -15275916.64149  21073799.2324   21073805.4764
  23320088.604   -10801401.313 9  -8407872.650 9  23320092.479    23320098.495
  21357416.939      416513.04449    330264.32649  21357419.8544   21357424.9854
  23352613.295    -9244194.57649  -7191113.02149  23352615.5094   23352622.8054
  22959302.055    -2607549.41749  -2016088.35549  22959305.3974   22959311.8494
  20164880.116   -18442640.46349 -14356372.03049  20164883.0324   20164888.5794
 96  2  6 19 43 30.0000000  0  6 19 28 29 27 31 18
  21067245.152   -19680934.44049 -15302741.42649  21067248.4344   21067254.3674
  23316656.261   -10819447.130 9  -8421934.306 9  23316658.365    23316664.408
  21368876.209      476735.75849    377191.10449  21368879.8504   21368884.7124
  23339074.165    -9315319.28249  -7246534.85449  23339081.1234   23339088.0914
  22945873.213    -2678126.71249  -2071083.62349  22945876.1344   22945881.4374
  20165006.319   -18441974.38849 -14355853.01249  20165009.5774   20165014.7984
 96  2  6 19 44  0.0000000  0  6 19 28 29 27 31 18
  21060735.544   -19715148.14649 -15329401.44749  21060737.8734   21060743.6474
  23313319.901   -10836972.984 9  -8435590.798 9  23313323.832    23313329.166
  21380409.015      537341.66249    424416.46449  21380412.4034   21380417.7814
  23325564.846    -9386327.84049  -7301866.18549  23325568.4804   23325575.5624
  22932499.364    -2748410.24549  -2125849.99049  22932501.6474   22932506.7124
  20165224.494   -18440835.74949 -14354965.77749  20165226.4034   20165231.7674
 96  2  6 19 44 30.0000000  0  6 19 28 29 27 31 18
  21054263.710   -19749156.59349 -15355901.52149  21054265.9874   21054271.9604
  23310090.208   -10853973.556 9  -8448837.962 9  23310088.513    23310094.042
  21392018.760      598345.07349    471951.57949  21392021.2854   21392026.8724
  23312074.446    -9457219.79249  -7357106.64549  23312078.1724   23312084.7414
  22919184.863    -2818375.63049  -2180368.42749  22919185.9024   22919192.6414
  20165529.762   -18439220.73749 -14353707.32549  20165533.5994   20165539.0534
 96  2  6 19 45  0.0000000  0  6 19 28 29 27 31 18
  21047832.873   -19782947.54949 -15382232.12549  21047835.9394   21047841.5944
  23306949.030   -10870438.386 9  -8461667.671 9  23306955.255    23306960.979
  21403705.850      659764.35149    519810.74149  21403709.0034   21403714.4204
  23298605.698    -9527990.08549  -7412252.31249  23298610.8664   23298618.6484
  22905936.526    -2887985.26749  -2234609.67649  22905940.8254   22905946.4194
  20165933.985   -18437101.70149 -14352056.13449  20165937.0014   20165942.0424
 96  2  6 19 45 30.0000000  0  6 19 28 29 27 31 18
  21041436.464   -19816557.19649 -15408421.44649  21041440.1454   21041445.8334
  23303913.600   -10886393.702 9  -8474100.350 9  23303918.692    23303925.032
  21415469.117      721576.39049    567975.95149  21415471.4164   21415477.0264
  23285157.774    -9598674.78149  -7467331.27049  23285160.0554   23285167.2194
  22892758.646    -2957250.60049  -2288582.62149  22892760.0144   22892765.5534
  20166431.205   -18434495.94049 -14350025.67949  20166433.1164   20166438.2324
 96  2  6 19 46  0.0000000  0  6 19 28 29 27 31 18
  21035077.168   -19849973.93149 -15434460.45549  21035081.2374   21035087.2334
  23300981.334   -10901818.067 9  -8486119.307 9  23300983.623    23300989.570
  21427309.112      783797.20949    616459.68949  21427311.6864   21427317.0604
  23271724.518    -9669265.56449  -7522337.06549  23271727.1354   23271734.1744
  22879647.428    -3026154.26749  -2342273.72749  22879648.0174   22879653.1014
  20167022.615   -18431381.63749 -14347598.95449  20167025.4934   20167030.7504
 96  2  6 19 46 30.0000000  0  6 19 28 29 27 31 18
  21028753.692   -19883202.74649 -15460353.02549  21028757.8244   21028763.8374
  23298144.484   -10916718.247 9  -8497729.807 9  23298148.324    23298153.879
  21439224.086      846416.69249    665254.06949  21439227.7804   21439233.1744
  23258306.340    -9739765.78649  -7577272.26849  23258311.3024   23258318.4734
  22866598.044    -3094702.13849  -2395687.61549  22866603.7504   22866610.4234
  20167709.320   -18427776.99049 -14344790.14549  20167711.2984   20167716.7694
 96  2  6 19 47  0.0000000  0  6 19 28 29 27 31 18
  21022472.426   -19916229.25149 -15486087.95449  21022472.8724   21022479.1664
  23295410.268   -10931097.305 9  -8508934.248 9  23295412.247    23295417.368
  21451214.152      909419.01349    714346.76649  21451216.7484   21451221.9884
  23244909.252    -9810173.45049  -7632135.34549  23244913.1244   23244920.0654
  22853619.946    -3162903.11449  -2448831.20649  22853623.4704   22853631.2354
  20168485.956   -18423693.66749 -14341608.33849  20168488.5174   20168493.8754
 96  2  6 19 47 30.0000000  0  6 19 28 29 27 31 18
  21016225.671   -19949037.33749 -15511652.68949  21016229.6464   21016236.3454
  23292762.026   -10944949.580 9  -8519728.201 9  23292776.023    23292781.538
  21463274.208      972797.49549    763732.57449  21463277.3954   21463282.6354
  23231529.378    -9880491.53149  -7686928.60649  23231532.0084   23231538.8654
  22840707.945    -3230755.78649  -2501703.40449  22840712.2814   22840719.2474
  20169350.602   -18419148.82849 -14338066.91349  20169353.2604   20169358.5534
 96  2  6 19 48  0.0000000  0  6 19 28 29 27 31 18
  21010030.733   -19981603.51249 -15537028.91949  21010032.8414   21010038.8904
  23290240.778   -10958264.985 9  -8530103.819 9  23290242.093    23290247.630
  21475405.548     1036546.24849    813406.90249  21475408.3174   21475413.5954
  23218163.738    -9950707.61849  -7741642.38349  23218170.5704   23218176.9134
  22827867.782    -3298248.59649  -2554295.16949  22827870.4254   22827874.5564
  20170303.957   -18414141.92849 -14334165.43949  20170306.1324   20170311.3304
 96  2  6 19 48 30.0000000  0  6 19 28 29 27 31 18
  21003878.162   -20013938.79049 -15562225.22849  21003879.3174   21003885.5064
  23287803.447   -10971070.042 9  -8540081.769 9  23287805.715    23287811.110
  21487602.637     1100640.25149    863350.24949  21487605.1694   21487610.4244
  23204822.852   -10020852.93849  -7796301.01749  23204821.8234   23204829.1564
  22815088.487    -3365407.22949  -2606626.55549  22815089.6674   22815095.9404
  20171339.669   -18408697.11949 -14329922.73249  20171342.1104   20171347.4634
 96  2  6 19 49  0.0000000  0  6 19 28 29 27 31 18
  20997769.086   -20046036.61749 -15587236.51249  20997771.5384   20997777.5364
  23285467.705   -10983356.646 9  -8549655.730 9  23285467.585    23285473.165
  21499866.357     1165094.53849    913574.34849  21499870.4424   21499875.7084
  23191483.128   -10090940.09149  -7850914.31949  23191484.8524   23191491.4784
  22802369.036    -3432229.40049  -2658695.77049  22802373.3854   22802380.1544
  20172465.198   -18402785.76949 -14325316.48749  20172467.0624   20172472.2754
 96  2  6 19 49 30.0000000  0  6 19 28 29 27 31 18
  20991706.786   -20077889.18949 -15612056.68749  20991710.0904   20991716.1454
  23283229.068   -10995093.463 9  -8558801.287 9  23283234.182    23283239.964
  21512209.439     1229955.45149    964115.29449  21512213.0134   21512218.2214
  23178161.049   -10160929.99149  -7905451.85549  23178166.4134   23178172.5774
  22789724.714    -3498684.19749  -2710478.71949  22789727.5094   22789733.9804
  20173685.756   -18396368.94049 -14320316.36549  20173687.7914   20173693.8274
 96  2  6 19 50  0.0000000  0  6 19 28 29 27 31 18
  20985688.511   -20109525.05249 -15636707.99649  20985690.0744   20985695.7074
  23281099.819   -11006296.408 9  -8567530.834 9  23281101.971    23281107.648
  21524629.744     1295219.30149   1014970.22049  21524632.2354   21524637.6794
  23164863.529   -10230830.12349  -7959919.45049  23164865.1024   23164871.0324
  22777147.165    -3564787.06749  -2761987.42849  22777148.5374   22777155.1794
  20175003.824   -18389441.01549 -14314917.98249  20175006.1654   20175012.0984
 96  2  6 19 50 30.0000000  0  6 19 28 29 27 31 18
  20979704.528   -20140970.18949 -15661210.69149  20979706.2704   20979712.0574
  23279067.319   -11016971.212 9  -8575848.848 9  23279070.781    23279076.803
  21537124.898     1360887.27249   1066140.04949  21537128.5904   21537133.4804
  23151575.230   -10300654.12749  -8014327.71749  23151577.5204   23151584.4244
  22764632.874    -3630546.00849  -2813228.13449  22764635.5134   22764641.3044
  20176419.702   -18382000.29149 -14309120.02049  20176422.3244   20176428.2084
 96  2  6 19 51  0.0000000  0  7 19 28 29 27 31 18  2
  20973753.570   -20172244.85449 -15685580.53849  20973754.8544   20973760.6434
  23277136.053   -11027117.692 9  -8583755.177 9  23277140.043    23277146.073
  21549696.033     1426944.64449   1117613.30249  21549698.8854   21549704.0344
  23138302.469   -10370393.79549  -8068670.28149  23138306.3634   23138313.0864
  22752185.480    -3695945.37849  -2864188.66649  22752189.9134   22752195.3524
  20177932.408   -18374055.29449 -14302929.11449  20177934.1184   20177939.6664
  25057743.366    -1638371.27759  -1033748.41259  25057741.9364   25057751.1294
 96  2  6 19 51 30.0000000  0  7 19 28 29 27 31 18  2
  20967833.487   -20203341.78649 -15709811.89949  20967837.4534   20967843.2754
  23275308.534   -11036731.047 9  -8591246.071 9  23275310.651    23275316.698
  21562337.961     1493381.22549   1169382.04949  21562340.9994   21562346.6544
  23125051.534   -10440039.07549  -8122939.30349  23125054.0084   23125060.2324
  22739818.499    -3760962.16749  -2914851.06449  22739818.3544   22739823.2524
  20179536.157   -18365617.77349 -14296354.42349  20179539.9204   20179545.2884
  25039859.501    -1732312.06949  -1106948.99249  25039865.4574   25039875.0944
 96  2  6 19 52  0.0000000  0  7 19 28 29 27 31 18  2
  20961956.900   -20234229.42949 -15733880.17649  20961959.6024   20961965.3474
  23273585.703   -11045795.417 9  -8598309.198 9  23273585.991    23273591.562
  21575050.883     1560190.37249   1221441.09849  21575054.5964   21575060.0064
  23111815.720   -10509592.27249  -8177136.58749  23111817.6464   23111824.9124
  22727519.987    -3825584.27249  -2965205.92049  22727521.3224   22727526.7694
  20181238.811   -18356675.16549 -14289386.16149  20181241.5564   20181247.2724
  25022013.426    -1826095.93349  -1180027.30949  25022018.8764   25022027.7044
 96  2  6 19 52 30.0000000  0  7 19 28 29 27 31 18  2
  20956116.823   -20264915.19449 -15757791.14949  20956120.4344   20956126.1874
  23271959.665   -11054320.327 9  -8604951.959 9  23271963.630    23271969.291
  21587829.744     1627344.86749   1273769.25549  21587833.5904   21587839.2884
  23098600.428   -10579053.31749  -8231262.07149  23098600.0014   23098606.7954
  22715292.288    -3889821.79749  -3015261.08949  22715296.3864   22715303.1764
  20183032.942   -18347248.48149 -14282040.69849  20183035.4734   20183040.7994
  25004197.882    -1919748.85049  -1253003.57249  25004198.0954   25004206.2834
 96  2  6 19 53  0.0000000  0  7 19 28 29 27 31 18  2
  20950325.976   -20295365.60249 -15781518.72749  20950325.7224   20950331.4694
  23270443.071   -11062293.669 9  -8611164.923 9  23270445.767    23270451.818
  21600677.128     1694856.05149   1326375.35049  21600680.7124   21600686.6384
  23085402.781   -10648400.65549  -8285298.93649  23085403.5164   23085411.0454
  22703147.550    -3953653.26249  -3064999.86449  22703149.5944   22703156.5604
  20184921.575   -18337326.61149 -14274309.37449  20184923.6144   20184928.9374
  24986400.736    -2013281.44749  -1325886.10549  24986399.8434   24986408.2684
 96  2  6 19 53 30.0000000  0  7 19 28 29 27 31 18  2
  20944573.868   -20325571.96749 -15805056.13549  20944577.6154   20944583.4704
  23269030.917   -11069724.954 9  -8616955.507 9  23269031.813    23269037.817
  21613591.064     1762721.17649   1379257.24249  21613594.9504   21613601.0114
  23072223.037   -10717644.38849  -8339255.08649  23072227.4684   23072233.4944
  22691075.788    -4017103.78849  -3114441.79049  22691075.3564   22691081.2724
  20186902.385   -18326911.40149 -14266193.62749  20186905.1914   20186910.9204
  24968615.700    -2106712.20149  -1398689.26249  24968619.6464   24968629.0004
 96  2  6 19 54  0.0000000  0  7 19 28 29 27 31 18  2
  20938870.217   -20355547.74549 -15828413.87749  20938873.3314   20938879.5224
  23267720.472   -11076610.062 9  -8622320.503 9  23267721.878    23267727.655
  21626575.174     1830945.93449   1432419.37049  21626577.5784   21626583.1824
  23059069.974   -10786762.94549  -8393113.69149  23059074.0204   23059080.9894
  22679070.716    -4080173.72849  -3163587.16049  22679074.4134   22679079.9474
  20188980.838   -18315993.29949 -14257686.02249  20188983.3174   20188988.6844
  24950858.894    -2200038.23449  -1471410.82349  24950860.4004   24950869.8924
 96  2  6 19 54 30.0000000  0  7 19 28 29 27 31 18  2
  20933207.635   -20385310.08949 -15851605.30049  20933209.9384   20933215.8744
  23266515.363   -11082957.626 9  -8627266.648 9  23266513.817    23266519.699
  21639627.144     1899542.11849   1485870.91549  21639630.8924   21639636.7924
  23045938.356   -10855756.50049  -8446874.89949  23045944.5854   23045952.0324
  22667144.309    -4142852.64549  -3212427.83149  22667147.0734   22667152.4714
  20191152.279   -18304579.07949 -14248791.83049  20191155.3064   20191160.8434
  24933116.122    -2293268.65549  -1544057.87149  24933119.7464   24933127.9474
 96  2  6 19 55  0.0000000  0  7 19 28 29 27 31 18  2
  20927589.315   -20414846.87349 -15874620.96549  20927589.3094   20927595.3694
  23265407.120   -11088752.837 9  -8631782.384 9  23265411.048    23265416.953
  21652757.659     1968539.15649   1539634.81649  21652760.6024   21652766.3694
  23032838.846   -10924630.15449  -8500542.66949  23032839.0254   23032845.4254
  22655294.495    -4205120.44749  -3260948.16949  22655296.6484   22655303.3204
  20193421.639   -18292659.13849 -14239503.56949  20193423.6614   20193429.1264
  24915401.604    -2386377.68249  -1616610.34349  24915401.4164   24915410.5844
 96  2  6 19 55 30.0000000  0  7 19 28 29 27 31 18  2
  20922003.565   -20444180.94349 -15897478.67149  20922007.4654   20922013.2144
  23264410.303   -11094002.372 9  -8635872.917 9  23264412.257    23264418.035
  21665963.379     2037929.45049   1593705.15749  21665965.3574   21665970.8964
  23019754.851   -10993391.01949  -8554122.54849  23019754.0004   23019760.3514
  22643517.502    -4267001.27149  -3309166.96749  22643521.9544   22643527.4404
  20195782.122   -18280250.77949 -14229834.71649  20195784.7104   20195790.1914
  24897700.809    -2479369.49049  -1689071.45449  24897705.6494   24897714.7244
 96  2  6 19 56  0.0000000  0  7 19 28 29 27 31 18  2
  20916457.359   -20473331.50049 -15920193.38249  20916459.8904   20916466.3034
  23263515.699   -11098713.486 9  -8639543.906 9  23263515.870    23263521.574
  21679241.475     2107713.35549   1648082.20649  21679245.2254   21679250.3434
  23006684.525   -11062059.14149  -8607630.16349  23006687.2084   23006693.8424
  22631819.234    -4328492.76949  -3357082.40049  22631820.4834   22631825.8154
  20198231.606   -18267379.35049 -14219805.03749  20198234.1724   20198239.8594
  24880025.441    -2572253.91649  -1761448.90249  24880030.0954   24880039.1724
 96  2  6 19 56 30.0000000  0  7 19 28 29 27 31 18  2
  20910950.229   -20502275.67749 -15942747.27949  20910951.9864   20910958.2684
  23262721.470   -11102884.467 9  -8642794.013 9  23262721.713    23262727.754
  21692596.316     2177889.87149   1702765.18049  21692599.3404   21692604.6134
  22993632.357   -11130655.27649  -8661081.67249  22993633.7904   22993640.3654
  22620188.451    -4389607.19149  -3404703.99449  22620191.0354   22620196.3994
  20200767.491   -18254052.19749 -14209420.24649  20200770.2604   20200775.8214
  24862375.354    -2665026.99249  -1833739.59349  24862375.3634   24862384.1894
 96  2  6 19 57  0.0000000  0  7 19 28 29 27 31 18  2
  20905479.153   -20531022.16249 -15965147.13349  20905481.7254   20905487.7724
  23262023.807   -11106534.022 9  -8645637.816 9  23262027.271    23262033.113
  21706018.219     2248421.14149   1757724.58649  21706020.5554   21706026.3144
  22980586.594   -11199201.05349  -8714493.94049  22980590.0414   22980596.1484
  22608623.225    -4450379.46349  -3452058.99949  22608625.5214   22608631.4084
  20203387.262   -18240289.45349 -14198696.03349  20203389.3744   20203394.7644
  24844738.432    -2757702.69649  -1905954.39449  24844740.0974   24844749.1224
 96  2  6 19 57 30.0000000  0  8 19 28 29 27 16 31 18  2
  20900054.332   -20559528.24149 -15987359.65949  20900057.2394   20900063.2334
  23261435.943   -11109625.716 9  -8648046.929 9  23261438.894    23261444.854
  21719509.478     2319328.22749   1812976.83749  21719513.5904   21719519.1644
  22967557.547   -11267646.65549  -8767828.15749  22967565.1924   22967571.2564
  24891668.921    -4798986.76559  -2207078.85159  24891672.6814   24891682.2614
  22597130.036    -4510772.59549  -3499118.57049  22597133.2724   22597139.5254
  20206099.030   -18226038.74149 -14187591.59249  20206100.8514   20206106.5474
  24827123.545    -2850249.71149  -1978068.91349  24827128.3744   24827137.9494
 96  2  6 19 58  0.0000000  0  8 19 28 29 27 16 31 18  2
  20894672.510   -20587802.23249 -16009391.33249  20894676.7114   20894682.7674
  23260948.272   -11112172.663 9  -8650031.552 9  23260954.168    23260960.481
  21733069.962     2390587.00549   1868503.14149  21733073.4944   21733079.4974
  22954556.397   -11336007.53749  -8821096.34349  22954556.2514   22954563.2534
  24877931.895    -4871192.96649  -2263343.41249  24877932.3454   24877940.5044
  22585714.040    -4570771.81749  -3545871.19649  22585716.3484   22585721.6244
  20208904.716   -18211290.85349 -14176099.73949  20208907.6114   20208913.3524
  24809536.484    -2942682.63249  -2050094.53949  24809539.5454   24809548.4364
 96  2  6 19 58 30.0000000  0  8 19 28 29 27 16 31 18  2
  20889337.246   -20615840.28949 -16031239.16849  20889341.2414   20889347.1664
  23260573.896   -11114172.031 9  -8651589.487 9  23260574.105    23260579.724
  21746695.963     2462187.12449   1924295.41449  21746698.8474   21746704.8994
  22941561.232   -11404269.51349  -8874287.45549  22941566.3514   22941573.0484
  24864270.501    -4942996.83249  -2319294.45749  24864269.3644   24864277.6444
  22574373.332    -4630365.66949  -3592307.93849  22574375.6894   22574382.0484
  20211809.195   -18196025.84849 -14164204.92949  20211812.2934   20211817.8314
  24791971.270    -3034995.90549  -2122026.89749  24791972.6134   24791981.6014
 96  2  6 19 59  0.0000000  0  8 19 28 29 27 16 31 18  2
  20884043.841   -20643650.07649 -16052909.12449  20884049.0854   20884055.2514
  23260298.485   -11115610.342 9  -8652710.235 9  23260300.387    23260305.708
  21760389.923     2534148.33049   1980369.05849  21760393.2194   21760398.6804
  22928596.445   -11472408.16349  -8927382.47849  22928600.1244   22928606.6344
  24850677.085    -5014372.77049  -2374912.05549  24850686.6464   24850695.4474
  22563116.097    -4689519.93349  -3638402.14749  22563119.5344   22563124.9634
  20214817.773   -18180216.73149 -14151886.14249  20214820.8924   20214825.9924
  24774430.625    -3127177.80749  -2193856.89749  24774430.8564   24774439.9654
 96  2  6 19 59 30.0000000  0  8 19 28 29 27 16 31 18  2
  20878793.081   -20671261.70549 -16074424.67549  20878794.9464   20878801.0804
  23260128.501   -11116505.441 9  -8653407.711 9  23260129.669    23260134.988
  21774151.130     2606463.16049   2036718.24549  21774154.0124   21774159.5564
  22915649.119   -11540445.29749  -8980398.38249  22915652.8594   22915659.0184
  24837179.188    -5085350.52649  -2430219.38749  24837180.2574   24837189.0174
  22551941.568    -4748239.88649  -3684157.93949  22551944.6164   22551951.2034
  20217926.236   -18163884.43849 -14139159.68849  20217928.7044   20217933.7414
  24756910.208    -3219244.20049  -2265596.87049  24756911.7504   24756920.2514
 96  2  6 20  0  0.0000000  0  8 19 28 29 27 16 31 18  2
  20873574.296   -20698688.07149 -16095795.85749  20873575.8304   20873581.9534
  23260061.172   -11116858.819 9  -8653683.060 9  23260062.637    23260068.279
  21787979.663     2679138.21849   2093348.14749  21787983.2284   21787989.0074
  22902719.932   -11608398.45149  -9033348.85549  22902721.7784   22902728.3634
  24823747.707    -5155936.64249  -2485221.52349  24823747.9634   24823756.0354
  22540851.284    -4806520.79849  -3729571.61849  22540854.4464   22540860.2174
  20221128.886   -18147051.81949 -14126043.35649  20221131.6864   20221136.7104
  24739414.334    -3311185.58749  -2337239.43449  24739416.1124   24739424.2604
 96  2  6 20  0 30.0000000  0  8 19 28 29 27 16 31 18  2
  20868388.628   -20725928.99249 -16117022.53949  20868392.2834   20868398.0974
  23260100.749   -11116667.785 9  -8653534.191 9  23260099.092    23260104.855
  21801880.050     2752183.79149   2150266.75249  21801883.5034   21801889.1634
  22889801.407   -11676276.73549  -9086240.98549  22889805.0864   22889811.8044
  24810394.398    -5226126.96149  -2539915.25649  24810389.8554   24810398.8304
  22529845.228    -4864364.66049  -3774644.72649  22529847.5534   22529852.7324
  20224425.793   -18129727.03149 -14112543.51949  20224428.8424   20224433.7814
  24721944.997    -3402990.69149  -2408775.79749  24721945.8094   24721954.8264
 96  2  6 20  1  0.0000000  0  8 19 28 29 27 16 31 18  2
  20863243.330   -20752970.20149 -16138093.60149  20863246.2234   20863252.3154
  23260239.488   -11115923.684 9  -8652954.367 9  23260240.925    23260246.336
  21815853.665     2825612.07249   2207483.57549  21815856.5454   21815861.8854
  22876902.842   -11744076.08349  -9139071.61949  22876903.4654   22876909.9814
  24797108.839    -5295921.35949  -2594300.49349  24797109.0004   24797118.2504
  22518921.791    -4921759.78349  -3819368.17849  22518924.8364   22518931.4374
  20227818.609   -18111896.73649 -14098649.78649  20227821.5214   20227826.9424
  24704499.574    -3494651.79749  -2480199.95549  24704503.1454   24704512.0304
 96  2  6 20  1 30.0000000  0  8 19 28 29 27 16 31 18  2
  20858142.484   -20779787.29649 -16158990.02549  20858143.0734   20858148.9884
  23260482.411   -11114620.708 9  -8651939.043 9  23260488.417    23260494.113
  21829897.117     2899414.08649   2264991.60349  21829900.6414   21829906.4224
  22864016.447   -11811789.39749  -9191835.20849  22864017.8484   22864024.8384
  24783906.020    -5365321.28949  -2648378.33949  24783902.9414   24783911.2764
  22508088.136    -4978697.44549  -3863735.14949  22508089.7794   22508095.9824
  20231307.655   -18093561.62749 -14084362.69349  20231310.4514   20231315.8484
  24687090.714    -3586164.24449  -2551508.28049  24687088.9234   24687097.4184
 96  2  6 20  2  0.0000000  0  8 19 28 29 27 16 31 18  2
  20853082.188   -20806373.58049 -16179706.60049  20853083.9364   20853089.6704
  23260840.058   -11112758.510 9  -8650487.981 9  23260842.871    23260848.514
  21844011.506     2973581.08549   2322784.05949  21844014.3494   21844019.7294
  22851144.939   -11879415.57749  -9244530.90749  22851148.8054   22851155.7674
  24770767.452    -5434320.96049  -2702144.30249  24770773.1214   24770780.8734
  22497340.285    -5035169.33449  -3907739.18949  22497343.8314   22497350.5924
  20234893.521   -18074719.01049 -14069680.14049  20234896.4244   20234901.7774
  24669699.804    -3677538.52249  -2622708.95049  24669701.0224   24669709.4714
 96  2  6 20  2 30.0000000  0  8 19 28 29 27 16 31 18  2
  20848065.243   -20832732.33649 -16200245.87349  20848068.0444   20848073.8934
  23261306.298   -11110342.865 9  -8648605.645 9  23261302.857    23261308.398
  21858189.934     3048094.61049   2380846.52149  21858193.6354   21858199.3314
  22838295.681   -11946945.22749  -9297151.38649  22838297.9834   22838304.8384
  24757719.047    -5502925.83949  -2755602.61249  24757717.6524   24757726.2004
  22486681.975    -5091189.90149  -3951391.56149  22486683.0894   22486688.9714
  20238577.415   -18055360.11049 -14054595.28849  20238580.5854   20238585.7024
  24652330.340    -3768787.68249  -2693812.12649  24652336.5574   24652345.6674
 96  2  6 20  3  0.0000000  0  8 19 28 29 27 16 31 18  2
  20843095.228   -20858849.68749 -16220597.03749  20843098.1714   20843104.1954
  23261869.313   -11107369.080 9  -8646288.406 9  23261868.599    23261874.265
  21872433.373     3122945.59349   2439171.95049  21872437.1514   21872442.9714
  22825466.267   -12014347.47749  -9349672.60049  22825472.0844   22825478.6654
  24744733.142    -5571145.76049  -2808760.97949  24744735.4674   24744743.3214
  22476105.215    -5146772.56149  -3994702.68949  22476106.7684   22476111.8854
  20242357.202   -18035499.88449 -14039119.79249  20242359.4984   20242365.0384
  24634992.360    -3859909.26649  -2764815.89949  24634996.5874   24635006.7574
 96  2  6 20  3 30.0000000  0  8 19 28 29 27 16 31 18  2
  20838166.949   -20884748.30649 -16240777.76649  20838169.7374   20838175.6644
  23262535.080   -11103846.438 9  -8643543.479 9  23262538.901    23262544.344
  21886737.026     3198116.85449   2497746.94549  21886741.6464   21886747.6084
  22812667.982   -12081623.27249  -9402095.26749  22812670.3124   22812676.8064
  24731825.681    -5638991.17249  -2861627.51649  24731824.8364   24731832.5954
  22465607.189    -5201943.34449  -4037692.86849  22465607.9654   22465612.9924
  20246225.583   -18015165.12549 -14023274.53649  20246229.0284   20246234.3464
  24617679.563    -3950907.41349  -2835723.49649  24617680.0144   24617688.8724
 96  2  6 20  4  0.0000000  0  8 19 28 29 27 16 31 18  2
  20833280.791   -20910419.69049 -16260781.43049  20833284.7574   20833290.7624
  23263319.100   -11099745.146 9  -8640347.674 9  23263319.199    23263324.854
  21901113.940     3273648.97949   2556603.11649  21901115.1234   21901120.7694
  22799893.132   -12148744.73249  -9454397.67249  22799897.1094   22799904.1384
  24718990.001    -5706426.83449  -2914174.75449  24718992.9294   24719000.0234
  22455188.046    -5256689.65449  -4080352.30549  22455189.7024   22455195.8824
  20250191.163   -17994331.46549 -14007040.52449  20250193.5414   20250198.9054
  24600390.792    -4041743.60849  -2906504.88749  24600394.9684   24600402.8644
 96  2  6 20  4 30.0000000  0  8 19 28 29 27 16 31 18  2
  20828431.436   -20935904.64349 -16280639.82049  20828435.0584   20828441.1514
  23264204.472   -11095102.259 9  -8636729.839 9  23264202.564    23264208.728
  21915546.832     3349510.98249   2615716.33549  21915550.9984   21915556.6954
  22787145.877   -12215738.26249  -9506600.38649  22787148.7964   22787155.4294
  24706227.048    -5773492.12049  -2966433.40249  24706232.0524   24706238.1014
  22444842.071    -5311061.91649  -4122720.28049  22444843.2414   22444849.0544
  20254244.336   -17973030.28549 -13990442.20949  20254246.8684   20254252.2474
  24583135.387    -4132439.01449  -2977176.58249  24583135.9824   24583144.5154
 96  2  6 20  5  0.0000000  0  8 19 28 29 27 16 31 18  2
  20823621.104   -20961182.91349 -16300337.15949  20823624.7484   20823630.7684
  23265181.669   -11089902.600 9  -8632678.146 9  23265192.017    23265198.136
  21930053.542     3425731.94649   2675109.28149  21930055.5804   21930061.5514
  22774421.585   -12282597.33149  -9558698.32649  22774425.8524   22774432.4594
  24693539.594    -5840158.66949  -3018381.36149  24693544.9434   24693551.4764
  22434570.719    -5365023.30249  -4164768.08449  22434575.0344   22434580.4114
  20258389.264   -17951245.72749 -13973467.23849  20258392.4954   20258398.2914
  24565909.259    -4222976.46849  -3047725.20049  24565907.3954   24565915.9024
 96  2  6 20  5 30.0000000  0  8 19 28 29 27 16 31 18  2
  20818849.791   -20986259.92049 -16319877.67349  20818852.8574   20818858.7494
  23266285.038   -11084137.727 9  -8628186.047 9  23266289.465    23266294.778
  21944626.786     3502327.80049   2734794.32949  21944631.2954   21944637.5004
  22761720.503   -12349351.96749  -9610714.88349  22761723.1844   22761729.6634
  24680937.249    -5906401.26349  -3069998.96149  24680939.0224   24680945.9144
  22424390.480    -5418532.15749  -4206463.25949  22424392.4024   22424398.1304
  20262632.907   -17928949.12349 -13956093.27149  20262635.4414   20262640.9744
  24548709.974    -4313349.39749  -3118145.61249  24548709.8924   24548718.5914
 96  2  6 20  6  0.0000000  0  8 19 28 29 27 16 31 18  2
  20814118.912   -21011127.37449 -16339254.89949  20814120.4684   20814126.1094
  23267483.782   -11077814.914 9  -8623259.169 9  23267492.751    23267498.260
  21959274.922     3579296.99149   2794770.29849  21959278.1924   21959284.2694
  22749032.272   -12416027.78749  -9662670.02549  22749034.9204   22749041.7164
  24668414.079    -5972222.44849  -3121288.20349  24668413.4704   24668420.7184
  22414297.866    -5471567.52749  -4247789.50349  22414300.0914   22414305.3004
  20266973.504   -17906139.29349 -13938319.38649  20266975.8574   20266981.5854
  24531543.488    -4403565.14649  -3188443.56149  24531542.9514   24531550.2614
 96  2  6 20  6 30.0000000  0  8 19 28 29 27 16 31 18  2
  20809427.173   -21035776.47849 -16358461.98649  20809430.1114   20809435.8824
  23268811.859   -11070939.382 9  -8617901.617 9  23268800.724    23268806.647
  21973990.164     3656625.50549   2855026.26049  21973993.3884   21973998.8924
  22736358.059   -12482641.69349  -9714576.91249  22736358.4404   22736365.0804
  24655967.765    -6037628.06649  -3172253.63549  24655968.6814   24655974.3794
  22404300.012    -5524103.75749  -4288726.78949  22404302.3754   22404308.4454
  20271412.235   -17882812.52549 -13920142.68949  20271415.0004   20271420.4424
  24514402.363    -4493626.91849  -3258621.54949  24514403.8374   24514412.5564
 96  2  6 20  7  0.0000000  0  8 19 28 29 27 16 31 18  2
  20804777.231   -21060211.59449 -16377502.32249  20804780.2944   20804786.0934
  23270211.888   -11063514.783 9  -8612116.201 9  23270213.603    23270219.216
  21988770.560     3734298.15049   2915550.36749  21988773.7924   21988779.9604
  22723686.765   -12549223.17749  -9766458.53449  22723688.1824   22723694.9524
  24643596.166    -6102615.76749  -3222893.39449  24643601.2764   24643609.2014
  22394401.200    -5576136.16749  -4329271.51149  22394400.8364   22394406.7584
  20275946.766   -17858984.44849 -13901575.36449  20275949.1754   20275954.7524
  24497288.720    -4583549.82349  -3328691.32049  24497292.4104   24497299.7844
 96  2  6 20  7 30.0000000  0  8 19 28 29 27 16 31 18  2
  20800167.727   -21084433.70849 -16396376.68449  20800171.0954   20800176.7934
  23271734.489   -11055537.557 9  -8605900.178 9  23271731.597    23271736.988
  22003617.987     3812315.31149   2976342.93249  22003619.9924   22003626.0134
  22711021.010   -12615758.61449  -9818304.28449  22711027.1904   22711033.7684
  24631308.152    -6167195.86049  -3273215.53349  24631311.6314   24631319.3774
  22384589.948    -5627679.87249  -4369435.41949  22384592.3914   22384598.8064
  20280576.671   -17834654.24849 -13882616.77649  20280579.2154   20280584.7194
  24480205.985    -4673328.28549  -3398648.53049  24480208.0174   24480215.6614
 96  2  6 20  8  0.0000000  0  8 19 28 29 27 16 31 18  2
  20795603.592   -21108422.10449 -16415068.93749  20795606.0794   20795611.8534
  23273349.300   -11046992.785 9  -8599241.912 9  23273357.991    23273362.875
  22018531.841     3890696.81549   3037419.41049  22018535.4494   22018541.2804
  22698379.268   -12682203.70749  -9870079.63049  22698383.0464   22698390.2554
  24619101.078    -6231350.53149  -3323206.14749  24619103.7674   24619111.1344
  22374873.854    -5678741.30149  -4409223.52349  22374876.2604   22374881.5124
  20285305.778   -17809804.93049 -13863253.68349  20285307.8954   20285313.3544
  24463151.513    -4762944.52449  -3468479.34749  24463154.9034   24463162.9474
 96  2  6 20  8 30.0000000  0  8 19 28 29 27 16 31 18  2
  20791084.236   -21132174.69249 -16433577.43349  20791085.8404   20791091.6954
  23275091.271   -11037877.523 9  -8592139.084 9  23275092.029    23275097.568
  22033518.127     3969445.47649   3098781.97949  22033520.8484   22033527.0674
  22685760.807   -12748538.53049  -9921769.04949  22685760.0434   22685767.1164
  24606973.181    -6295072.80549  -3372859.87549  24606977.7354   24606984.7234
  22365247.610    -5729327.48949  -4448641.31049  22365250.0354   22365254.6924
  20290134.025   -17784428.97349 -13843480.22149  20290136.4444   20290142.0844
  24446129.250    -4852399.35049  -3538184.39149  24446131.3424   24446140.3914
 96  2  6 20  9  0.0000000  0  8 19 28 29 27 16 31 18  2
  20786600.934   -21155724.11749 -16451927.62649  20786604.5874   20786610.4574
  23276927.848   -11028214.570 9  -8584609.504 9  23276930.976    23276936.482
  22048569.769     4048543.88349   3160417.07049  22048573.6204   22048579.0694
  22673153.352   -12814762.28449  -9973371.92749  22673157.7444   22673164.5684
  24594921.475    -6358376.13249  -3422187.14349  24594929.9654   24594938.1664
  22355702.003    -5779489.30749  -4487728.42549  22355704.4314   22355709.2624
  20295057.058   -17758557.08349 -13823320.31649  20295059.9134   20295065.4754
  24429128.102    -4941736.31749  -3607797.60449  24429131.8994   24429139.4804
 96  2  6 20  9 30.0000000  0  8 19 28 29 27 16 31 18  2
  20782160.225   -21179061.19149 -16470112.34549  20782163.7634   20782169.4734
  23278877.892   -11017985.372 9  -8576638.669 9  23278877.590    23278883.091
  22063693.482     4128014.03249   3222341.83949  22063695.9524   22063701.8294
  22660578.832   -12880840.34949 -10024861.27949  22660583.6494   22660590.4394
  24582971.746    -6421235.04749  -3471168.12149  24582968.5714   24582977.5574
  22346242.834    -5829195.50949  -4526460.50949  22346245.6194   22346251.0634
  20300078.609   -17732165.98449 -13802755.82849  20300081.9954   20300087.6954
  24412157.041    -5030926.84049  -3677296.70949  24412158.9004   24412167.0394
 96  2  6 20 10  0.0000000  0  8 19 28 29 27 16 31 18  2
  20777759.686   -21202189.12149 -16488134.08949  20777762.6984   20777768.2484
  23280930.319   -11007196.639 9  -8568231.832 9  23280930.152    23280935.781
  22078881.470     4207837.41349   3284541.85549  22078885.3154   22078891.5954
  22648030.142   -12946794.12949 -10076253.79449  22648033.0114   22648039.8144
  24571089.406    -6483638.57049  -3519794.24549  24571093.4884   24571102.6244
  22336871.552    -5878441.17749  -4564833.74449  22336874.0414   22336880.5874
  20305196.359   -17705271.80449 -13781799.33549  20305199.9914   20305205.2054
  24395208.104    -5119979.39049  -3746688.29149  24395213.7984   24395220.5544
 96  2  6 20 10 30.0000000  0  8 19 28 29 27 16 31 18  2
  20773395.649   -21225108.07349 -16505992.99649  20773401.3784   20773407.2204
  23283085.847   -10995841.445 9  -8559383.615 9  23283091.584    23283096.809
  22094138.351     4288002.97149   3347008.49449  22094140.9444   22094146.3994
  22635500.867   -13012626.09149 -10127551.37949  22635505.8494   22635512.1314
  24559308.506    -6545574.99749  -3568056.37649  24559308.2424   24559316.3574
  22327590.706    -5927213.68649  -4602838.28049  22327593.1354   22327598.5304
  20310408.275   -17677885.39949 -13760459.29149  20310411.2494   20310416.7714
  24378297.161    -5208881.35749  -3815962.54749  24378296.8034   24378303.5984
 96  2  6 20 11  0.0000000  0  8 19 28 29 27 16 31 18  2
  20769074.659   -21247824.85349 -16523694.36949  20769078.2494   20769084.2044
  23285351.516   -10983915.905 9  -8550090.942 9  23285360.553    23285366.428
  22109454.405     4368501.50449   3409734.61049  22109459.0264   22109464.8484
  22622998.606   -13078342.59249 -10178759.00149  22623000.6374   22623006.7864
  24547605.151    -6607040.00949  -3615951.17649  24547612.6424   24547620.1874
  22318400.721    -5975504.60049  -4640467.54949  22318404.2764   22318410.0644
  20315712.823   -17650007.31449 -13738736.11349  20315716.0684   20315721.5084
  24361409.712    -5297616.43449  -3885106.75849  24361410.7834   24361417.7074
 96  2  6 20 11 30.0000000  0  8 19 28 29 27 16 31 18  2
  20764795.655   -21270322.33649 -16541224.85449  20764797.5504   20764803.4374
  23287732.801   -10971418.814 9  -8540352.943 9  23287739.016    23287744.442
  22124836.271     4449323.72549   3472712.94549  22124838.8704   22124844.5044
  22610514.624   -13143959.72949 -10229889.19249  22610513.4294   22610520.2864
  24535998.228    -6668042.93549  -3663485.91549  24536003.7484   24536011.8934
  22309306.895    -6023297.31349  -4677708.61649  22309309.4704   22309314.1984
  20321112.895   -17621630.22249 -13716624.10249  20321116.3124   20321121.5464
  24344560.760    -5386159.52349  -3954101.34549  24344561.7384   24344568.6244
 96  2  6 20 12  0.0000000  0  8 19 28 29 27 16 31 18  2
  20760553.106   -21292611.62249 -16558593.11349  20760555.7774   20760561.9884
  23290216.940   -10958370.812 9  -8530185.624 9  23290221.831    23290227.265
  22140274.537     4530449.71749   3535927.96849  22140277.1564   22140282.3254
  22598040.288   -13209493.24449 -10280954.23149  22598043.1294   22598049.4074
  24524473.644    -6728608.38749  -3710679.77749  24524478.5624   24524484.3964
  22300301.634    -6070621.54749  -4714584.62149  22300303.8314   22300310.0774
  20326605.008   -17592772.82849 -13694137.82649  20326607.4364   20326613.2224
  24327743.601    -5474531.43849  -4022962.56249  24327744.5734   24327751.1284
 96  2  6 20 12 30.0000000  0  8 19 28 29 27 16 31 18  2
  20756349.832   -21314693.73849 -16575799.94049  20756353.5514   20756359.6034
  23292813.148   -10944762.391 9  -8519581.645 9  23292811.230    23292816.654
  22155772.449     4611892.36349   3599389.75849  22155775.3134   22155780.6554
  22585589.302   -13274925.43049 -10331940.30749  22585591.4474   22585597.7974
  24513029.118    -6788745.38049  -3757539.78249  24513034.6974   24513040.3494
  22291387.093    -6117468.05249  -4751088.40649  22291388.9364   22291394.8074
  20332191.709   -17563412.79949 -13671259.88849  20332194.6464   20332200.1784
  24310955.982    -5562717.31249  -4091678.78649  24310963.1024   24310970.8444
 96  2  6 20 13  0.0000000  0  8 19 28 29 27 16 31 18  2
  20752187.709   -21336570.20249 -16592846.52149  20752190.7364   20752196.8794
  23295502.290   -10930604.250 9  -8508549.305 9  23295505.931    23295510.973
  22171329.353     4693650.20349   3663097.14449  22171332.7904   22171338.4284
  22573155.019   -13340271.56949 -10382859.33449  22573156.6904   22573162.5014
  24501664.723    -6848480.34749  -3804086.50149  24501667.1084   24501674.0204
  22282560.902    -6163845.03749  -4787226.30949  22282563.9334   22282568.3104
  20337876.656   -17533538.08549 -13647980.89649  20337879.5864   20337885.4424
  24294210.848    -5650738.03749  -4160266.31249  24294212.7894   24294220.8404
 96  2  6 20 13 30.0000000  0  8 19 28 29 27 16 31 18  2
  20748068.879   -21358219.36149 -16609715.98149  20748071.0874   20748077.2484
  23298303.879   -10915886.298 9  -8497080.755 9  23298306.133    23298311.816
  22186954.377     4775755.18049   3727075.03549  22186957.1534   22186962.5004
  22560737.418   -13405513.25449 -10433696.97249  22560741.5254   22560747.5124
  24490376.054    -6907799.89749  -3850309.53349  24490379.8454   24490386.1094
  22273826.343    -6209744.79949  -4822992.34749  22273828.9384   22273835.9404
  20343662.466   -17503137.32749 -13624291.99749  20343664.7694   20343670.1614
  24277493.951    -5738585.56749  -4228718.86449  24277495.5844   24277504.6234
 96  2  6 20 14  0.0000000  0  8 19 28 29 27 16 31 18  2
  20743991.667   -21379637.25849 -16626405.23649  20743995.1594   20744001.3724
  23301213.307   -10900603.561 9  -8485172.126 9  23301214.734    23301219.940
  22202646.601     4858218.07849   3791331.81449  22202649.3734   22202654.4544
  22548346.987   -13470637.70049 -10484443.24649  22548348.6614   22548354.7804
  24479170.524    -6966686.91049  -3896195.50649  24479172.9304   24479181.0824
  22265187.713    -6255147.72649  -4858371.25049  22265188.7824   22265194.4694
  20349546.331   -17472213.57849 -13600195.57549  20349549.1924   20349554.7964
  24260809.703    -5826261.86749  -4297038.00449  24260811.5254   24260821.2104
 96  2  6 20 14 30.0000000  0  8 19 28 29 27 16 31 18  2
  20739961.215   -21400816.52249 -16642908.54549  20739965.0084   20739970.9914
  23304223.997   -10884765.356 9  -8472830.646 9  23304227.976    23304233.782
  22218405.484     4941034.78049   3855864.28549  22218408.6504   22218413.6984
  22535975.650   -13535655.63049 -10535106.51949  22535976.3684   22535982.0904
  24468046.161    -7025149.62149  -3941750.86049  24468048.0024   24468055.7444
  22256639.835    -6300058.20049  -4893366.40949  22256642.9794   22256648.3254
  20355528.932   -17440778.56049 -13575700.76149  20355531.3314   20355536.8364
  24244156.098    -5913780.86049  -4365234.54949  24244158.0984   24244166.1084
 96  2  6 20 15  0.0000000  0  8 19 28 29 27 16 31 18  2
  20735983.839   -21421734.02149 -16659207.88349  20735984.7164   20735990.7384
  23307353.055   -10868361.214 9  -8460048.218 9  23307349.967    23307355.122
  22234233.738     5024222.46849   3920685.84249  22234238.6894   22234244.4814
  22523623.938   -13600557.10449 -10585679.06149  22523625.9024   22523631.5714
  24457008.291    -7083168.17749  -3986960.12749  24457007.3814   24457014.2494
  22248193.803    -6344452.92749  -4927959.67449  22248195.5764   22248200.6884
  20361605.162   -17408840.97749 -13550814.33749  20361608.7724   20361614.3544
  24227535.431    -6001126.98549  -4433296.41749  24227536.5134   24227544.4854
 96  2  6 20 15 30.0000000  0  8 19 28 29 27 16 31 18  2
  20732047.874   -21442399.32649 -16675310.71149  20732051.8874   20732058.0464
  23310573.540   -10851395.107 9  -8446827.864 9  23310578.332    23310584.232
  22250134.122     5107768.79449   3985786.85949  22250137.2124   22250143.0134
  22511294.101   -13665342.71149 -10636161.30749  22511297.3934   22511303.2404
  24446054.616    -7140732.95149  -4031815.80849  24446052.4294   24446059.3514
  22239841.615    -6388324.19749  -4962145.03749  22239846.2834   22239852.4894
  20367775.336   -17376421.83749 -13525552.67249  20367778.0084   20367783.4704
  24210946.102    -6088295.50149  -4501219.87449  24210948.1654   24210957.4534
 96  2  6 20 16  0.0000000  0  8 19 28 29 27 16 31 18  2
  20728162.001   -21462830.43149 -16691231.04549  20728163.9724   20728170.2344
  23313913.748   -10833869.419 9  -8433171.508 9  23313913.618    23313919.069
  22266095.118     5191650.20849   4051148.95949  22266099.0764   22266105.0694
  22498985.798   -13730025.25949 -10686563.25749  22498988.4034   22498994.4394
  24435182.098    -7197847.45149  -4076320.60449  24435184.7514   24435192.3164
  22231594.828    -6431669.90649  -4995920.88549  22231598.2444   22231603.7494
  20374035.626   -17343526.35649 -13499919.83449  20374037.7104   20374042.9284
  24194392.257    -6175293.45249  -4569010.42349  24194393.3054   24194401.1514
 96  2  6 20 16 30.0000000  0  8 19 28 29 27 16 31 18  2
  20724312.930   -21483048.93149 -16706985.71449  20724316.7644   20724322.5724
  23317348.620   -10815791.220 9  -8419084.600 9  23317353.812    23317359.368
  22282120.391     5275851.92149   4116760.68149  22282122.5994   22282128.0694
  22486693.753   -13794620.74049 -10736897.35549  22486696.8234   22486702.3424
  24424392.038    -7254525.78049  -4120485.53049  24424399.7714   24424406.9954
  22223442.256    -6474515.98249  -5029307.40149  22223444.9634   22223451.2384
  20380386.279   -17310151.60549 -13473913.54349  20380388.6244   20380393.9654
  24177868.816    -6262125.63949  -4636671.81849  24177869.3404   24177877.2084
 96  2  6 20 17  0.0000000  0  8 19 28 29 27 16 31 18  2
  20720503.857   -21503070.63749 -16722587.03549  20720506.7334   20720512.6844
  23320899.282   -10797148.045 9  -8404557.461 9  23320901.463    23320906.865
  22298202.965     5360371.95249   4182620.41749  22298206.1474   22298211.6914
  22474419.620   -13859118.07849 -10787154.98649  22474422.6494   22474429.1624
  24413698.435    -7310750.96649  -4164297.36549  24413700.3904   24413708.5584
  22215388.358    -6516848.72349  -5062293.93049  22215389.1104   22215395.1154
  20386832.764   -17276274.10049 -13447515.48949  20386835.1644   20386840.5774
  24161379.484    -6348771.27949  -4704187.83649  24161381.5704   24161390.0764
 96  2  6 20 17 30.0000000  0  8 19 28 29 27 16 31 18  2
  20716731.535   -21522901.90149 -16738039.96249  20716733.0574   20716738.8174
  23324554.286   -10777942.433 9  -8389592.050 9  23324556.191    23324561.760
  22314345.886     5445203.21349   4248722.66749  22314348.5704   22314354.8984
  22462166.794   -13923513.64949 -10837333.30949  22462169.0154   22462175.2214
  24403085.466    -7366513.30649  -4207748.51649  24403088.9204   24403097.0214
  22207425.449    -6558681.71549  -5094891.01749  22207428.8634   22207434.0164
  20393377.385   -17241883.35649 -13420717.51349  20393379.7624   20393385.3544
  24144923.851    -6435243.43749  -4771568.68949  24144926.3514   24144933.5984
 96  2  6 20 18  0.0000000  0  8 19 28 29 27 16 31 18  2
  20712993.060   -21542537.81949 -16753340.67249  20712996.3994   20713002.4064
  23328313.672   -10758176.417 9  -8374189.962 9  23328317.453    23328323.112
  22330549.415     5530351.65049   4315072.06649  22330552.1744   22330557.4754
  22449932.516   -13987796.20849 -10887423.57349  22449936.2334   22449942.8034
  24392558.570    -7421817.10949  -4250842.38349  24392564.6594   24392573.2324
  22199559.344    -6600024.55149  -5127106.18049  22199560.5104   22199567.1544
  20400019.470   -17206977.44249 -13393518.10249  20400021.9874   20400027.6424
  24128500.135    -6521535.54749  -4838809.23049  24128505.4884   24128512.6084
 96  2  6 20 18 30.0000000  0  8 19 28 29 27 16 31 18  2
  20709296.511   -21561961.83949 -16768476.26549  20709299.9204   20709305.9194
  23332184.344   -10737836.259 9  -8358340.479 9  23332187.866    23332193.560
  22346817.190     5615838.26949   4381684.99349  22346819.7014   22346825.0854
  22437730.392   -14051939.63849 -10937405.44149  22437730.1074   22437736.7364
  24382129.584    -7476641.28849  -4293562.52349  24382132.4264   24382140.3334
  22191788.306    -6640860.19749  -5158926.11849  22191789.9884   22191796.0124
  20406762.514   -17171541.18949 -13365905.44849  20406765.5414   20406771.0354
  24112121.428    -6607634.58449  -4905899.33949  24112120.8444   24112128.6704
 96  2  6 20 19  0.0000000  0  8 19 28 29 27 16 31 18  2
  20705639.668   -21581167.94949 -16783442.06349  20705645.3154   20705650.9124
  23336164.362   -10716921.303 9  -8342043.100 9  23336167.875    23336173.410
  22363148.392     5701663.13949   4448561.49849  22363151.3654   22363157.2904
  22425548.254   -14115945.49649 -10987280.10149  22425550.3204   22425556.8934
  24371788.171    -7530970.04549  -4335896.62249  24371794.4844   24371801.3884
  22184118.522    -6681167.71949  -5190334.53849  22184120.5394   22184125.7744
  20413606.608   -17135579.41249 -13337883.28849  20413608.9224   20413614.4914
  24095768.643    -6693540.32749  -4972838.82549  24095774.0354   24095781.3044
 96  2  6 20 19 30.0000000  0  8 19 28 29 27 16 31 18  2
  20702029.935   -21600156.40549 -16798238.25649  20702031.8524   20702037.7934
  23340252.122   -10695448.713 9  -8325311.192 9  23340253.680    23340259.636
  22379541.310     5787809.36249   4515688.38549  22379544.6184   22379550.2694
  22413389.930   -14179833.76349 -11037063.12649  22413392.9174   22413399.2694
  24361545.109    -7584820.38949  -4377857.94249  24361547.1514   24361554.3184
  22176545.743    -6720953.61249  -5221336.50349  22176549.3644   22176555.6324
  20420545.245   -17099114.68549 -13309469.22449  20420548.1624   20420553.7014
  24079457.959    -6779276.18349  -5039645.94149  24079459.0244   24079466.4484
 96  2  6 20 20  0.0000000  0  8 19 28 29 27 16 31 18  2
  20698458.570   -21618916.51349 -16812856.51449  20698461.9634   20698467.8914
  23344444.688   -10673407.373 9  -8308136.099 9  23344448.016    23344453.789
  22395996.968     5874279.03249   4583067.32749  22395999.0084   22396004.1574
  22401254.563   -14243607.32149 -11086756.77349  22401256.7954   22401263.2034
  24351389.543    -7638198.14449  -4419450.97549  24351389.1294   24351396.9194
  22169079.370    -6760195.28649  -5251914.39949  22169081.7384   22169086.8084
  20427584.018   -17062126.98049 -13280647.64249  20427586.5074   20427591.7704
  24063176.845    -6864833.54049  -5106313.96549  24063178.6834   24063184.8424
 96  2  6 20 20 30.0000000  0  8 19 28 29 27 16 31 18  2
  20694929.962   -21637459.54149 -16827305.61949  20694933.1504   20694939.2864
  23348744.576   -10650804.728 9  -8290523.616 9  23348749.277    23348755.006
  22412508.109     5961054.53349   4650684.57049  22412512.0024   22412517.7334
  22389137.112   -14307284.14749 -11136375.04549  22389139.5264   22389145.7374
  24341319.305    -7691112.90849  -4460683.24249  24341319.4984   24341327.9624
  22161717.080    -6798891.99249  -5282067.64249  22161718.0174   22161723.3874
  20434720.397   -17024625.36349 -13251425.61549  20434722.6844   20434728.2724
  24046924.315    -6950234.92749  -5172860.44749  24046926.7924   24046934.4774
 96  2  6 20 21  0.0000000  0  8 19 28 29 27 16 31 18  2
  20691446.422   -21655774.18149 -16841576.76049  20691448.2214   20691454.1734
  23353154.619   -10627638.334 9  -8272471.854 9  23353157.737    23353163.267
  22429080.443     6048134.72449   4718539.23549  22429082.9744   22429089.3424
  22377036.224   -14370862.99249 -11185916.96549  22377040.7404   22377047.1474
  24331332.318    -7743570.40749  -4501559.20249  24331337.4874   24331345.4184
  22154457.191    -6837031.17549  -5311786.44749  22154460.1704   22154466.1184
  20441954.128   -16986611.22849 -13221804.21949  20441956.6424   20441962.0204
  24030704.441    -7035474.29449  -5239280.67749  24030706.6024   24030713.6804
 96  2  6 20 21 30.0000000  0  8 19 28 29 27 16 31 18  2
  20688001.220   -21673878.66349 -16855684.13549  20688003.0404   20688009.0054
  23357662.043   -10603932.105 9  -8253999.448 9  23357669.024    23357674.403
  22445705.231     6135496.10749   4786612.99849  22445707.6324   22445713.3064
  22364958.497   -14434351.37649 -11235388.39649  22364959.6594   22364965.8074
  24321426.910    -7795606.53649  -4542106.83349  24321435.3414   24321442.8374
  22147300.593    -6874647.32749  -5341097.69849  22147302.1944   22147307.5714
  20449278.700   -16948122.62449 -13191813.10549  20449280.8964   20449286.2084
  24014510.550    -7120573.65449  -5305591.83349  24014511.9924   24014519.3764
 96  2  6 20 22  0.0000000  0  8 19 28 29 27 16 31 18  2
  20684597.878   -21691753.53849 -16869612.59649  20684601.8034   20684607.3104
  23362286.673   -10579663.591 9  -8235088.894 9  23362287.307    23362292.355
  22462387.503     6223165.27949   4854926.60349  22462390.3254   22462395.9094
  22352895.256   -14497724.26449 -11284769.83049  22352899.7774   22352906.3454
  24311615.872    -7847186.29949  -4582298.84849  24311620.3284   24311627.5074
  22140244.663    -6911723.57649  -5369988.25449  22140246.7374   22140252.4924
  20456694.892   -16909150.59649 -13161445.29749  20456696.9424   20456702.5754
  23998347.672    -7205494.64849  -5371764.01149  23998352.1184   23998359.3484
 96  2  6 20 22 30.0000000  0  8 19 28 29 27 16 31 18  2
  20681238.491   -21709417.25649 -16883376.51949  20681240.1504   20681245.7594
  23367006.593   -10554840.889 9  -8215746.507 9  23367010.790    23367015.889
  22479126.486     6311135.59349   4923474.86149  22479130.5274   22479136.0354
  22340860.375   -14560974.61849 -11334055.77749  22340863.5394   22340870.1264
  24301891.208    -7898288.90049  -4622119.04249  24301896.0004   24301902.7704
  22133288.926    -6948271.42449  -5398467.06749  22133292.1764   22133297.3994
  20464198.960   -16869712.65749 -13130714.44449  20464201.7084   20464207.3974
  23982228.910    -7290219.75249  -5437783.54949  23982229.3634   23982237.0874
 96  2  6 20 23  0.0000000  0  8 19 28 29 27 16 31 18  2
  20677919.694   -21726849.62649 -16896960.16849  20677923.0644   20677928.6834
  23371839.316   -10529449.156 9  -8195960.711 9  23371842.581    23371847.669
  22495928.328     6399428.61649   4992274.59449  22495932.0244   22495937.7184
  22328851.905   -14624082.53149 -11383230.73749  22328854.6764   22328861.3104
  24292270.651    -7948878.89949  -4661539.79349  24292268.9334   24292275.6534
  22126437.960    -6984275.20049  -5426521.93049  22126440.9924   22126445.9654
  20471797.474   -16829782.51849 -13099600.05949  20471800.2714   20471805.9514
  23966149.624    -7374706.61849  -5503617.44149  23966151.8244   23966160.0334
 96  2  6 20 23 30.0000000  0  8 19 28 29 27 16 31 18  2
  20674642.814   -21744065.44649 -16910375.07649  20674646.7174   20674652.7644
  23376778.690   -10503506.641 9  -8175745.751 9  23376779.355    23376784.565
  22512786.967     6488023.21749   5061309.31949  22512791.0094   22512796.8424
  22316862.817   -14687071.47349 -11432312.99449  22316868.4324   22316874.3864
  24282736.896    -7998955.61149  -4700560.58749  24282739.0504   24282746.7204
  22119685.523    -7019768.12749  -5454178.72349  22119687.1344   22119691.8594
  20479489.993   -16789361.78749 -13068103.39449  20479491.8874   20479497.6034
  23950116.939    -7458962.11549  -5569271.03449  23950118.6064   23950125.4514
 96  2  6 20 24  0.0000000  0  8 19 28 29 27 16 31 18  2
  20671406.041   -21761076.17249 -16923630.17849  20671409.5454   20671415.6064
  23381812.033   -10477017.357 9  -8155104.740 9  23381819.957    23381825.096
  22529705.364     6576920.18549   5130579.65049  22529707.4114   22529713.9454
  22304900.349   -14749958.56749 -11481315.88549  22304901.4324   22304907.6994
  24273306.767    -8048518.98149  -4739181.36149  24273307.9724   24273315.5354
  22113027.644    -7054748.24149  -5481435.91849  22113030.5634   22113035.3264
  20487279.814   -16748422.88349 -13036202.95649  20487282.5854   20487288.1304
  23934128.737    -7542997.80149  -5634753.35449  23934126.8614   23934134.3464
 96  2  6 20 24 30.0000000  0  8 19 28 29 27 16 31 18  2
  20668213.843   -21777859.04149 -16936707.73149  20668216.1124   20668222.1384
  23386968.740   -10449964.883 9  -8134024.889 9  23386967.944    23386972.762
  22546681.955     6666132.66149   5200095.82549  22546684.6524   22546690.0054
  22292952.971   -14812726.51449 -11530225.93749  22292957.2324   22292962.9574
  24263974.684    -8097558.90249  -4777394.26849  24263976.0004   24263983.4514
  22106473.284    -7089190.02149  -5508273.64649  22106475.8174   22106481.5064
  20495174.791   -16706932.22749 -13003872.58949  20495177.5414   20495183.4254
  23918173.319    -7626813.32849  -5700064.10149  23918177.2834   23918185.3504
 96  2  6 20 25  0.0000000  0  8 19 28 29 27 16 31 18  2
  20665066.130   -21794399.25549 -16949596.19849  20665068.4254   20665074.5324
  23392219.429   -10422357.682 9  -8112512.789 9  23392221.259    23392226.378
  22563715.198     6755650.67049   5269850.10049  22563719.1824   22563724.9684
  22281027.350   -14875401.85249 -11579063.82349  22281030.3304   22281036.4014
  24254729.094    -8146100.19649  -4815218.61749  24254738.6014   24254744.7844
  22100022.291    -7123090.31949  -5534689.43949  22100024.8534   22100030.5634
  20503172.020   -16664908.62749 -12971126.93549  20503174.4604   20503180.2934
  23902261.215    -7710440.06249  -5765227.74349  23902263.8884   23902271.7584
 96  2  6 20 25 30.0000000  0  8 19 28 29 27 16 31 18  2
  20661964.191   -21810699.57349 -16962297.73149  20661966.6694   20661972.8424
  23397580.281   -10394192.288 9  -8090565.737 9  23397580.959    23397586.220
  22580811.764     6845481.22049   5339847.89349  22580813.2344   22580819.1884
  22269119.053   -14937984.22849 -11627829.27649  22269121.1764   22269127.0514
  24245589.251    -8194158.34249  -4852666.49249  24245592.3844   24245599.6614
  22093676.643    -7156441.77349  -5560677.56749  22093678.9574   22093683.7994
  20511267.981   -16622360.82749 -12937972.80749  20511271.3494   20511276.9794
  23886378.486    -7793899.18249  -5830260.78149  23886382.2484   23886389.9274
 96  2  6 20 26  0.0000000  0  8 19 28 29 27 16 31 18  2
  20658905.998   -21826757.27549 -16974810.21249  20658910.7764   20658916.9864
  23403044.204   -10365468.466 9  -8068183.557 9  23403046.947    23403052.308
  22597962.547     6935629.76849   5410093.48949  22597967.6034   22597973.0364
  22257228.569   -15000461.07949 -11676512.49149  22257231.7884   22257238.3384
  24236535.762    -8241742.99549  -4889745.41149  24236538.8264   24236545.1354
  22087438.651    -7189223.85849  -5586222.01649  22087439.9954   22087445.8204
  20519461.226   -16579306.40149 -12904423.90949  20519464.0224   20519469.9214
  23870532.188    -7877198.73149  -5895169.47649  23870530.4834   23870538.6574
 96  2  6 20 26 30.0000000  0  8 19 28 29 27 16 31 18  2
  20655896.808   -21842565.70449 -16987128.45649  20655902.5104   20655908.7484
  23408616.652   -10336176.035 9  -8045358.309 9  23408621.023    23408626.455
  22615181.131     7026106.14149   5480594.54349  22615184.8134   22615190.2414
  22245363.792   -15062811.78649 -11725097.42249  22245367.1724   22245373.4764
  24227578.402    -8288827.78649  -4926434.83949  24227578.5284   24227585.0084
  22081309.319    -7221418.28349  -5611308.56349  22081313.7714   22081319.3834
  20527748.049   -16535758.54749 -12870490.52349  20527750.8354   20527756.4884
  23854713.733    -7960304.53849  -5959927.18449  23854715.9774   23854723.9974
 96  2  6 20 27  0.0000000  0  8 19 28 29 27 16 31 18  2
  20652929.481   -21858169.58449 -16999287.31549  20652933.2434   20652939.1984
  23414294.177   -10306342.084 9  -8022111.094 9  23414298.490    23414303.598
  22632459.772     7116895.46849   5551339.43549  22632461.6794   22632467.1244
  22233517.659   -15125064.67449 -11773606.12649  22233520.6714   22233527.2944
  24218704.070    -8335439.68149  -4962755.76049  24218708.1904   24218715.5054
  22075289.961    -7253056.57649  -5635961.75749  22075293.2124   22075298.4064
  20536123.543   -16491745.89749 -12836194.95949  20536126.1564   20536131.9354
  23838935.906    -8043232.89649  -6024546.63349  23838935.6844   23838943.4474
 96  2  6 20 27 30.0000000  0  8 19 28 29 27 16 31 18  2
  20649996.849   -21873581.89849 -17011296.89649  20650000.2914   20650006.5624
  23420079.074   -10275967.220 9  -7998442.378 9  23420078.275    23420083.793
  22649795.332     7207994.50949   5622325.66849  22649797.4814   22649802.5554
  22221696.259   -15187208.19849 -11822029.61449  22221695.2144   22221701.8904
  24209926.424    -8381586.24949  -4998714.07749  24209926.8114   24209934.0774
  22069372.754    -7284156.36749  -5660195.34049  22069375.3404   22069380.2854
  20544590.687   -16447250.50249 -12801523.22649  20544593.6574   20544599.0684
  23823187.974    -8125973.12949  -6089019.47749  23823190.3574   23823197.8254
 96  2  6 20 28  0.0000000  0  8 19 28 29 27 16 31 18  2
  20647104.438   -21888783.32449 -17023142.15049  20647107.4364   20647113.7594
  23425963.473   -10245031.839 9  -7974336.892 9  23425965.410    23425970.760
  22667188.538     7299411.03749   5693559.30549  22667193.2674   22667198.9514
  22209890.620   -15249230.32949 -11870358.50949  22209892.4914   22209898.8164
  24201235.326    -8427244.57249  -5034291.96249  24201237.8094   24201245.6474
  22063562.199    -7314697.02749  -5683993.24249  22063563.5034   22063568.6154
  20553154.011   -16402254.18349 -12766461.15949  20553156.1454   20553161.7194
  23807484.675    -8208489.83849  -6153318.14149  23807487.6474   23807495.3354
 96  2  6 20 28 30.0000000  0  8 19 28 29 27 16 31 18  2
  20644252.126   -21903781.54949 -17034829.06449  20644253.6524   20644259.7954
  23431957.029   -10213542.926 9  -7949800.093 9  23431957.637    23431962.718
  22684644.386     7391128.25549   5765027.25249  22684646.4014   22684652.8634
  22198106.918   -15311150.98149 -11918608.33049  22198109.6434   22198116.1244
  24192634.871    -8472417.80149  -5069491.85649  24192642.1574   24192649.3414
  22057851.403    -7344695.44749  -5707368.62049  22057854.8584   22057860.0774
  20561811.556   -16356755.02149 -12731007.26849  20561814.2914   20561819.9034
  23791825.162    -8290778.39749  -6217439.04349  23791828.9064   23791836.1114
 96  2  6 20 29  0.0000000  0  8 19 28 29 27 16 31 18  2
  20641439.720   -21918554.90649 -17046340.76049  20641442.4024   20641448.3724
  23438053.824   -10181505.241 9  -7924835.654 9  23438054.210    23438059.362
  22702151.248     7483128.82249   5836715.97649  22702153.9034   22702159.5354
  22186338.431   -15372974.11049 -11966782.17149  22186345.2394   22186351.2814
  24184131.546    -8517130.60349  -5104332.97849  24184134.6644   24184141.0624
  22052244.960    -7374162.49349  -5730329.93549  22052247.2684   22052252.4184
  20570565.561   -16310758.19349 -12695165.58549  20570567.3844   20570572.6134
  23776210.971    -8372854.56749  -6281394.43749  23776210.5384   23776217.5724
 96  2  6 20 29 30.0000000  0  8 19 28 29 27 16 31 18  2
  20638678.231   -21933073.68649 -17057654.08149  20638679.6784   20638685.5314
  23444253.862   -10148909.148 9  -7899436.107 9  23444257.007    23444262.311
  22719708.126     7575393.66449   5908610.64649  22719711.1144   22719716.4904
  22174604.299   -15434674.04349 -12014860.00549  22174603.9584   22174609.9744
  24175713.728    -8561367.18249  -5138803.01149  24175714.9284   24175723.2234
  22046742.155    -7403080.64249  -5752863.54049  22046744.1684   22046750.3524
  20579412.070   -16264261.91449 -12658934.71849  20579415.2504   20579420.6164
  23760634.608    -8454708.35249  -6345176.54749  23760634.3264   23760641.9494
 96  2  6 20 30  0.0000000  0  8 19 28 29 27 16 31 18  2
  20635960.024   -21947347.00549 -17068776.13749  20635963.5654   20635969.4224
  23450561.727   -10115766.699 9  -7873610.808 9  23450563.837    23450569.158
  22737314.400     7667906.80549   5980698.78049  22737315.7024   22737321.7534
  22162882.436   -15496249.60649 -12062840.93949  22162886.9314   22162892.4544
  24167396.592    -8605110.81649  -5172888.91749  24167391.2384   24167398.9024
  22041345.839    -7431440.84649  -5774962.39449  22041347.6784   22041353.7344
  20588351.095   -16217289.61449 -12622332.92649  20588353.9064   20588359.1624
  23745093.777    -8536345.74449  -6408790.02649  23745098.7204   23745106.4424
 96  2  6 20 30 30.0000000  0  8 19 28 29 27 16 31 18  2
  20633289.490   -21961384.86149 -17079714.72049  20633292.1354   20633298.0484
  23456973.205   -10082082.070 9  -7847363.048 9  23456973.522    23456979.087
  22754965.729     7760667.70049   6052979.96249  22754967.8374   22754973.1164
  22151192.197   -15557686.81649 -12110714.05849  22151195.5584   22151201.5144
  24159155.526    -8648348.79849  -5206580.82049  24159162.7714   24159169.8874
  22036055.293    -7459238.02849  -5796622.53049  22036058.1674   22036063.7574
  20597380.118   -16169841.52349 -12585360.39349  20597382.6144   20597388.0734
  23729597.813    -8617777.46949  -6472243.25949  23729602.7144   23729610.2504
 96  2  6 20 31  0.0000000  0  8 19 28 29 27 16 31 18  2
  20630662.378   -21975192.74749 -17090474.10049  20630664.5504   20630670.4234
  23463485.495   -10047844.026 9  -7820684.042 9  23463488.740    23463494.370
  22772667.096     7853690.58449   6125465.29349  22772669.5174   22772675.1544
  22139528.867   -15618966.35349 -12158464.33149  22139534.8374   22139539.9934
  24151025.735    -8691069.93749  -5239869.99149  24151034.2244   24151041.0594
  22030877.901    -7486447.09849  -5817824.39049  22030880.2444   22030886.0894
  20606501.417   -16121912.62949 -12548013.20749  20606503.0284   20606508.6994
  23714144.228    -8699006.85449  -6535538.83649  23714144.6704   23714153.1124
 96  2  6 20 31 30.0000000  0  8 19 28 29 27 16 31 18  2
  20628071.716   -21988799.65449 -17101076.86949  20628074.9084   20628081.2254
  23470103.632   -10013061.992 9  -7793581.150 9  23470107.954    23470113.356
  22790417.920     7946979.55149   6198157.97449  22790421.8394   22790427.2674
  22127898.864   -15680102.51349 -12206102.86749  22127900.4164   22127906.0504
  24143001.723    -8733268.08149  -5272751.64149  24143004.1364   24143011.5634
  22025811.762    -7513070.69049  -5838570.03549  22025814.0474   22025820.0304
  20615712.059   -16073506.22649 -12510293.93749  20615714.6214   20615720.3154
  23698721.061    -8780042.63049  -6598683.54649  23698725.2494   23698732.7904
 96  2  6 20 32  0.0000000  0  8 19 28 29 27 16 31 18  2
  20625517.653   -22002224.78849 -17111538.00049  20625520.4264   20625526.2604
  23476825.619    -9977752.753 9  -7766067.436 9  23476827.328    23476832.282
  22808224.287     8040556.29249   6271074.87649  22808228.9344   22808234.0854
  22116286.101   -15741125.34949 -12253653.10149  22116288.3144   22116294.0714
  24135066.573    -8774961.04049  -5305239.64849  24135069.5514   24135077.9954
  22020853.832    -7539130.73149  -5858876.55149  22020854.7044   22020860.9424
  20625011.792   -16024632.41249 -12472210.45249  20625014.8264   20625020.8164
  23683336.336    -8860902.22749  -6661690.98649  23683338.0884   23683345.3674
 96  2  6 20 32 30.0000000  0  8 19 28 29 27 16 31 18  2
  20623002.999   -22015435.76249 -17121832.25349  20623006.4134   20623012.2734
  23483650.298    -9941883.171 9  -7738117.112 9  23483653.017    23483657.760
  22826097.969     8134465.31949   6344250.69949  22826099.0674   22826105.9664
  22104700.528   -15802009.33949 -12301095.14749  22104702.3384   22104708.1774
  24127227.643    -8816130.75149  -5337319.91949  24127235.2744   24127242.7094
  22016004.688    -7564605.42749  -5878726.94549  22016006.5624   22016012.8584
  20634409.618   -15975250.73149 -12433731.22549  20634412.0164   20634417.5654
  23667990.265    -8941548.65549  -6724532.33349  23667991.1364   23667997.9324
 96  2  6 20 33  0.0000000  0  8 19 28 29 27 16 31 18  2
  20620533.777   -22028419.23249 -17131949.22949  20620536.1594   20620541.5704
  23490579.919    -9905466.987 9  -7709740.862 9  23490582.363    23490587.564
  22844030.303     8228700.64949   6417680.80849  22844031.6954   22844037.6814
  22093136.233   -15862768.52049 -12348439.93549  22093139.9174   22093146.1874
  24119492.044    -8856790.38249  -5369002.72049  24119498.8574   24119505.5534
  22011263.949    -7589517.06549  -5898138.59949  22011266.9754   22011272.4464
  20643901.240   -15925369.97849 -12394863.10649  20643904.0184   20643909.4284
  23652682.296    -9021987.04349  -6787211.55549  23652684.5624   23652691.7624
 96  2  6 20 33 30.0000000  0  8 19 28 29 27 16 31 18  2
  20618108.568   -22041165.73949 -17141881.55849  20618110.1094   20618115.7134
  23497608.189    -9868516.706 9  -7680948.438 9  23497613.813    23497619.215
  22862019.199     8323246.34249   6491352.73349  22862023.4224   22862029.2464
  22081596.619   -15923419.49349 -12395700.40949  22081598.5254   22081604.8414
  24111856.077    -8896945.96949  -5400292.78349  24111856.9424   24111863.1974
  22006625.949    -7613891.18449  -5917131.40549  22006629.0224   22006634.2464
  20653487.182   -15874998.81449 -12355612.85449  20653489.4294   20653494.9464
  23637415.453    -9102218.35849  -6849729.44049  23637416.6244   23637423.8934
 96  2  6 20 34  0.0000000  0  8 19 28 29 27 16 31 18  2
  20615728.861   -22053671.98649 -17151626.67549  20615730.1774   20615735.7894
  23504744.111    -9831028.678 9  -7651736.988 9  23504747.444    23504752.693
  22880070.633     8418095.12849   6565260.84249  22880072.5584   22880078.0214
  22070075.159   -15983951.45349 -12442868.14849  22070079.9744   22070085.5764
  24104301.725    -8936598.02649  -5431190.46449  24104310.7974   24104318.1204
  22002092.047    -7637721.96549  -5935700.82549  22002093.3574   22002099.0534
  20663167.102   -15824127.27949 -12315972.69949  20663170.0184   20663175.2034
  23622184.596    -9182242.07449  -6912085.55649  23622188.4324   23622196.0454
 96  2  6 20 34 30.0000000  0  8 19 28 29 27 16 31 18  2
  20613392.877   -22065939.86249 -17161186.04949  20613395.7984   20613401.6274
  23511977.378    -9793002.023 9  -7622105.842 9  23511983.679    23511989.042
  22898167.007     8513208.73849   6639375.29749  22898171.1754   22898177.3934
  22058581.966   -16044358.94649 -12489938.89349  22058584.7024   22058590.5754
  24096864.673    -8975747.25449  -5461696.34549  24096860.9844   24096869.5154
  21997665.986    -7660983.04849  -5953826.31549  21997666.9754   21997672.6554
  20672941.994   -15772765.35249 -12275950.42749  20672943.7004   20672949.3924
  23606994.762    -9262056.80749  -6974278.83349  23606999.9224   23607007.7524
 96  2  6 20 35  0.0000000  0  8 19 28 29 27 16 31 18  2
  20611106.082   -22077964.78349 -17170556.11149  20611107.4604   20611113.3194
  23519318.607    -9754441.576 9  -7592058.751 9  23519321.407    23519326.889
  22916315.535     8608570.53349   6713683.15249  22916318.8044   22916323.9874
  22047108.157   -16104657.30049 -12536924.59449  22047110.5024   22047115.9924
  24089500.739    -9014392.63249  -5491809.59349  24089507.2524   24089516.1634
  21993348.839    -7683663.92449  -5971499.69849  21993351.2314   21993357.2774
  20682808.163   -15720917.96849 -12235549.87149  20682810.2384   20682815.8254
  23591849.628    -9341671.19249  -7036316.01949  23591850.3024   23591858.0304
 96  2  6 20 35 30.0000000  0  8 19 28 29 27 16 31 18  2
  20608858.438   -22089772.27949 -17179756.74949  20608860.9574   20608866.5834
  23526757.393    -9715353.196 9  -7561600.286 9  23526759.807    23526765.235
  22934505.789     8704168.28749   6788174.86649  22934510.0644   22934515.7854
  22035653.245   -16164858.34649 -12583834.46849  22035654.3744   22035660.5504
  24082244.356    -9052546.40249  -5521539.79549  24082247.4804   24082254.8564
  21989143.406    -7705768.17549  -5988723.76849  21989145.1854   21989150.7254
  20692764.213   -15668591.88349 -12194776.31349  20692767.4034   20692772.8564
  23576734.323    -9421094.74849  -7098204.49849  23576736.3874   23576743.8544
 96  2  6 20 36  0.0000000  0  8 19 28 29 27 16 31 18  2
  20606651.839   -22101355.11049 -17188782.33549  20606656.7394   20606662.3454
  23534298.979    -9675721.926 9  -7530718.782 9  23534301.347    23534306.712
  22952746.915     8800020.06749   6862864.52949  22952750.0814   22952756.5334
  22024219.745   -16224932.80549 -12630645.71349  22024222.5424   22024228.5964
  24075079.217    -9090190.09249  -5550872.54349  24075083.8034   24075090.9334
  21985053.344    -7727254.32249  -6005466.19149  21985055.5704   21985061.6664
  20702817.024   -15615770.82749 -12153617.05249  20702818.9934   20702824.3904
  23561663.379    -9500310.04649  -7159930.69249  23561662.7284   23561669.4454
 96  2  6 20 36 30.0000000  0  8 19 28 29 27 16 31 18  2
  20604486.591   -22112743.07649 -17197656.06549  20604489.4434   20604495.4464
  23541939.464    -9635580.308 9  -7499439.613 9  23541939.976    23541945.581
  22971030.552     8896100.15549   6937732.08249  22971032.8474   22971039.7994
  22012804.719   -16284921.93949 -12677390.46249  22012807.0684   22012813.0954
  24068018.698    -9127345.64849  -5579824.91249  24068012.4924   24068020.0484
  21981075.580    -7748153.63349  -6021751.32649  21981079.2344   21981084.7064
  20712953.069   -15562499.66449 -12112107.06049  20712955.9744   20712961.4304
  23546622.057    -9579336.34649  -7221509.61549  23546623.9384   23546631.2574
 96  2  6 20 37  0.0000000  0  8 19 28 29 27 16 31 18  2
  20602360.886   -22123914.37649 -17206360.97149  20602363.7334   20602369.6474
  23549680.672    -9594905.529 9  -7467744.978 9  23549679.912    23549685.437
  22989364.541     8992453.72949   7012812.77149  22989369.6014   22989375.3504
  22001410.718   -16344807.91349 -12724054.82749  22001411.2784   22001417.1334
  24061041.493    -9163986.17349  -5608375.95749  24061040.2914   24061048.0114
  21977210.106    -7768472.88549  -6037584.48449  21977212.7234   21977217.9084
  20723181.617   -15508747.35449 -12070222.14749  20723184.5894   20723190.3424
  23531625.177    -9658153.43449  -7282925.49749  23531625.6694   23531633.3584
 96  2  6 20 37 30.0000000  0  8 19 28 29 27 16 31 18  2
  20600273.832   -22134880.35949 -17214905.88949  20600276.8284   20600282.8304
  23557519.613    -9553689.400 9  -7435628.533 9  23557523.522    23557528.894
  23007754.401     9089091.75849   7088115.09349  23007757.8694   23007765.1654
  21990035.891   -16404575.68549 -12770627.08649  21990037.6114   21990043.3384
  24054161.360    -9200114.12349  -5636527.60149  24054165.2554   24054173.1614
  21973456.060    -7788201.00549  -6052957.00949  21973457.9594   21973463.9114
  20733501.941   -15454517.05849 -12027964.78049  20733504.4764   20733510.1504
  23516663.803    -9736758.58849  -7344176.21849  23516667.5764   23516674.8374
 96  2  6 20 38  0.0000000  0  8 19 28 29 27 16 31 18  2
  20598222.633   -22145658.04749 -17223304.08349  20598225.7924   20598231.8214
  23565464.004    -9511954.463 9  -7403107.804 9  23565465.269    23565470.740
  23026195.410     9185989.68749   7163619.93649  23026198.0594   23026204.3744
  21978678.107   -16464252.89749 -12817128.77449  21978681.3864   21978687.0974
  24047384.511    -9235750.23649  -5664295.99849  24047384.8144   24047393.0674
  21969811.750    -7807349.60849  -6067877.95949  21969814.2704   21969819.8554
  20743907.007   -15399836.27649 -11985356.38549  20743909.7544   20743915.6954
  23501746.206    -9815166.26149  -7405273.06249  23501747.2564   23501754.4284
 96  2  6 20 38 30.0000000  0  8 19 28 29 27 16 31 18  2
  20596209.440   -22156234.11749 -17231545.16949  20596213.2914   20596219.4114
  23573501.129    -9469692.833 9  -7370176.668 9  23573507.426    23573512.989
  23044685.291     9283151.66249   7239330.52749  23044686.8464   23044692.9664
  21967339.820   -16523843.16549 -12863562.72449  21967341.7184   21967347.0974
  24040691.884    -9270896.38949  -5691682.59349  24040696.5934   24040703.7374
  21966276.998    -7825929.07949  -6082355.44749  21966279.0494   21966284.3294
  20754400.703   -15344696.17149 -11942390.07249  20754402.8434   20754408.5914
  23486862.817    -9893362.78449  -7466205.35049  23486867.0434   23486873.7664
 96  2  6 20 39  0.0000000  0  8 19 28 29 27 16 31 18  2
  20594238.454   -22166603.53249 -17239625.22849  20594240.4304   20594245.8844
  23581646.061    -9426907.113 9  -7336837.147 9  23581649.372    23581654.855
  23063221.595     9380572.32949   7315242.69549  23063225.1404   23063231.3924
  21956020.498   -16583336.14349 -12909920.86149  21956020.3354   21956025.8534
  24034098.680    -9305557.12549  -5718690.94149  24034101.0844   24034107.4724
  21962848.909    -7843939.64749  -6096389.61149  21962850.9114   21962856.8944
  20764982.427   -15289085.85649 -11899057.36249  20764985.1534   20764990.5894
  23472026.742    -9971347.14449  -7526972.30049  23472026.9124   23472034.2294
 96  2  6 20 39 30.0000000  0  8 19 28 29 27 16 31 18  2
  20592309.497   -22176737.20649 -17247521.58949  20592311.9814   20592317.5104
  23589894.283    -9383581.617 9  -7303077.020 9  23589893.867    23589899.275
  23081812.221     9478258.51249   7391361.77349  23081814.8444   23081820.5434
  21944719.453   -16642694.19849 -12956173.87149  21944724.8064   21944730.5634
  24027599.193    -9339706.34949  -5745300.71849  24027602.9094   24027609.9524
  21959536.532    -7861344.27249  -6109951.62049  21959539.9604   21959544.6704
  20775658.605   -15232983.56649 -11855341.29349  20775660.6404   20775666.3844
  23457230.624   -10049086.05649  -7587547.98849  23457233.3514   23457241.1244
 96  2  6 20 40  0.0000000  0  8 19 28 29 27 16 31 18  2
  20590431.000   -22186600.38149 -17255207.17649  20590435.0824   20590440.7934
  23598238.490    -9339706.539 9  -7268888.651 9  23598242.998    23598248.586
  23100452.186     9576218.99549   7467694.57049  23100456.3074   23100461.7254
  21933458.936   -16701883.89549 -13002295.68849  21933461.6444   21933466.9634
  24021214.252    -9373314.80949  -5771489.12249  24021206.8894   24021213.6234
  21956341.500    -7878139.34549  -6123038.67349  21956343.6064   21956348.5484
  20786432.021   -15176366.43049 -11811224.05349  20786434.7234   20786440.5444
  23442490.556   -10126558.24849  -7647915.84149  23442491.1434   23442497.9664
 96  2  6 20 40 30.0000000  0  8 19 28 29 27 16 31 18  2
  20588602.185   -22196206.13149 -17262692.16249  20588607.1254   20588612.8984
  23606691.823    -9295293.608 9  -7234281.169 9  23606694.331    23606700.117
  23119141.462     9674436.88849   7544227.95749  23119146.5074   23119152.1764
  21922228.971   -16760893.28149 -13048276.99949  21922232.6454   21922238.1384
  24014910.760    -9406388.37049  -5797260.71749  24014912.7854   24014921.6684
  21953258.395    -7894341.64549  -6135663.80949  21953259.7694   21953265.3864
  20797302.419   -15119242.63649 -11766712.01149  20797304.8644   20797310.7984
  23427793.731   -10203776.07349  -7708085.48049  23427796.8604   23427804.2994
 96  2  6 20 41  0.0000000  0  8 19 28 29 27 16 31 18  2
  20586826.366   -22205554.55249 -17269976.63349  20586828.1054   20586833.7404
  23615245.428    -9250348.964 9  -7199259.368 9  23615247.085    23615252.839
  23137883.004     9772906.61849   7620957.57249  23137883.9534   23137890.7694
  21911032.637   -16819712.85549 -13094110.40849  21911039.2494   21911045.3274
  24008715.635    -9438914.51949  -5822605.75049  24008723.7434   24008730.5274
  21950289.598    -7909947.61849  -6147824.28149  21950290.9994   21950295.8244
  20808268.001   -15061620.33449 -11721811.52349  20808270.2864   20808275.8404
  23413147.670   -10280749.85949  -7768064.97549  23413149.1684   23413156.3754
